Date StartTime U_cm/s V_cm/s W_cm/s Ustd_cm/s Vstd_cm/s Wstd_cm/s Uvar_(cm/s)^2 Vvar_(cm/s)^2 Wvar_(cm/s)^2 KE_(m/s)^2 TurbulentKE_(m/s)^2 HorizWindSpeed_cm/s FrictionSpeec_cm/s DragCoef SpeedOfSound_m/s SonicTemperature_C Pressure_mb 
08/06/2014  00:00:00      -11.912      -25.623        3.650       15.290       11.713       12.718      233.796      137.191      161.757        0.067        0.027       28.257        6.801        0.058      341.892       16.920      864.861
08/06/2014  00:01:00       -1.711      -15.039        0.473       13.685       12.020        8.910      187.292      144.470       79.388        0.032        0.021       15.136        4.354        0.083      341.864       16.871      864.862
08/06/2014  00:02:00      -17.182      -37.512       -4.186       17.487       24.990       11.078      305.792      624.519      122.723        0.139        0.053       41.260        7.150        0.030      341.872       16.886      864.870
08/06/2014  00:03:00      -22.295      -41.458        0.691       16.561       12.168        8.489      274.254      148.061       72.066        0.136        0.025       47.073        6.758        0.021      341.840       16.834      864.868
08/06/2014  00:04:00       -7.816      -48.895       -9.468       10.972       15.676       11.961      120.388      245.740      143.074        0.153        0.025       49.516       10.043        0.041      341.871       16.883      864.876
08/06/2014  00:05:00      -32.713      -10.197       -2.685        9.870       11.636        6.770       97.421      135.397       45.837        0.073        0.014       34.266        3.601        0.011      341.814       16.788      864.874
08/06/2014  00:06:00      -17.331      -28.953        1.398       10.472       13.328        8.034      109.654      177.634       64.538        0.075        0.018       33.744        5.089        0.023      341.857       16.858      864.875
08/06/2014  00:07:00      -17.285      -13.594        5.338       10.214       16.909        7.845      104.336      285.912       61.536        0.048        0.023       21.990        3.096        0.020      341.853       16.856      864.877
08/06/2014  00:08:00       -9.917        9.043        1.298        3.853        7.945        3.843       14.848       63.129       14.770        0.014        0.005       13.421        3.051        0.052      341.810       16.784      864.879
08/06/2014  00:09:00       -6.151       16.160        6.833        7.221        5.218        4.174       52.136       27.224       17.421        0.022        0.005       17.291        2.149        0.015      341.739       16.662      864.880
08/06/2014  00:10:00       -6.348       10.069        2.900        6.632        4.044        5.340       43.979       16.356       28.512        0.012        0.004       11.903        3.465        0.085      341.795       16.758      864.882
08/06/2014  00:11:00       -7.525        8.935        3.603        5.808        4.740        4.577       33.736       22.471       20.950        0.011        0.004       11.682        3.502        0.090      341.792       16.751      864.894
08/06/2014  00:12:00      -21.145       12.563        0.167        8.442       13.218        8.181       71.271      174.723       66.924        0.046        0.016       24.596        5.613        0.052      341.725       16.640      864.893
08/06/2014  00:13:00      -40.011        8.413       -2.897       21.508        8.567        6.368      462.586       73.399       40.557        0.113        0.029       40.886        5.800        0.020      341.719       16.626      864.890
08/06/2014  00:14:00      -62.101        0.247       -6.744       10.428       10.414        6.313      108.733      108.458       39.858        0.208        0.013       62.102        4.923        0.006      341.727       16.641      864.893
08/06/2014  00:15:00      -52.707      -10.735       -1.048       18.731       11.843        9.723      350.861      140.259       94.538        0.174        0.029       53.789        8.362        0.024      341.699       16.591      864.889
08/06/2014  00:16:00      -66.904      -25.814        0.933       16.104       11.837        8.152      259.346      140.110       66.458        0.280        0.023       71.711        3.694        0.003      341.730       16.647      864.882
08/06/2014  00:17:00      -50.117      -27.105        3.084       21.286       17.014       14.121      453.102      289.471      199.395        0.210        0.047       56.978       12.835        0.051      341.758       16.693      864.876
08/06/2014  00:18:00      -28.535      -21.536        0.016       28.542       15.156       14.657      814.630      229.710      214.823        0.127        0.063       35.750       12.702        0.126      341.742       16.665      864.870
08/06/2014  00:19:00      -73.439      -43.149       -0.298       27.783       13.116       11.593      771.922      172.021      134.408        0.417        0.054       85.177       11.233        0.017      341.724       16.636      864.861
08/06/2014  00:20:00      -20.856      -40.643        7.835       27.530       18.395       15.370      757.891      338.365      236.237        0.174        0.067       45.682       15.376        0.113      341.791       16.749      864.849
08/06/2014  00:21:00      -46.451      -35.020        1.468       28.328       16.126       13.377      802.448      260.055      178.952        0.231        0.062       58.173       14.491        0.062      341.725       16.635      864.847
08/06/2014  00:22:00      -20.770      -29.025        5.465       18.912       18.434       13.195      357.663      339.809      174.106        0.109        0.044       35.691       11.943        0.112      341.773       16.718      864.844
08/06/2014  00:23:00      -55.515      -32.137       -5.431       27.066       13.834       11.755      732.559      191.384      138.192        0.260        0.053       64.147        8.102        0.016      341.752       16.686      864.845
08/06/2014  00:24:00      -44.856      -44.027        1.452       22.226       13.424       12.215      493.987      180.206      149.215        0.239        0.041       62.852       13.058        0.043      341.750       16.681      864.846
08/06/2014  00:25:00      -53.503      -31.405       -2.519       22.426       16.795        8.327      502.939      282.073       69.343        0.235        0.043       62.040        6.791        0.012      341.750       16.680      864.849
08/06/2014  00:26:00      -63.579       -5.197       -5.135       16.132       11.439        7.906      260.246      130.852       62.501        0.227        0.023       63.791        6.153        0.009      341.637       16.487      864.848
08/06/2014  00:27:00      -62.551      -11.581       -4.217       17.445       11.762       10.859      304.336      138.351      117.914        0.231        0.028       63.614        9.130        0.021      341.609       16.440      864.841
08/06/2014  00:28:00      -55.988      -15.276       -3.476       13.408       15.196       11.520      179.771      230.919      132.702        0.196        0.027       58.035        8.234        0.020      341.571       16.375      864.837
08/06/2014  00:29:00      -54.686      -24.235       -1.962       17.344       18.684        9.435      300.823      349.094       89.024        0.216        0.037       59.815        9.143        0.023      341.621       16.459      864.832
08/06/2014  00:30:00      -18.411      -20.206        0.958       18.503       12.244        9.800      342.372      149.904       96.045        0.067        0.029       27.336        8.470        0.096      341.673       16.548      864.827
08/06/2014  00:31:00        3.988      -23.411       -1.220       10.079        8.510       10.127      101.588       72.422      102.557        0.042        0.014       23.749        3.829        0.026      341.728       16.642      864.824
08/06/2014  00:32:00      -13.249      -12.038        2.008       16.271       10.357        9.430      264.746      107.273       88.930        0.039        0.023       17.901        7.055        0.155      341.706       16.605      864.819
08/06/2014  00:33:00      -50.185       -8.119       -1.622       14.523       10.109        8.843      210.916      102.201       78.196        0.149        0.020       50.837        6.468        0.016      341.650       16.513      864.820
08/06/2014  00:34:00      -33.972       -7.110        0.562       14.249       12.423        7.654      203.047      154.323       58.581        0.081        0.021       34.708        6.769        0.038      341.608       16.438      864.821
08/06/2014  00:35:00      -69.044       10.555       -5.842       19.751        9.434        9.156      390.102       88.991       83.837        0.274        0.028       69.846        6.518        0.009      341.510       16.272      864.832
08/06/2014  00:36:00      -75.367        2.153       -3.919       20.129       15.823       10.077      405.180      250.363      101.536        0.323        0.038       75.398        9.634        0.016      341.506       16.264      864.835
08/06/2014  00:37:00      -72.364        1.227       -5.791       24.141       15.626       13.842      582.808      244.172      191.592        0.314        0.051       72.374       10.601        0.021      341.465       16.198      864.833
08/06/2014  00:38:00      -62.684      -30.936       -2.306       16.793       18.557       14.891      282.007      344.369      221.756        0.287        0.042       69.902       10.546        0.023      341.447       16.164      864.837
08/06/2014  00:39:00      -55.428      -31.069       -2.518       21.719       17.338        8.711      471.701      300.611       75.876        0.245        0.042       63.541        6.406        0.010      341.481       16.223      864.834
08/06/2014  00:40:00      -67.893      -39.286       -2.541       30.742       15.874       12.545      945.057      251.971      157.369        0.376        0.068       78.440       12.648        0.026      341.477       16.217      864.827
08/06/2014  00:41:00      -97.939      -35.668       -2.559       15.944       15.670        8.863      254.213      245.544       78.557        0.572        0.029      104.232        7.586        0.005      341.488       16.235      864.824
08/06/2014  00:42:00      -74.747      -45.059        5.727       30.488       25.391       16.072      929.493      644.707      258.295        0.474        0.092       87.278       14.205        0.026      341.515       16.279      864.818
08/06/2014  00:43:00      -68.883      -43.286        2.483       28.433       23.090       15.646      808.464      533.146      244.812        0.411        0.079       81.354       13.933        0.029      341.528       16.302      864.813
08/06/2014  00:44:00      -81.631      -42.936       -2.543       26.321       20.470       15.058      692.800      419.041      226.739        0.493        0.067       92.234       13.552        0.022      341.539       16.323      864.811
08/06/2014  00:45:00      -77.265      -49.289       -7.255       22.973       15.247       11.500      527.740      232.462      132.243        0.467        0.045       91.648       11.553        0.016      341.573       16.382      864.813
08/06/2014  00:46:00      -78.860      -60.038      -10.837       14.932       21.011       11.787      222.956      441.442      138.929        0.537        0.040       99.113        7.754        0.006      341.590       16.410      864.817
08/06/2014  00:47:00      -85.188      -19.975       -9.273       15.213       16.633       10.470      231.444      276.651      109.619        0.418        0.031       87.499        7.741        0.008      341.579       16.392      864.820
08/06/2014  00:48:00      -75.279       -2.586       -2.429       28.681       19.263       13.712      822.601      371.082      188.025        0.353        0.069       75.324        9.488        0.016      341.485       16.230      864.827
08/06/2014  00:49:00     -101.030       -3.256      -11.570       33.052       17.156       11.018     1092.464      294.313      121.404        0.593        0.075      101.082        7.132        0.005      341.448       16.167      864.837
08/06/2014  00:50:00     -100.321      -30.344       -1.095       30.242       25.157       17.661      914.592      632.853      311.910        0.642        0.093      104.809       18.203        0.030      341.414       16.110      864.847
08/06/2014  00:51:00      -52.208      -13.589        5.140       27.596       24.236       14.907      761.525      587.401      222.210        0.225        0.079       53.948        6.228        0.013      341.414       16.110      864.853
08/06/2014  00:52:00      -57.984      -10.930       -0.088       26.007       27.750       15.094      676.363      770.051      227.837        0.258        0.084       59.005        8.780        0.022      341.423       16.124      864.866
08/06/2014  00:53:00      -68.638       -2.053       -9.532       14.969       19.474       13.071      224.060      379.237      170.861        0.279        0.039       68.669        8.092        0.014      341.417       16.115      864.881
08/06/2014  00:54:00      -51.189       -4.279       -5.118       13.307       18.961        8.040      177.088      359.529       64.640        0.163        0.030       51.368        4.314        0.007      341.417       16.115      864.889
08/06/2014  00:55:00      -67.362       -0.692      -10.144       18.065       15.430       10.802      326.331      238.084      116.674        0.266        0.034       67.366        9.294        0.019      341.364       16.027      864.893
08/06/2014  00:56:00      -75.304        5.619       -8.742       12.660       15.935        7.957      160.275      253.916       63.310        0.313        0.024       75.513        4.258        0.003      341.341       15.988      864.903
08/06/2014  00:57:00      -62.580       -6.384       -3.984       18.359       18.348       11.627      337.068      336.639      135.197        0.239        0.040       62.905       11.565        0.034      341.352       16.004      864.904
08/06/2014  00:58:00      -71.370        4.531       -3.774       18.031       15.886        9.529      325.127      252.352       90.795        0.290        0.033       71.514        8.362        0.014      341.331       15.971      864.902
08/06/2014  00:59:00      -73.132       -9.605       -7.836       13.776       21.698        9.803      189.787      470.785       96.095        0.313        0.038       73.760        6.979        0.009      341.322       15.955      864.900
08/06/2014  01:00:00      -49.056        0.532       -7.415       13.839       17.569       11.730      191.522      308.660      137.597        0.155        0.032       49.059        8.520        0.030      341.318       15.948      864.894
08/06/2014  01:01:00      -74.517       34.908      -13.560       25.913       26.279       11.749      671.500      690.561      138.027        0.423        0.075       82.288        7.056        0.007      341.408       16.101      864.887
08/06/2014  01:02:00      -70.282       10.795       -8.077       24.757       25.258       12.490      612.925      637.983      156.012        0.326        0.070       71.106        7.290        0.011      341.474       16.210      864.885
08/06/2014  01:03:00      -75.184       18.625       -7.882       30.459       29.357       15.108      927.755      861.809      228.256        0.404        0.101       77.456       13.438        0.030      341.430       16.137      864.873
08/06/2014  01:04:00      -67.221        6.141      -14.452       13.675       22.849        9.692      187.017      522.099       93.930        0.278        0.040       67.501        5.782        0.007      341.419       16.118      864.872
08/06/2014  01:05:00      -62.645       15.757      -13.583       22.290       15.695       14.003      496.857      246.348      196.084        0.265        0.047       64.596       12.321        0.036      341.467       16.201      864.858
08/06/2014  01:06:00      -64.253       31.737      -13.723       16.993       24.895       11.654      288.760      619.773      135.823        0.318        0.052       71.663       10.711        0.022      341.436       16.147      864.858
08/06/2014  01:07:00      -37.372       11.729       -2.642       16.477       19.075       12.340      271.486      363.868      152.266        0.116        0.039       39.169        9.836        0.063      341.470       16.205      864.850
08/06/2014  01:08:00      -35.024       -6.339       -5.648       16.005       20.407       11.920      256.160      416.434      142.089        0.106        0.041       35.593        8.338        0.055      341.412       16.107      864.842
08/06/2014  01:09:00      -45.590       -4.460       -3.239       25.327       25.038       16.410      641.470      626.897      269.279        0.182        0.077       45.808       11.615        0.064      341.325       15.961      864.838
08/06/2014  01:10:00      -71.553      -17.254       -6.177       15.322       12.933       10.609      234.751      167.256      112.548        0.298        0.026       73.603        7.556        0.011      341.335       15.978      864.833
08/06/2014  01:11:00      -61.936       -9.349       -4.143       20.048       14.027        8.688      401.938      196.761       75.489        0.231        0.034       62.637        6.696        0.011      341.324       15.957      864.822
08/06/2014  01:12:00      -60.759      -12.055       -6.466       12.434       12.382        9.000      154.597      153.311       80.992        0.213        0.019       61.943        5.822        0.009      341.330       15.968      864.814
08/06/2014  01:13:00      -74.382      -26.439       -2.019       24.639       21.786       12.367      607.076      474.623      152.935        0.373        0.062       78.941        9.612        0.015      341.308       15.930      864.805
08/06/2014  01:14:00      -87.295      -18.704       -6.790       18.547       14.403       13.579      343.982      207.458      184.380        0.438        0.037       89.276       11.576        0.017      341.270       15.866      864.804
08/06/2014  01:15:00      -98.015      -11.709      -10.148       26.691       17.229       11.162      712.424      296.827      124.581        0.549        0.057       98.712       10.376        0.011      341.294       15.906      864.799
08/06/2014  01:16:00      -67.514        7.350       -5.071       31.488       23.418       16.317      991.518      548.411      266.234        0.322        0.090       67.913       15.156        0.050      341.251       15.833      864.801
08/06/2014  01:17:00      -97.652        2.706       -7.391       18.329       19.619       12.920      335.965      384.915      166.939        0.524        0.044       97.690        9.027        0.009      341.394       16.077      864.814
08/06/2014  01:18:00      -91.559        6.758       -2.696       22.512       18.059       15.925      506.802      326.126      253.616        0.476        0.054       91.808       10.621        0.013      341.371       16.037      864.827
08/06/2014  01:19:00      -92.773       26.388       -7.730       29.538       24.576       13.547      872.479      603.960      183.534        0.551        0.083       96.453        4.281        0.002      341.530       16.307      864.839
08/06/2014  01:20:00     -123.395       41.760       -5.657       18.523       18.109       13.355      343.109      327.947      178.367        0.893        0.042      130.270        9.547        0.005      341.484       16.227      864.843
08/06/2014  01:21:00      -89.536       30.425       -4.926       28.068       17.131       11.676      787.824      293.457      136.331        0.509        0.061       94.564        3.650        0.001      341.510       16.272      864.847
08/06/2014  01:22:00      -64.224       -8.763       -6.956       21.736       22.593       12.806      472.446      510.425      163.993        0.270        0.057       64.819       11.307        0.030      341.494       16.244      864.852
08/06/2014  01:23:00      -64.363       -0.510       -6.413       25.707       18.263       15.905      660.838      333.549      252.984        0.272        0.062       64.365        9.474        0.022      341.500       16.255      864.855
08/06/2014  01:24:00      -57.177        0.778       -7.034       15.692       16.006       16.091      246.227      256.180      258.912        0.204        0.038       57.182       13.161        0.053      341.473       16.208      864.855
08/06/2014  01:25:00      -60.758       19.973      -10.622       26.261       29.586       15.091      689.637      875.355      227.729        0.300        0.090       63.956       15.443        0.058      341.493       16.243      864.859
08/06/2014  01:26:00      -89.376       32.950      -22.208       18.689       31.079       11.586      349.269      965.901      134.230        0.551        0.072       95.257        7.445        0.006      341.579       16.386      864.866
08/06/2014  01:27:00      -50.962      -11.252       -5.175       36.815       24.168       19.281     1355.313      584.115      371.773        0.253        0.116       52.189       21.610        0.171      341.513       16.276      864.871
08/06/2014  01:28:00      -78.550       24.052      -16.105       21.874       32.328       17.745      478.451     1045.103      314.902        0.442        0.092       82.150       10.201        0.015      341.552       16.343      864.877
08/06/2014  01:29:00      -62.982       22.409       -2.451       20.549       21.572       13.628      422.245      465.339      185.718        0.277        0.054       66.850        6.524        0.010      341.557       16.350      864.887
08/06/2014  01:30:00     -107.797       38.054      -12.048       26.079       21.790       16.411      680.128      474.806      269.327        0.732        0.071      114.317       10.329        0.008      341.573       16.378      864.896
08/06/2014  01:31:00     -112.238       47.712      -16.686       23.009       32.753       17.852      529.434     1072.765      318.709        0.854        0.096      121.958       18.526        0.023      341.672       16.546      864.884
08/06/2014  01:32:00     -117.172       66.724      -23.740       22.311       35.775       16.878      497.782     1279.884      284.866        1.040        0.103      134.838       17.030        0.016      341.728       16.642      864.879
08/06/2014  01:33:00      -97.068       33.871      -14.563       25.638       30.157       19.908      657.308      909.438      396.329        0.637        0.098      102.808       14.806        0.021      341.668       16.539      864.866
08/06/2014  01:34:00      -99.655       66.580      -15.752       34.622       31.015       23.239     1198.705      961.927      540.053        0.866        0.135      119.850       21.959        0.034      341.727       16.640      864.853
08/06/2014  01:35:00      -77.235       33.998      -10.218       27.320       27.722       19.867      746.369      768.524      394.713        0.457        0.095       84.387       12.623        0.022      341.669       16.542      864.848
08/06/2014  01:36:00      -74.039       44.354      -10.028       35.507       31.561       22.714     1260.766      996.077      515.929        0.516        0.139       86.308       20.526        0.057      341.739       16.660      864.846
08/06/2014  01:37:00      -77.415       74.546       -7.750       30.402       46.255       23.019      924.291     2139.504      529.880        0.760        0.180      107.472       17.775        0.027      341.772       16.717      864.846
08/06/2014  01:38:00      -79.663       85.318      -15.755       28.200       30.677       23.597      795.220      941.097      556.838        0.808        0.115      116.728       21.037        0.032      341.781       16.732      864.850
08/06/2014  01:39:00      -87.803       88.187      -22.642       17.947       26.787       14.199      322.112      717.540      201.605        0.862        0.062      124.444       13.760        0.012      341.791       16.750      864.862
08/06/2014  01:40:00      -62.848       28.187       -8.227       24.373       29.331       13.878      594.046      860.318      192.602        0.323        0.082       68.879       12.791        0.034      341.656       16.523      864.871
08/06/2014  01:41:00      -74.183       58.995      -11.283       22.096       32.688       18.569      488.238     1068.506      344.790        0.551        0.095       94.782       18.039        0.036      341.747       16.674      864.886
08/06/2014  01:42:00      -78.085       39.021       -9.790       31.103       34.090       18.833      967.384     1162.156      354.666        0.510        0.124       87.292       17.743        0.041      341.734       16.653      864.890
08/06/2014  01:43:00      -60.749       32.934       -1.365       25.397       18.239       18.770      645.028      332.663      352.321        0.305        0.067       69.102       14.062        0.041      341.803       16.768      864.895
08/06/2014  01:44:00      -69.012       27.550      -11.980       18.545       33.534       14.450      343.916     1124.509      208.798        0.367        0.084       74.308       15.234        0.042      341.806       16.775      864.893
08/06/2014  01:45:00      -58.741      -12.008       -6.537       18.494       18.402       12.116      342.029      338.623      146.791        0.223        0.041       59.956       10.968        0.033      341.693       16.584      864.901
08/06/2014  01:46:00      -60.546      -27.740       -5.017       22.978       28.180       11.849      527.988      794.109      140.389        0.296        0.073       66.598       10.623        0.025      341.596       16.419      864.894
08/06/2014  01:47:00      -70.933       -6.899       -4.715       28.093       13.638       13.600      789.199      186.001      184.968        0.313        0.058       71.268       14.921        0.044      341.542       16.323      864.897
08/06/2014  01:48:00     -103.385        1.927       -7.897       22.371       21.138       15.446      500.466      446.825      238.582        0.597        0.059      103.403       14.384        0.019      341.599       16.424      864.895
08/06/2014  01:49:00     -111.530       21.865      -10.890       18.615       20.374       13.981      346.521      415.101      195.472        0.700        0.048      113.653        7.431        0.004      341.637       16.487      864.887
08/06/2014  01:50:00     -122.855       16.051      -13.348       20.155       19.396       13.327      406.236      376.195      177.602        0.824        0.048      123.899       10.531        0.007      341.670       16.544      864.888
08/06/2014  01:51:00      -91.941       16.556       -9.227       22.697       17.239       17.400      515.140      297.178      302.765        0.496        0.056       93.419       13.376        0.021      341.593       16.413      864.883
08/06/2014  01:52:00      -97.388       24.062      -11.360       28.185       20.051       11.977      794.394      402.045      143.452        0.577        0.067      100.316        7.643        0.006      341.645       16.501      864.871
08/06/2014  01:53:00      -48.199        7.663       -4.520       21.864       18.945       13.938      478.032      358.900      194.269        0.172        0.052       48.805       12.500        0.066      341.602       16.429      864.869
08/06/2014  01:54:00      -44.571       -3.424       -4.593       20.451       22.795       14.800      418.251      519.607      219.048        0.159        0.058       44.702       11.099        0.062      341.601       16.428      864.864
08/06/2014  01:55:00      -61.263      -21.651       -4.512       27.744       29.406       16.086      769.747      864.733      258.768        0.307        0.095       64.976       13.336        0.042      341.579       16.389      864.861
08/06/2014  01:56:00      -81.888       20.587       -8.867       22.701       26.431       15.328      515.316      698.600      234.950        0.433        0.072       84.436       12.954        0.024      341.636       16.485      864.866
08/06/2014  01:57:00      -62.437      -18.176       -6.342       16.334       15.792       10.231      266.792      249.387      104.681        0.244        0.031       65.029        9.361        0.021      341.626       16.471      864.867
08/06/2014  01:58:00      -56.476        2.088       -7.370       26.167       17.916       13.809      684.699      320.991      190.678        0.222        0.060       56.515       14.937        0.070      341.644       16.502      864.866
08/06/2014  01:59:00      -94.150       -8.731      -14.077       15.811       17.754       13.182      249.992      315.205      173.766        0.494        0.037       94.554        8.353        0.008      341.601       16.427      864.865
08/06/2014  02:00:00      -85.577        3.782      -11.913       21.557       15.603       16.464      464.716      243.469      271.049        0.423        0.049       85.661        8.256        0.009      341.557       16.352      864.855
08/06/2014  02:01:00      -62.037       16.443       -6.747       21.631       28.030       10.995      467.913      785.706      120.885        0.277        0.069       64.179       11.665        0.033      341.657       16.521      864.843
08/06/2014  02:02:00      -66.203       30.172      -11.017       26.623       42.081       17.027      708.792     1770.849      289.920        0.409        0.138       72.754       23.395        0.103      341.670       16.544      864.830
08/06/2014  02:03:00      -78.948       29.462       -7.956       18.397       26.980       14.819      338.459      727.936      219.614        0.422        0.064       84.266       12.255        0.021      341.721       16.631      864.823
08/06/2014  02:04:00      -77.290       27.793       -6.630       22.265       27.340       18.443      495.714      747.476      340.141        0.419        0.079       82.136       15.978        0.038      341.765       16.706      864.817
08/06/2014  02:05:00      -39.435       -1.135        0.505       26.119       17.750       15.482      682.214      315.060      239.694        0.140        0.062       39.451       17.357        0.194      341.741       16.666      864.808
08/06/2014  02:06:00      -72.951       37.736      -14.859       25.199       24.006       18.096      634.983      576.293      327.462        0.425        0.077       82.133       15.562        0.036      341.878       16.896      864.804
08/06/2014  02:07:00      -32.095       21.229       -2.395       18.010       16.923       15.324      324.374      286.389      234.811        0.117        0.042       38.480        8.081        0.044      341.855       16.857      864.793
08/06/2014  02:08:00      -66.000      -10.479       -8.476       34.396       36.758       18.701     1183.068     1351.144      349.715        0.371        0.144       66.827       11.180        0.028      341.868       16.880      864.792
08/06/2014  02:09:00      -15.735       -1.153        6.627       11.817       16.570       10.654      139.642      274.552      113.498        0.041        0.026       15.777        9.071        0.331      341.719       16.626      864.787
08/06/2014  02:10:00      -41.508       -5.963       -7.911       11.391       14.282       11.658      129.750      203.988      135.905        0.115        0.023       41.934        7.083        0.029      341.730       16.646      864.787
08/06/2014  02:11:00      -58.598       48.037      -15.746       21.324       33.905       18.080      454.700     1149.567      326.885        0.396        0.097       75.771       16.168        0.046      342.134       17.332      864.795
08/06/2014  02:12:00      -21.759       23.097        1.293       21.355       32.188       14.650      456.032     1036.078      214.622        0.136        0.085       31.732        8.106        0.065      341.904       16.940      864.803
08/06/2014  02:13:00      -56.990      -17.924      -20.317       24.552       28.435       20.804      602.813      808.570      432.825        0.291        0.092       59.742       18.950        0.101      341.948       17.015      864.812
08/06/2014  02:14:00      -52.603        0.693       -7.048       28.349       19.113       17.156      803.687      365.317      294.334        0.214        0.073       52.608       17.945        0.116      341.954       17.026      864.818
08/06/2014  02:15:00      -33.111        4.489        0.409       19.571       20.986       10.179      383.039      440.412      103.608        0.102        0.046       33.414        8.512        0.065      342.051       17.189      864.824
08/06/2014  02:16:00      -36.679       27.700       -6.122       24.245       18.353       13.247      587.816      336.850      175.485        0.162        0.055       45.964       12.960        0.080      342.020       17.136      864.830
08/06/2014  02:17:00      -97.296       91.262      -26.290       23.702       33.919       15.601      561.773     1150.494      243.380        1.022        0.098      133.399        9.357        0.005      342.174       17.400      864.829
08/06/2014  02:18:00      -59.346       58.533        1.762       29.991       37.232       26.355      899.477     1386.213      694.573        0.497        0.149       83.355       19.606        0.055      342.089       17.255      864.827
08/06/2014  02:19:00      -14.214       39.652       -5.135       25.001       28.340       18.814      625.059      803.148      353.979        0.179        0.089       42.123       16.996        0.163      342.079       17.237      864.824
08/06/2014  02:20:00      -50.647       56.477      -12.472       27.515       25.599       17.873      757.101      655.314      319.455        0.382        0.087       75.860       16.442        0.047      342.110       17.291      864.814
08/06/2014  02:21:00      -14.594       50.180       -7.001       31.791       23.715       17.843     1010.699      562.388      318.387        0.234        0.095       52.259       17.948        0.118      342.098       17.270      864.806
08/06/2014  02:22:00      -34.852       33.336       -1.291       24.766       23.877       17.790      613.371      570.099      316.468        0.191        0.075       48.228       16.574        0.118      342.093       17.260      864.803
08/06/2014  02:23:00       -2.728       67.056       -6.399       26.876       40.369       16.030      722.310     1629.636      256.948        0.358        0.130       67.112       17.369        0.067      342.061       17.207      864.804
08/06/2014  02:24:00      -10.099      122.308      -16.055       22.064       22.155       16.369      486.838      490.865      267.948        0.828        0.062      122.724        8.184        0.004      342.081       17.242      864.809
08/06/2014  02:25:00        5.634       50.260      -12.108       32.929       19.763       18.873     1084.350      390.557      356.186        0.227        0.092       50.575       10.434        0.043      342.082       17.245      864.824
08/06/2014  02:26:00       18.272       83.629       -3.824       28.716       32.501       22.939      824.585     1056.283      526.195        0.487        0.120       85.602       20.871        0.059      342.022       17.141      864.841
08/06/2014  02:27:00        1.227       58.112       -5.620       23.283       23.560       18.669      542.107      555.080      348.516        0.243        0.072       58.125        8.274        0.020      341.965       17.043      864.868
08/06/2014  02:28:00       36.778       41.590        2.057       23.552       18.338       11.414      554.679      336.288      130.275        0.205        0.051       55.519        4.263        0.006      341.894       16.922      864.886
08/06/2014  02:29:00       57.544       24.842       -0.646       13.637       14.888       12.941      185.974      221.649      167.479        0.225        0.029       62.678        5.861        0.009      341.865       16.873      864.912
08/06/2014  02:30:00       59.341       30.033        8.968       17.054       15.800       16.895      290.837      249.633      285.444        0.266        0.041       66.508        7.090        0.011      341.803       16.767      864.927
08/06/2014  02:31:00       34.722       21.282        0.432       13.492       16.216       14.609      182.047      262.946      213.422        0.116        0.033       40.726        8.629        0.045      341.825       16.807      864.936
08/06/2014  02:32:00       30.290       29.296        6.996       18.769       16.079       10.461      352.289      258.534      109.428        0.127        0.036       42.140        8.495        0.041      341.793       16.752      864.927
08/06/2014  02:33:00       44.539       28.750        3.456       17.574        9.554       11.575      308.850       91.285      133.972        0.168        0.027       53.012        6.692        0.016      341.784       16.736      864.922
08/06/2014  02:34:00       12.081       47.285       -5.476       19.755       17.674        9.429      390.279      312.358       88.907        0.160        0.040       48.803        7.102        0.021      341.868       16.879      864.915
08/06/2014  02:35:00       -5.479       36.384        0.695       15.327       20.615       16.062      234.927      424.987      258.003        0.114        0.046       36.795       13.829        0.141      341.880       16.898      864.902
08/06/2014  02:36:00        7.958       -3.366       -4.169        7.965       10.433        6.970       63.438      108.851       48.584        0.016        0.011        8.640        4.197        0.236      341.882       16.903      864.903
08/06/2014  02:37:00      -19.917      -10.613        1.128       10.865        6.509        7.212      118.045       42.367       52.019        0.036        0.011       22.568        6.461        0.082      341.898       16.931      864.905
08/06/2014  02:38:00      -16.541       -7.791       -4.910        8.325        7.799        5.603       69.312       60.832       31.396        0.026        0.008       18.284        5.274        0.083      341.905       16.943      864.911
08/06/2014  02:39:00      -22.887       -3.903       -1.391        8.481        4.701        3.850       71.933       22.095       14.821        0.032        0.005       23.217        1.704        0.005      341.896       16.929      864.920
08/06/2014  02:40:00       -2.466       -3.734       -0.281        5.095        7.715        4.442       25.962       59.526       19.734        0.006        0.005        4.475        4.453        0.990      341.929       16.982      864.926
08/06/2014  02:41:00      -12.030      -22.807       19.443       14.303       19.533       16.198      204.577      381.529      262.387        0.095        0.042       25.786       11.585        0.202      341.956       17.029      864.940
08/06/2014  02:42:00       13.403       19.217        9.028       14.581       12.016        9.214      212.597      144.377       84.899        0.054        0.022       23.429        6.420        0.075      341.946       17.010      864.953
08/06/2014  02:43:00        0.310        2.056        1.533        6.253        4.947        7.841       39.096       24.469       61.478        0.007        0.006        2.080        3.437        2.731      341.983       17.073      864.964
08/06/2014  02:44:00       -5.668        2.917        7.058        4.395        4.886        5.755       19.318       23.876       33.124        0.008        0.004        6.374        2.815        0.195      341.955       17.026      864.969
08/06/2014  02:45:00       -8.719      -18.448       11.642       17.346       27.790        8.896      300.899      772.269       79.138        0.085        0.058       20.405        6.713        0.108      341.914       16.958      864.980
08/06/2014  02:46:00       25.915      -46.663      -13.560       26.763       21.235       17.017      716.281      450.938      289.578        0.224        0.073       53.377       12.649        0.056      341.894       16.924      864.982
08/06/2014  02:47:00       23.028      -44.397      -11.615       21.202       21.834       20.043      449.514      476.740      401.709        0.198        0.066       50.013       14.229        0.081      341.849       16.847      864.987
08/06/2014  02:48:00       27.218      -42.320       -1.954       19.833       29.099       17.810      393.351      846.776      317.199        0.205        0.078       50.317       15.752        0.098      341.855       16.857      864.993
08/06/2014  02:49:00       24.179      -57.506      -10.589       26.590       22.708       14.326      707.018      515.673      205.228        0.272        0.071       62.382       14.636        0.055      341.829       16.814      864.996
08/06/2014  02:50:00        9.784      -36.636       -3.904       19.981       12.587       12.422      399.233      158.423      154.308        0.108        0.036       37.920        9.800        0.067      341.872       16.885      864.996
08/06/2014  02:51:00       13.771      -20.784       -5.153       17.693       15.157       11.264      313.040      229.720      126.880        0.066        0.033       24.932        9.168        0.135      341.895       16.925      865.002
08/06/2014  02:52:00       -9.042       -1.601        5.169        9.307        9.430        5.676       86.628       88.930       32.213        0.016        0.010        9.183        3.614        0.155      341.895       16.926      865.003
08/06/2014  02:53:00      -14.827       12.874       -5.779       11.866        7.507        6.389      140.809       56.348       40.815        0.033        0.012       19.636        4.673        0.057      341.866       16.874      865.005
08/06/2014  02:54:00       -5.140       11.817       10.636        8.602        9.858        8.759       73.992       97.177       76.725        0.026        0.012       12.887        6.720        0.272      341.891       16.917      865.008
08/06/2014  02:55:00        2.836       11.794       16.641       15.372        8.643        7.135      236.297       74.695       50.903        0.039        0.018       12.130        4.312        0.126      341.855       16.857      865.005
08/06/2014  02:56:00       14.204       10.989        6.056       11.339        6.688        6.417      128.582       44.727       41.184        0.029        0.011       17.958        3.896        0.047      341.863       16.871      864.996
08/06/2014  02:57:00      -10.980        9.726       -4.055       12.852        6.665        3.335      165.185       44.418       11.120        0.023        0.011       14.668        3.031        0.043      341.862       16.870      864.984
08/06/2014  02:58:00      -40.295        7.094       -4.325       15.405       13.730        8.360      237.314      188.508       69.882        0.109        0.025       40.915        5.350        0.017      341.763       16.700      864.992
08/06/2014  02:59:00      -48.133      -27.160       -0.938       15.612       16.809       10.791      243.732      282.544      116.446        0.185        0.032       55.267        6.461        0.014      341.713       16.618      864.994
08/06/2014  03:00:00      -49.479      -15.761       -4.354       14.243       12.408        8.442      202.864      153.969       71.266        0.157        0.021       51.928        7.315        0.020      341.690       16.579      864.993
08/06/2014  03:01:00      -42.065       -5.010       -4.854       13.626        8.013        6.307      185.675       64.204       39.781        0.105        0.014       42.362        4.716        0.012      341.674       16.550      864.985
08/06/2014  03:02:00      -44.671      -15.965       -8.622        7.791        5.890        6.630       60.702       34.687       43.963        0.123        0.007       47.438        4.074        0.007      341.724       16.637      864.978
08/06/2014  03:03:00      -57.978      -12.850       -6.158        8.488        6.732        5.879       72.045       45.326       34.560        0.186        0.008       59.385        2.964        0.002      341.716       16.624      864.961
08/06/2014  03:04:00      -50.591       -8.551       -2.053        7.531        6.607        7.140       56.717       43.648       50.980        0.139        0.008       51.308        3.368        0.004      341.704       16.602      864.961
08/06/2014  03:05:00      -36.535      -12.717       -9.298        7.113        5.527        6.263       50.592       30.545       39.224        0.085        0.006       38.685        3.703        0.009      341.717       16.624      864.957
08/06/2014  03:06:00      -29.649      -16.345       -3.178        7.753        8.803        6.618       60.116       77.493       43.802        0.067        0.009       33.856        3.936        0.014      341.751       16.679      864.960
08/06/2014  03:07:00      -28.816      -17.101       -1.537        8.839       11.195        6.566       78.126      125.332       43.111        0.069        0.012       33.508        4.555        0.018      341.739       16.662      864.964
08/06/2014  03:08:00      -55.062      -20.614       -3.762       11.068        8.774        5.544      122.492       76.989       30.736        0.185        0.012       58.794        4.072        0.005      341.671       16.544      864.974
08/06/2014  03:09:00      -68.938      -29.773       -3.492        8.244        6.304        6.084       67.972       39.745       37.014        0.290        0.007       75.092        3.435        0.002      341.661       16.530      864.982
08/06/2014  03:10:00      -70.024      -33.151       -1.324       14.107       10.896       10.483      198.997      118.730      109.885        0.322        0.021       77.475        7.487        0.009      341.656       16.522      864.991
08/06/2014  03:11:00      -62.797      -44.743       -0.928       25.657       15.404       11.737      658.282      237.287      137.754        0.349        0.052       77.106        6.652        0.007      341.670       16.543      865.001
08/06/2014  03:12:00      -51.778      -27.760        1.652       32.318       16.052       11.351     1044.449      257.669      128.835        0.244        0.072       58.750        5.538        0.009      341.632       16.480      865.006
08/06/2014  03:13:00      -70.179      -16.403       -5.747       19.426       21.523       11.351      377.361      463.244      128.853        0.310        0.048       72.071       11.524        0.026      341.588       16.406      865.009
08/06/2014  03:14:00      -90.436      -42.432       -8.094       15.348       22.817       13.537      235.547      520.601      183.262        0.549        0.047       99.896       10.652        0.011      341.632       16.479      865.014
08/06/2014  03:15:00      -90.578      -44.340       -7.910       20.479       26.078       10.728      419.393      680.072      115.085        0.572        0.061      100.849        9.783        0.009      341.581       16.393      865.022
08/06/2014  03:16:00      -51.812      -21.917       -2.079       28.576       15.160       12.507      816.597      229.815      156.413        0.219        0.060       56.257       14.889        0.070      341.595       16.416      865.036
08/06/2014  03:17:00      -83.830      -46.624      -10.890       10.765       17.916        9.753      115.888      320.967       95.130        0.493        0.027       95.923        5.594        0.003      341.670       16.544      865.047
08/06/2014  03:18:00      -54.062      -40.511       -0.984       15.182       23.506        8.750      230.497      552.533       76.556        0.271        0.043       67.556        8.344        0.015      341.652       16.513      865.057
08/06/2014  03:19:00      -53.844      -12.910       -4.954        8.570        8.177        6.519       73.451       66.867       42.494        0.164        0.009       55.370        3.214        0.003      341.622       16.464      865.076
08/06/2014  03:20:00      -58.467      -13.088       -9.692       15.162       12.879        8.649      229.895      165.876       74.801        0.208        0.024       59.914        3.240        0.003      341.622       16.461      865.095
08/06/2014  03:21:00      -57.225       -4.681       -5.528       12.301       13.715       10.015      151.310      188.089      100.310        0.188        0.022       57.416        8.040        0.020      341.605       16.433      865.110
08/06/2014  03:22:00      -42.777      -13.401       -3.981       12.901       11.735        7.646      166.448      137.718       58.459        0.119        0.018       44.827        5.664        0.016      341.609       16.439      865.115
08/06/2014  03:23:00      -40.457      -11.072       -6.713       11.225        9.002        6.791      126.008       81.036       46.119        0.103        0.013       41.945        5.828        0.019      341.638       16.487      865.119
08/06/2014  03:24:00      -47.403      -17.050       -6.572       10.096       13.525        7.777      101.926      182.916       60.483        0.146        0.017       50.376        8.508        0.029      341.708       16.608      865.125
08/06/2014  03:25:00      -35.043      -13.338       -3.147       13.587       11.656        7.716      184.607      135.854       59.533        0.090        0.019       37.496        5.323        0.020      341.652       16.514      865.133
08/06/2014  03:26:00      -42.046      -14.750       -3.604        7.671        9.477        5.296       58.850       89.813       28.044        0.109        0.009       44.558        4.870        0.012      341.714       16.619      865.132
08/06/2014  03:27:00      -42.588      -29.968       -5.365        9.369       11.086        6.849       87.777      122.910       46.902        0.150        0.013       52.076        3.799        0.005      341.709       16.611      865.135
08/06/2014  03:28:00      -41.706      -15.718       -0.342        9.524        9.907        6.892       90.698       98.140       47.498        0.111        0.012       44.569        6.417        0.021      341.722       16.631      865.143
08/06/2014  03:29:00      -17.391      -13.910        8.231       13.559        7.752        7.588      183.838       60.095       57.574        0.043        0.015       22.270        6.916        0.096      341.786       16.741      865.142
08/06/2014  03:30:00        7.396      -11.548        4.165        7.286        6.732        5.459       53.092       45.320       29.801        0.017        0.006       13.713        4.367        0.101      341.789       16.742      865.147
08/06/2014  03:31:00       -6.718      -16.901       -3.118        8.003        8.509        6.362       64.054       72.400       40.477        0.026        0.009       18.187        3.282        0.033      341.800       16.760      865.151
08/06/2014  03:32:00      -35.162      -25.307        0.269       23.902       11.518       10.450      571.316      132.668      109.193        0.134        0.041       43.322        6.858        0.025      341.714       16.619      865.150
08/06/2014  03:33:00      -17.360      -22.789        9.475       22.738       14.575       11.131      516.999      212.444      123.891        0.088        0.043       28.648        7.691        0.072      341.741       16.664      865.153
08/06/2014  03:34:00      -44.289       -9.317       -0.963       34.945       13.695       13.080     1221.159      187.561      171.091        0.181        0.079       45.259       16.070        0.126      341.724       16.635      865.152
08/06/2014  03:35:00      -27.578      -19.871       -1.778       24.023       17.063       11.758      577.089      291.133      138.258        0.108        0.050       33.991       10.348        0.093      341.770       16.713      865.147
08/06/2014  03:36:00      -21.603      -13.310        2.853       20.445       15.672       10.761      417.986      245.627      115.807        0.072        0.039       25.374       11.042        0.189      341.785       16.738      865.148
08/06/2014  03:37:00      -65.630      -32.643       -1.274       16.453       18.451        6.640      270.700      340.458       44.095        0.301        0.033       73.300        7.327        0.010      341.788       16.741      865.150
08/06/2014  03:38:00      -59.066      -50.451        3.062       25.626       21.805       17.183      656.705      475.455      295.241        0.374        0.071       77.679       14.832        0.036      341.792       16.750      865.159
08/06/2014  03:39:00      -57.929      -60.224        0.411       23.055       21.317       13.416      531.555      454.402      179.996        0.407        0.058       83.563        6.515        0.006      341.783       16.736      865.164
08/06/2014  03:40:00      -19.420      -32.425        9.362       22.024       21.229       15.603      485.071      450.669      243.447        0.135        0.059       37.795       11.455        0.092      341.777       16.724      865.169
08/06/2014  03:41:00      -64.840      -59.998        2.067       36.809       20.233       15.719     1354.905      409.364      247.074        0.491        0.101       88.340       14.515        0.027      341.762       16.699      865.172
08/06/2014  03:42:00      -82.095      -50.429       -4.123       27.272       20.343       19.075      743.780      413.847      363.841        0.541        0.076       96.346       17.164        0.032      341.772       16.715      865.177
08/06/2014  03:43:00      -84.048      -38.469       -5.902       18.912       25.147       11.112      357.674      632.356      123.477        0.485        0.056       92.433        8.901        0.009      341.761       16.699      865.175
08/06/2014  03:44:00      -86.910      -51.085       -3.121       35.678       24.134       16.114     1272.912      582.443      259.648        0.614        0.106      100.811       17.126        0.029      341.782       16.734      865.160
08/06/2014  03:45:00       -7.772      -24.868       20.148       24.695       27.884       16.764      609.857      777.517      281.033        0.138        0.083       26.055       13.682        0.276      341.826       16.808      865.148
08/06/2014  03:46:00      -55.042      -69.770        5.499       27.390       24.961       17.629      750.186      623.030      310.776        0.481        0.084       88.868       15.647        0.031      341.858       16.864      865.134
08/06/2014  03:47:00      -50.170      -80.265        0.824       32.767       33.282       17.157     1073.648     1107.725      294.380        0.572        0.124       94.654       13.363        0.020      341.896       16.926      865.120
08/06/2014  03:48:00      -75.698      -71.861        0.934       33.647       41.251       19.196     1132.112     1701.672      368.476        0.705        0.160      104.375       14.806        0.020      341.887       16.912      865.109
08/06/2014  03:49:00      -65.473      -72.347       -3.254       38.623       32.040       14.859     1491.699     1026.533      220.782        0.613        0.137       97.574       13.643        0.020      341.895       16.925      865.106
08/06/2014  03:50:00      -67.734      -77.828       -1.407       27.791       25.152       14.699      772.354      632.632      216.068        0.613        0.081      103.175       10.258        0.010      341.932       16.986      865.108
08/06/2014  03:51:00      -70.421     -106.496       -8.530       30.921       36.717       14.027      956.087     1348.125      196.768        0.944        0.125      127.674        9.436        0.005      341.945       17.009      865.106
08/06/2014  03:52:00      -44.776      -74.663        5.397       32.717       33.449       17.647     1070.412     1118.862      311.401        0.505        0.125       87.060       11.712        0.018      341.964       17.043      865.107
08/06/2014  03:53:00      -57.339      -73.037        9.543       42.247       29.952       25.480     1784.789      897.117      649.209        0.602        0.167       92.855       23.538        0.064      341.929       16.983      865.114
08/06/2014  03:54:00      -85.436      -76.796        1.117       24.472       35.391       21.045      598.872     1252.496      442.873        0.775        0.115      114.878        8.308        0.005      341.881       16.901      865.114
08/06/2014  03:55:00      -61.944      -77.456        3.891       35.162       45.955       25.688     1236.354     2111.880      659.867        0.693        0.200       99.179       23.792        0.058      341.836       16.825      865.112
08/06/2014  03:56:00      -80.472     -106.733       -8.497       47.595       40.882       22.301     2265.288     1671.319      497.353        1.119        0.222      133.670       27.496        0.042      341.799       16.761      865.105
08/06/2014  03:57:00      -75.355      -87.078       -3.989       35.490       31.194       24.275     1259.511      973.048      589.278        0.805        0.141      115.156       18.590        0.026      341.777       16.725      865.089
08/06/2014  03:58:00     -104.019     -105.096       -8.012       49.373       32.135       28.676     2437.654     1032.646      822.288        1.311        0.215      147.869       15.884        0.012      341.736       16.657      865.076
08/06/2014  03:59:00      -95.400     -113.921      -10.253       53.336       50.335       25.633     2844.764     2533.629      657.056        1.411        0.302      148.591       29.278        0.039      341.683       16.568      865.070
08/06/2014  04:00:00     -107.751     -110.404      -16.730       31.180       43.126       23.606      972.180     1859.817      557.263        1.373        0.169      154.270       13.825        0.008      341.646       16.500      865.062
08/06/2014  04:01:00      -99.854      -79.193       -4.498       43.193       32.367       18.588     1865.648     1047.596      345.522        0.976        0.163      127.445       13.923        0.012      341.645       16.502      865.057
08/06/2014  04:02:00      -68.690      -67.185       -9.160       30.266       31.611       24.952      916.020      999.277      622.601        0.593        0.127       96.084       18.738        0.038      341.650       16.510      865.064
08/06/2014  04:03:00      -60.760      -57.424       -0.044       42.181       29.896       23.953     1779.205      893.768      573.738        0.512        0.162       83.602       23.377        0.078      341.676       16.555      865.053
08/06/2014  04:04:00      -96.638      -99.251       -6.281       39.525       29.398       19.512     1562.191      864.224      380.705        1.102        0.140      138.527       21.737        0.025      341.657       16.522      865.047
08/06/2014  04:05:00      -56.536      -74.491        8.713       43.852       32.202       19.020     1923.036     1036.953      361.771        0.607        0.166       93.516       19.273        0.042      341.659       16.522      865.044
08/06/2014  04:06:00      -35.264      -63.400        0.898       22.433       44.985       16.356      503.227     2023.655      267.507        0.403        0.140       72.547       15.370        0.045      341.669       16.541      865.048
08/06/2014  04:07:00      -53.427      -86.552        1.888       20.569       43.870       17.428      423.072     1924.551      303.746        0.650        0.133      101.714       17.611        0.030      341.623       16.464      865.052
08/06/2014  04:08:00      -32.276      -29.087        6.163       32.776       16.197       13.564     1074.248      262.351      183.970        0.172        0.076       43.449       14.134        0.106      341.630       16.478      865.048
08/06/2014  04:09:00      -54.733      -41.178       -2.212       21.721       21.644       11.925      471.787      468.459      142.213        0.289        0.054       68.493        5.790        0.007      341.589       16.408      865.040
08/06/2014  04:10:00      -18.519      -24.879        7.693       23.157       22.143       13.598      536.248      490.301      184.899        0.112        0.061       31.015       14.288        0.212      341.621       16.460      865.034
08/06/2014  04:11:00      -20.984      -13.190        2.397       17.949       19.109       10.841      322.151      365.146      117.518        0.071        0.040       24.786        9.385        0.143      341.634       16.482      865.020
08/06/2014  04:12:00      -30.380      -46.084       -4.070       24.166       17.558       13.928      584.011      308.266      193.998        0.207        0.054       55.197       11.909        0.047      341.628       16.473      865.010
08/06/2014  04:13:00      -35.697      -22.598       -0.692       32.227       23.862       12.461     1038.587      569.411      155.265        0.177        0.088       42.249       13.430        0.101      341.614       16.449      864.997
08/06/2014  04:14:00      -66.827      -16.404       -6.249       34.990       17.403       14.245     1224.305      302.858      202.924        0.325        0.087       68.811       14.842        0.047      341.544       16.328      864.990
08/06/2014  04:15:00      -28.793        4.104        0.479       19.661       13.963        9.421      386.568      194.953       88.748        0.076        0.034       29.084        8.126        0.078      341.552       16.342      864.981
08/06/2014  04:16:00      -60.251       -5.056       -1.325       24.575       12.845       11.000      603.939      164.982      120.992        0.227        0.044       60.463       12.146        0.040      341.536       16.314      864.981
08/06/2014  04:17:00      -56.137       -5.286       -5.579       27.926       13.453        9.090      779.837      180.972       82.633        0.213        0.052       56.385       10.282        0.033      341.493       16.243      864.986
08/06/2014  04:18:00      -53.103      -24.645       -1.388       20.929       18.330       13.707      438.038      335.984      187.891        0.220        0.048       58.544       13.395        0.052      341.480       16.221      864.992
08/06/2014  04:19:00      -40.329      -45.273       -4.971       25.114        7.854        6.633      630.692       61.692       43.991        0.222        0.037       60.631        3.296        0.003      341.565       16.368      864.986
08/06/2014  04:20:00      -27.513      -49.182       -3.254       15.628       11.324       11.029      244.219      128.226      121.630        0.184        0.025       56.355        9.200        0.027      341.591       16.411      864.988
08/06/2014  04:21:00      -51.955      -56.842      -11.302       12.028        8.274        7.090      144.662       68.457       50.269        0.316        0.013       77.009        3.420        0.002      341.567       16.366      864.988
08/06/2014  04:22:00      -60.373      -48.052       -1.277       17.571       11.682       11.743      308.748      136.469      137.891        0.327        0.029       77.161        9.664        0.016      341.575       16.382      864.988
08/06/2014  04:23:00      -68.802      -42.003       -5.184       20.985       18.823       15.362      440.361      354.318      235.990        0.378        0.052       80.610       11.872        0.022      341.554       16.347      864.986
08/06/2014  04:24:00      -16.695      -31.461       -0.777       21.754       22.864       10.732      473.248      522.751      115.184        0.119        0.056       35.616        7.374        0.043      341.588       16.404      864.982
08/06/2014  04:25:00      -40.959      -27.486       -3.654       30.388       19.074       12.827      923.443      363.821      164.535        0.195        0.073       49.326        8.987        0.033      341.595       16.416      864.974
08/06/2014  04:26:00      -19.010      -30.205       -1.672       24.813       19.150       12.940      615.707      366.721      167.451        0.121        0.057       35.689       10.545        0.087      341.646       16.502      864.962
08/06/2014  04:27:00      -41.847      -49.501       -0.492       41.181       23.055       18.327     1695.910      531.553      335.892        0.338        0.128       64.819       21.988        0.115      341.625       16.468      864.943
08/06/2014  04:28:00      -43.306      -55.830        0.173       28.557       17.066       18.239      815.515      291.264      332.660        0.322        0.072       70.657       11.483        0.026      341.601       16.425      864.929
08/06/2014  04:29:00      -46.385      -75.462       -4.224       24.953       16.883       11.073      622.640      285.025      122.615        0.445        0.052       88.578       11.465        0.017      341.634       16.481      864.924
08/06/2014  04:30:00      -58.932      -54.672       -0.641       27.546       16.092       11.331      758.774      258.946      128.398        0.380        0.057       80.387       12.192        0.023      341.630       16.474      864.916
08/06/2014  04:31:00      -35.347      -53.847        3.443       28.254       32.823       14.221      798.304     1077.339      202.234        0.312        0.104       64.412       11.574        0.032      341.662       16.531      864.918
08/06/2014  04:32:00      -10.357      -37.683        5.778       31.133       23.999       17.213      969.284      575.974      296.275        0.170        0.092       39.080       13.647        0.122      341.690       16.579      864.922
08/06/2014  04:33:00        2.107      -20.751        2.760       14.855       18.779       10.431      220.666      352.635      108.805        0.056        0.034       20.858       10.383        0.248      341.695       16.585      864.927
08/06/2014  04:34:00        2.033      -29.981        5.416       29.797       29.949       21.317      887.876      896.945      454.418        0.159        0.112       30.050       19.840        0.436      341.665       16.536      864.932
08/06/2014  04:35:00      -13.703      -19.211       -9.669       30.509       26.599       14.942      930.789      707.500      223.260        0.126        0.093       23.597       17.075        0.524      341.635       16.480      864.939
08/06/2014  04:36:00      -54.950      -46.618       -3.948       20.386       23.231       20.593      415.578      539.667      424.080        0.329        0.069       72.060       12.214        0.029      341.618       16.457      864.939
08/06/2014  04:37:00      -80.829      -35.235       -8.476       28.706       26.873       13.363      824.006      722.158      178.575        0.479        0.086       88.175        8.074        0.008      341.609       16.441      864.936
08/06/2014  04:38:00      -75.876      -39.322       -6.449       24.405       23.792       15.404      595.594      566.048      237.273        0.437        0.070       85.459       12.712        0.022      341.621       16.462      864.941
08/06/2014  04:39:00      -31.292      -22.596       -4.207       22.283       15.119       10.098      496.511      228.592      101.963        0.117        0.041       38.597        9.963        0.067      341.648       16.508      864.947
08/06/2014  04:40:00      -46.803      -11.170       -3.192       18.584       12.461       11.057      345.349      155.264      122.248        0.147        0.031       48.117        9.929        0.043      341.613       16.450      864.955
08/06/2014  04:41:00      -61.152      -12.879        0.727       36.227       23.427       15.466     1312.371      548.829      239.196        0.300        0.105       62.494       19.778        0.100      341.619       16.458      864.965
08/06/2014  04:42:00      -46.427       -3.237       -1.631       19.783        8.065        8.344      391.380       65.036       69.627        0.135        0.026       46.540        7.679        0.027      341.636       16.488      864.967
08/06/2014  04:43:00      -51.503      -17.115       -3.537       15.756       13.941        9.416      248.259      194.361       88.661        0.174        0.027       54.272        8.775        0.026      341.652       16.514      864.968
08/06/2014  04:44:00      -52.669       -3.123       -6.929       19.657       11.900        9.134      386.396      141.609       83.436        0.172        0.031       52.762        7.717        0.021      341.653       16.513      864.963
08/06/2014  04:45:00      -73.025       -1.284       -3.262       21.099       17.864       12.929      445.159      319.109      167.159        0.314        0.047       73.036       12.908        0.031      341.646       16.504      864.959
08/06/2014  04:46:00      -73.453       -1.027       -3.135       16.740       19.522       11.744      280.217      381.107      137.918        0.310        0.040       73.460        8.748        0.014      341.634       16.484      864.950
08/06/2014  04:47:00      -70.555      -21.486       -3.837       29.823       20.285       11.174      889.407      411.471      124.848        0.344        0.071       73.754       12.141        0.027      341.652       16.512      864.950
08/06/2014  04:48:00      -30.148      -32.123       -2.354       24.417       14.322       10.963      596.207      205.116      120.178        0.143        0.046       44.054        3.661        0.007      341.655       16.517      864.948
08/06/2014  04:49:00      -47.118      -26.446       -2.072       26.555       14.282       11.585      705.192      203.986      134.209        0.198        0.052       54.032       10.498        0.038      341.654       16.516      864.947
08/06/2014  04:50:00      -22.010      -30.515        7.642       17.674       18.259       10.761      312.367      333.394      115.791        0.112        0.038       37.625        8.664        0.053      341.716       16.622      864.950
08/06/2014  04:51:00      -14.325      -22.232        4.335       22.072       19.748       15.693      487.170      389.993      246.264        0.092        0.056       26.447       15.152        0.328      341.689       16.576      864.958
08/06/2014  04:52:00      -19.201      -28.323       -0.205       16.426       20.350       10.236      269.822      414.133      104.770        0.098        0.039       34.218        7.321        0.046      341.734       16.652      864.962
08/06/2014  04:53:00        8.881      -63.666       -4.900       17.062       13.458       11.137      291.097      181.116      124.022        0.238        0.030       64.283        8.998        0.020      341.733       16.650      864.963
08/06/2014  04:54:00       -9.860      -46.242      -13.156       15.553       14.333       10.920      241.881      205.445      119.242        0.149        0.028       47.282        6.908        0.021      341.788       16.744      864.969
08/06/2014  04:55:00      -39.768       -7.495        8.203       26.083       21.625       19.203      680.307      467.626      368.742        0.161        0.076       40.468       16.146        0.159      341.773       16.717      864.969
08/06/2014  04:56:00      -26.301      -11.317       -3.400       14.129        7.343        8.912      199.636       53.918       79.416        0.058        0.017       28.633        9.404        0.108      341.710       16.613      864.975
08/06/2014  04:57:00      -33.750       -6.310        0.679       16.573       12.157        9.598      274.654      147.786       92.130        0.085        0.026       34.335        9.128        0.071      341.716       16.624      864.977
08/06/2014  04:58:00      -45.896      -24.869       -4.541       22.467       19.851       13.397      504.749      394.059      179.474        0.191        0.054       52.200        7.092        0.018      341.732       16.653      864.985
08/06/2014  04:59:00      -26.393      -27.360        0.099       15.463       19.200       15.399      239.093      368.625      237.144        0.114        0.042       38.015       11.149        0.086      341.729       16.644      864.992
08/06/2014  05:00:00      -14.172       -3.842        3.528       20.085       15.566       12.758      403.394      242.299      162.756        0.052        0.040       14.684       13.985        0.907      341.698       16.589      864.998
08/06/2014  05:01:00       -8.323        9.741        2.312       14.874       12.869        8.828      221.235      165.602       77.926        0.032        0.023       12.813        5.070        0.157      341.670       16.546      865.000
08/06/2014  05:02:00      -14.398        2.713        4.099       21.585       19.370       13.440      465.909      375.198      180.638        0.063        0.051       14.652       11.802        0.649      341.776       16.723      865.001
08/06/2014  05:03:00      -13.853        7.811       16.404        7.993       15.765       11.737       63.894      248.537      137.766        0.049        0.023       15.903       11.624        0.534      341.765       16.706      865.003
08/06/2014  05:04:00       -6.660       -9.771        4.471       15.830       25.634       12.783      250.598      657.112      163.417        0.062        0.054       11.825        7.319        0.383      341.757       16.691      865.004
08/06/2014  05:05:00      -11.051      -17.519       19.873       22.387       22.426       14.751      501.176      502.946      217.600        0.102        0.061       20.713       10.639        0.264      341.822       16.803      864.999
08/06/2014  05:06:00       -8.630       12.483       19.626        8.491       22.180       13.280       72.100      491.972      176.364        0.068        0.037       15.176       11.897        0.615      341.850       16.848      864.995
08/06/2014  05:07:00      -15.966       -0.340       17.635       13.598       21.022        9.588      184.913      441.917       91.935        0.064        0.036       15.970        8.129        0.259      341.781       16.730      864.993
08/06/2014  05:08:00       -0.520        7.565       33.201       16.404       13.287        9.844      269.092      176.535       96.905        0.085        0.027        7.583        6.102        0.647      341.886       16.909      864.992
08/06/2014  05:09:00        1.397        9.066       45.016       18.808       17.198       14.686      353.735      295.786      215.682        0.149        0.043        9.173       11.351        1.531      341.798       16.761      864.992
08/06/2014  05:10:00       43.846       -2.089       33.920       43.426       45.351       36.132     1885.845     2056.669     1305.529        0.416        0.262       43.896       33.557        0.584      341.751       16.680      864.999
08/06/2014  05:11:00       19.322        0.903       59.995       38.447       78.942       41.783     1478.149     6231.798     1745.823        0.671        0.473       19.343       49.741        6.613      341.714       16.619      865.004
08/06/2014  05:12:00       91.582      -77.305       10.754       54.345       96.554       47.676     2953.420     9322.719     2273.007        1.451        0.727      119.847       63.323        0.279      341.561       16.358      865.011
08/06/2014  05:13:00       27.220       15.242       57.433       43.462       67.415       47.772     1888.970     4544.756     2282.131        0.649        0.436       31.197       45.173        2.097      341.560       16.356      865.011
08/06/2014  05:14:00       39.307       15.973       65.767       68.268       89.850       56.946     4660.491     8072.964     3242.812        1.105        0.799       42.429       66.115        2.428      341.535       16.314      865.010
08/06/2014  05:15:00       81.662      -81.824        8.423       60.769       86.186       62.654     3692.850     7428.112     3925.583        1.424        0.752      115.602       61.400        0.282      341.525       16.295      865.010
08/06/2014  05:16:00       94.160     -120.943      -10.569       70.316       72.747       52.637     4944.305     5292.058     2770.632        1.830        0.650      153.276       44.781        0.085      341.573       16.377      865.016
08/06/2014  05:17:00       28.895      -37.461       29.002       45.911       67.613       44.252     2107.830     4571.581     1958.215        0.586        0.432       47.310       49.526        1.096      341.581       16.392      865.022
08/06/2014  05:18:00        5.655        0.452       72.184       29.312       43.618       23.576      859.209     1902.509      555.805        0.428        0.166        5.673       18.132       10.217      341.630       16.475      865.014
08/06/2014  05:19:00       12.447       35.140       83.870       38.167       54.614       37.877     1456.749     2982.680     1434.645        0.715        0.294       37.279       30.656        0.676      341.571       16.376      865.007
08/06/2014  05:20:00       49.214       13.917       59.150       64.223       76.067       48.689     4124.599     5786.263     2370.623        0.920        0.614       51.144       51.295        1.006      341.531       16.309      865.006
08/06/2014  05:21:00       49.065      -14.060       30.359       61.702       92.295       55.192     3807.150     8518.290     3046.106        0.945        0.769       51.040       65.361        1.640      341.501       16.256      865.003
08/06/2014  05:22:00        9.867       20.677       81.074       42.708       80.131       54.073     1823.958     6420.925     2923.881        0.913        0.558       22.910       56.050        5.985      341.523       16.295      864.998
08/06/2014  05:23:00        1.158       46.496       89.243       29.738       55.669       42.792      884.362     3099.027     1831.144        0.797        0.291       46.511       43.862        0.889      341.516       16.283      865.010
08/06/2014  05:24:00       33.428      -72.441       20.034       50.153       55.613       42.720     2515.366     3092.853     1824.978        0.710        0.372       79.782       40.060        0.252      341.582       16.394      865.027
08/06/2014  05:25:00       19.267      -35.374       29.251       41.361       73.925       57.083     1710.709     5464.916     3258.444        0.645        0.522       40.281       56.245        1.950      341.531       16.308      865.033
08/06/2014  05:26:00       19.156      -28.579       24.865       30.469       58.205       40.064      928.339     3387.772     1605.085        0.386        0.296       34.405       39.729        1.333      341.557       16.352      865.034
08/06/2014  05:27:00       17.300       14.311       46.910       45.630       54.384       39.876     2082.052     2957.608     1590.056        0.467        0.331       22.453       39.915        3.160      341.515       16.280      865.028
08/06/2014  05:28:00       24.787       14.903       60.881       42.965       57.714       39.388     1846.005     3330.907     1551.402        0.563        0.336       28.922       38.964        1.815      341.522       16.292      865.037
08/06/2014  05:29:00       39.207       13.588       51.826       56.516       58.959       40.049     3194.087     3476.157     1603.889        0.634        0.414       41.495       40.752        0.965      341.493       16.241      865.028
08/06/2014  05:30:00       16.849       -3.485       49.001       32.543       50.935       29.256     1059.036     2594.423      855.925        0.360        0.225       17.206       32.350        3.535      341.529       16.305      865.020
08/06/2014  05:31:00       -0.977       10.135       52.396       20.010       37.629       22.887      400.390     1415.966      523.818        0.259        0.117       10.182       23.401        5.282      341.587       16.403      865.018
08/06/2014  05:32:00      -11.436      -15.204       24.452       19.134       64.066       41.606      366.122     4104.442     1731.022        0.358        0.310       19.024       48.125        6.399      341.617       16.453      865.025
08/06/2014  05:33:00       36.608      -53.136        3.922       34.140       51.786       24.707     1165.525     2681.815      610.432        0.432        0.223       64.526       28.739        0.198      341.609       16.440      865.034
08/06/2014  05:34:00       66.434       -5.220       39.964       45.555       29.662       22.229     2075.215      879.837      494.117        0.474        0.172       66.638       12.792        0.037      341.576       16.384      865.028
08/06/2014  05:35:00        1.120       12.323       39.579       19.713       28.670       20.842      388.612      821.969      434.393        0.168        0.082       12.374       19.932        2.595      341.605       16.434      865.016
08/06/2014  05:36:00      -12.283       19.980       36.672       26.606       21.857       15.941      707.869      477.736      254.111        0.167        0.072       23.453       14.482        0.381      341.587       16.404      865.003
08/06/2014  05:37:00      -31.587       -6.448        9.169       27.767       21.173       13.976      770.995      448.288      195.340        0.127        0.071       32.239       12.448        0.149      341.568       16.370      865.017
08/06/2014  05:38:00      -17.803       -7.398        4.285       17.602       14.391        8.517      309.830      207.091       72.542        0.049        0.029       19.279        6.408        0.110      341.573       16.377      865.011
08/06/2014  05:39:00       -9.182      -16.141        3.166        7.676       11.282        6.341       58.929      127.273       40.212        0.029        0.011       18.570        3.542        0.036      341.573       16.378      865.005
08/06/2014  05:40:00       -7.781        5.981       -3.302        9.944       10.471       11.718       98.888      109.633      137.302        0.023        0.017        9.814        7.999        0.664      341.558       16.350      865.002
08/06/2014  05:41:00       -1.821        0.673       12.149        8.707        5.610        7.382       75.811       31.468       54.497        0.016        0.008        1.941        6.490       11.176      341.633       16.482      865.011
08/06/2014  05:42:00       -4.777        0.019        1.324        9.204        3.975        5.406       84.712       15.798       29.221        0.008        0.006        4.777        3.844        0.647      341.592       16.412      865.026
08/06/2014  05:43:00      -15.573      -16.353        7.582       21.017       18.530       10.715      441.708      343.353      114.809        0.073        0.045       22.582       10.442        0.214      341.628       16.471      865.038
08/06/2014  05:44:00      -34.731      -14.922       -0.479       25.553       12.790       12.262      652.958      163.586      150.365        0.120        0.048       37.801       14.016        0.137      341.625       16.466      865.044
08/06/2014  05:45:00      -25.247       -0.767        2.447       16.552       16.983        9.367      273.984      288.416       87.741        0.065        0.033       25.258        8.726        0.119      341.544       16.328      865.054
08/06/2014  05:46:00      -53.688       -7.115       -3.520       18.480       15.072       10.126      341.496      227.161      102.532        0.181        0.034       54.157        3.111        0.003      341.498       16.252      865.060
08/06/2014  05:47:00      -86.307        4.220       -5.715       25.206       16.679       14.094      635.365      278.180      198.631        0.431        0.056       86.410       15.543        0.032      341.549       16.339      865.067
08/06/2014  05:48:00      -62.907        6.367       -7.830       15.924       16.033        8.819      253.582      257.045       77.766        0.232        0.029       63.229        8.413        0.018      341.545       16.330      865.065
08/06/2014  05:49:00      -46.727        9.596       -8.865       21.237       15.831        9.738      451.015      250.609       94.830        0.158        0.040       47.702        8.044        0.028      341.525       16.295      865.055
08/06/2014  05:50:00      -37.120       10.068       -8.106       20.638       15.415       11.204      425.930      237.628      125.532        0.117        0.039       38.461        8.073        0.044      341.529       16.301      865.048
08/06/2014  05:51:00      -71.140       40.256       -9.341       21.276       22.776       11.632      452.657      518.761      135.303        0.394        0.055       81.740        8.055        0.010      341.588       16.403      865.036
08/06/2014  05:52:00     -109.185       89.585      -27.395       22.406       31.619       15.956      502.049      999.772      254.586        1.123        0.088      141.233       14.874        0.011      341.604       16.431      865.030
08/06/2014  05:53:00     -113.876       97.783      -28.413       16.912       21.825       13.499      286.023      476.315      182.226        1.214        0.047      150.098        9.321        0.004      341.565       16.366      865.022
08/06/2014  05:54:00     -109.880       81.867      -26.228       30.412       31.797       23.157      924.895     1011.077      536.251        1.097        0.124      137.025       22.400        0.027      341.546       16.332      865.014
08/06/2014  05:55:00     -103.009       85.855      -22.419       27.355       36.304       24.462      748.287     1317.960      598.382        1.057        0.133      134.097       20.207        0.023      341.579       16.388      865.007
08/06/2014  05:56:00     -114.554       92.508      -30.739       28.649       28.471       15.915      820.790      810.603      253.296        1.225        0.094      147.243       14.142        0.009      341.600       16.424      865.001
08/06/2014  05:57:00     -106.433       91.061      -22.223       40.579       34.762       24.710     1646.637     1208.412      610.575        1.179        0.173      140.072       24.675        0.031      341.608       16.440      865.005
08/06/2014  05:58:00     -130.978      121.281      -32.271       31.845       33.056       21.309     1014.103     1092.678      454.062        1.773        0.128      178.506       13.985        0.006      341.605       16.432      864.999
08/06/2014  05:59:00      -83.915       98.730      -12.674       33.450       35.793       23.633     1118.900     1281.130      558.510        0.995        0.148      129.574       18.543        0.020      341.572       16.377      865.003
08/06/2014  06:00:00      -86.613       78.144       -7.221       30.027       36.103       21.752      901.619     1303.443      473.150        0.817        0.134      116.654       13.438        0.013      341.586       16.401      864.998
08/06/2014  06:01:00      -81.593       57.575      -19.544       20.928       27.644       16.659      437.998      764.217      277.531        0.592        0.074       99.861       12.684        0.016      341.598       16.422      864.991
08/06/2014  06:02:00      -54.312       25.000       -6.503       23.413       31.557       16.033      548.154      995.815      257.051        0.271        0.090       59.789       16.173        0.073      341.579       16.390      864.982
08/06/2014  06:03:00      -73.412      -19.952       -0.132       24.844       53.452       17.241      617.211     2857.143      297.243        0.478        0.189       76.075        9.534        0.016      341.587       16.401      864.975
08/06/2014  06:04:00      -47.236      -19.156       -0.210       27.916       14.626       19.924      779.305      213.907      396.968        0.199        0.070       50.972       19.991        0.154      341.610       16.441      864.976
08/06/2014  06:05:00     -112.080       18.398      -18.764       38.344       27.171       16.780     1470.273      738.280      281.583        0.787        0.125      113.580       17.147        0.023      341.610       16.441      864.979
08/06/2014  06:06:00      -50.187      -23.704        2.254       41.836       29.192       24.757     1750.278      852.174      612.922        0.315        0.161       55.504       23.007        0.172      341.587       16.401      864.976
08/06/2014  06:07:00      -78.239        4.936       -3.104       42.323       19.304       20.130     1791.218      372.645      405.210        0.436        0.128       78.394       17.909        0.052      341.574       16.382      864.977
08/06/2014  06:08:00      -44.535      -22.398       10.511       22.296       27.359       18.218      497.124      748.501      331.892        0.209        0.079       49.850       14.513        0.085      341.573       16.381      864.975
08/06/2014  06:09:00      -10.906       40.147       -5.760       21.471       29.862       18.477      460.994      891.717      341.387        0.173        0.085       41.602       15.109        0.132      341.585       16.397      864.970
08/06/2014  06:10:00        7.178        6.510       -4.971       25.983       19.723       17.341      675.123      389.000      300.694        0.074        0.068        9.691       17.979        3.442      341.656       16.519      864.965
08/06/2014  06:11:00      -18.914      -24.893      -16.641       15.267       17.411       18.755      233.083      303.145      351.744        0.107        0.044       31.263       11.088        0.126      341.667       16.541      864.964
08/06/2014  06:12:00      -23.803      -69.880       -9.617       28.811       29.962       19.590      830.076      897.747      383.771        0.383        0.106       73.823       14.841        0.040      341.579       16.388      864.961
08/06/2014  06:13:00       -8.265      -60.609        0.190       27.826       35.821       22.611      774.264     1283.179      511.258        0.315        0.128       61.170       14.561        0.057      341.558       16.351      864.963
08/06/2014  06:14:00      -34.011      -69.705       -4.330       17.953       28.131       14.634      322.325      791.356      214.159        0.368        0.066       77.560       10.961        0.020      341.570       16.375      864.969
08/06/2014  06:15:00      -48.818      -84.788       -8.494       28.284       47.545       21.202      799.976     2260.488      449.526        0.658        0.175       97.838       17.515        0.032      341.532       16.311      864.981
08/06/2014  06:16:00      -53.980      -68.298        6.421       40.447       40.095       26.237     1635.927     1607.605      688.383        0.578        0.197       87.055       27.475        0.100      341.540       16.320      864.989
08/06/2014  06:17:00      -30.121     -106.883       -4.458       36.991       40.802       21.028     1368.317     1664.798      442.162        0.791        0.174      111.047        4.761        0.002      341.592       16.412      865.000
08/06/2014  06:18:00      -75.368     -120.461       -7.626       28.197       36.214       21.120      795.060     1311.474      446.043        1.140        0.128      142.096       14.301        0.010      341.592       16.413      865.019
08/06/2014  06:19:00      -82.412      -46.554       -8.175       38.648       33.893       22.687     1493.630     1148.768      514.695        0.609        0.158       94.653       26.243        0.077      341.616       16.453      865.029
08/06/2014  06:20:00      -88.219      -55.009       -5.087       41.891       27.714       22.274     1754.856      768.084      496.147        0.693        0.151      103.964       25.300        0.059      341.637       16.487      865.031
08/06/2014  06:21:00     -110.528      -51.132       -7.267       19.450       26.695       14.309      378.308      712.621      204.735        0.809        0.065      121.782       10.555        0.008      341.574       16.381      865.040
08/06/2014  06:22:00      -71.917      -55.362       -8.428       35.380       29.551       18.440     1251.767      873.278      340.024        0.539        0.123       90.758       15.982        0.031      341.619       16.456      865.037
08/06/2014  06:23:00      -69.792      -88.775       -1.058       35.574       38.293       21.171     1265.484     1466.367      448.225        0.797        0.159      112.924       14.197        0.016      341.616       16.452      865.035
08/06/2014  06:24:00      -52.512      -57.624       12.521       48.463       34.875       25.874     2348.688     1216.245      669.473        0.523        0.212       77.962       25.691        0.109      341.595       16.417      865.034
08/06/2014  06:25:00      -81.608      -94.808       -1.960       45.819       35.526       25.163     2099.356     1262.085      633.196        0.982        0.200      125.094       24.520        0.038      341.571       16.374      865.041
08/06/2014  06:26:00      -86.363      -21.008       -1.551       44.801       20.699       24.877     2007.128      428.457      618.861        0.548        0.153       88.881       18.662        0.044      341.534       16.311      865.054
08/06/2014  06:27:00      -27.101      -29.193        2.086       27.041       20.846       12.779      731.235      434.542      163.312        0.146        0.066       39.834        7.319        0.034      341.563       16.361      865.065
08/06/2014  06:28:00      -43.693     -100.615       -0.301       22.804       20.888       14.278      520.039      436.301      203.869        0.660        0.058      109.693       11.261        0.011      341.595       16.418      865.078
08/06/2014  06:29:00      -59.865      -85.975       -0.269       28.092       37.880       16.974      789.159     1434.877      288.133        0.674        0.126      104.765       12.822        0.015      341.625       16.469      865.083
08/06/2014  06:30:00      -48.811      -62.359       -1.557       31.797       43.886       22.268     1011.048     1925.980      495.866        0.485        0.172       79.190        4.614        0.003      341.610       16.443      865.085
08/06/2014  06:31:00      -53.181      -55.590        2.722       46.818       30.127       21.359     2191.941      907.617      456.214        0.474        0.178       76.931       19.881        0.067      341.584       16.397      865.087
08/06/2014  06:32:00      -51.847      -73.258        3.571       30.538       27.838       16.424      932.556      774.945      269.757        0.502        0.099       89.748       11.713        0.017      341.587       16.402      865.095
08/06/2014  06:33:00      -74.492      -86.846       -3.970       43.464       38.639       23.248     1889.139     1492.971      540.467        0.851        0.196      114.417       19.145        0.028      341.557       16.351      865.096
08/06/2014  06:34:00      -57.248      -79.889        1.448       46.091       35.270       24.961     2124.375     1243.957      623.031        0.683        0.200       98.283       26.920        0.075      341.550       16.339      865.101
08/06/2014  06:35:00      -45.532      -29.490        2.171       30.592       34.960       17.611      935.873     1222.220      310.130        0.271        0.123       54.248       16.672        0.094      341.570       16.377      865.113
08/06/2014  06:36:00      -30.498      -22.335        6.991       34.766       22.077       18.033     1208.700      487.375      325.203        0.175        0.101       37.802       16.266        0.185      341.596       16.418      865.111
08/06/2014  06:37:00      -42.000      -17.987        3.833       27.335       16.616       12.762      747.211      276.103      162.881        0.164        0.059       45.689       10.771        0.056      341.617       16.451      865.114
08/06/2014  06:38:00      -93.409      -44.235        2.406       33.015       28.720       19.561     1090.013      824.865      382.622        0.649        0.115      103.354       16.593        0.026      341.599       16.424      865.109
08/06/2014  06:39:00      -45.512      -34.392        8.404       32.548       27.258       17.252     1059.374      742.979      297.637        0.271        0.105       57.045       19.257        0.114      341.632       16.478      865.099
08/06/2014  06:40:00      -27.440      -35.984        3.084       40.057       20.637       16.256     1604.549      425.869      264.249        0.218        0.115       45.253       13.398        0.088      341.683       16.566      865.083
08/06/2014  06:41:00      -52.639      -34.079        3.292       47.839       33.166       20.395     2288.523     1100.002      415.945        0.387        0.190       62.708       18.399        0.086      341.652       16.512      865.064
08/06/2014  06:42:00      -21.275      -31.824        5.476       15.547       32.348       15.018      241.701     1046.378      225.535        0.150        0.076       38.280       15.783        0.170      341.699       16.593      865.051
08/06/2014  06:43:00      -50.243      -12.857        2.344       30.898       15.073       10.917      954.660      227.191      119.189        0.200        0.065       51.862        8.168        0.025      341.660       16.529      865.043
08/06/2014  06:44:00      -20.936        3.569       12.044       20.136       17.629       12.480      405.439      310.767      155.760        0.073        0.044       21.238       10.874        0.262      341.677       16.555      865.033
08/06/2014  06:45:00      -39.713       -6.654       -0.734       25.339       18.307        9.007      642.080      335.157       81.117        0.134        0.053       40.267       10.519        0.068      341.679       16.557      865.036
08/06/2014  06:46:00       -7.653        1.273        6.699       10.303       14.646        9.618      106.158      214.505       92.502        0.026        0.021        7.758        6.651        0.735      341.701       16.596      865.040
08/06/2014  06:47:00      -37.791      -11.821        2.002       26.225       13.602       10.656      687.740      185.021      113.548        0.128        0.049       39.596       11.414        0.083      341.684       16.568      865.044
08/06/2014  06:48:00      -43.502        2.983       -2.940       36.213       17.752       10.438     1311.379      315.139      108.952        0.182        0.087       43.604       13.302        0.093      341.644       16.501      865.049
08/06/2014  06:49:00      -70.887      -17.348       -0.966       25.222       15.852       10.663      636.142      251.270      113.694        0.316        0.050       72.978       10.402        0.020      341.656       16.521      865.050
08/06/2014  06:50:00      -52.939      -22.634        3.313       17.101       16.633        9.843      292.437      276.668       96.880        0.200        0.033       57.575        6.359        0.012      341.674       16.549      865.041
08/06/2014  06:51:00      -58.907      -39.845       -0.979       19.351       19.391       12.115      374.477      376.021      146.762        0.298        0.045       71.117        8.354        0.014      341.741       16.665      865.037
08/06/2014  06:52:00      -63.212      -27.244       -2.427       27.631       22.865       13.655      763.453      522.792      186.458        0.311        0.074       68.833       16.073        0.055      341.720       16.629      865.042
08/06/2014  06:53:00      -75.621      -42.247       -2.312       29.712       25.284       13.019      882.784      639.266      169.503        0.460        0.085       86.622       11.509        0.018      341.734       16.652      865.045
08/06/2014  06:54:00      -49.245      -17.502        1.374       20.583       24.206       11.094      423.660      585.952      123.069        0.193        0.057       52.262        8.733        0.028      341.735       16.655      865.042
08/06/2014  06:55:00      -55.999      -15.244       -4.032       17.871       12.333       11.349      319.356      152.100      128.801        0.199        0.030       58.037        8.335        0.021      341.725       16.636      865.048
08/06/2014  06:56:00      -59.277      -23.819       -5.221       15.865       11.957        7.799      251.685      142.964       60.823        0.228        0.023       63.883        6.504        0.010      341.711       16.613      865.051
08/06/2014  06:57:00      -70.977       -1.827       -7.124       17.048        9.641        7.659      290.620       92.954       58.665        0.277        0.022       71.001        3.907        0.003      341.704       16.600      865.050
08/06/2014  06:58:00      -68.735        3.169       -4.201        8.565        8.773        6.707       73.361       76.963       44.978        0.247        0.010       68.808        5.455        0.006      341.717       16.624      865.052
08/06/2014  06:59:00      -57.259        7.977       -4.980        6.943        6.102        4.555       48.212       37.229       20.749        0.174        0.005       57.812        2.454        0.002      341.759       16.692      865.060
08/06/2014  07:00:00      -50.169        2.146       -3.488        7.636        4.032        3.995       58.310       16.260       15.960        0.131        0.005       50.215        1.975        0.002      341.771       16.712      865.078
08/06/2014  07:01:00      -33.690       -0.339       -2.935       13.267        7.163        6.126      176.018       51.312       37.534        0.070        0.013       33.692        3.576        0.011      341.813       16.785      865.081
08/06/2014  07:02:00      -17.626       -2.156       -0.090       13.478        7.914        6.738      181.646       62.635       45.398        0.030        0.014       17.757        6.202        0.122      341.849       16.846      865.100
08/06/2014  07:03:00      -66.857       14.238       -3.109       18.709       14.253       10.719      350.030      203.147      114.888        0.268        0.033       68.356        4.670        0.005      341.785       16.739      865.116
08/06/2014  07:04:00      -70.671       22.777       -5.158       23.586       12.889       13.695      556.281      166.123      187.543        0.322        0.045       74.251        6.665        0.008      341.773       16.718      865.123
08/06/2014  07:05:00      -75.088       19.091       -4.164       18.452       15.915       10.858      340.472      253.281      117.894        0.337        0.036       77.477        7.557        0.010      341.806       16.775      865.139
08/06/2014  07:06:00      -60.527       -7.654       -7.194       23.216       16.156       12.198      538.998      261.002      148.794        0.236        0.047       61.009       13.280        0.047      341.853       16.852      865.146
08/06/2014  07:07:00      -35.931       -8.172       -5.182       21.474       11.410        9.883      461.129      130.179       97.677        0.104        0.034       36.848        9.765        0.070      341.889       16.917      865.164
08/06/2014  07:08:00      -32.264       -2.835        5.731       11.580       20.139       13.223      134.104      405.584      174.836        0.090        0.036       32.388       11.408        0.124      341.957       17.030      865.173
08/06/2014  07:09:00      -62.303       -7.268       -4.113       18.736       17.782       11.301      351.025      316.213      127.705        0.237        0.040       62.725        8.916        0.020      341.891       16.918      865.180
08/06/2014  07:10:00      -51.333      -11.409       -4.287       26.132       24.584       10.011      682.865      604.390      100.227        0.209        0.069       52.586        4.066        0.006      341.872       16.884      865.190
08/06/2014  07:11:00      -43.718       15.693       -4.777       17.772       15.942       11.142      315.858      254.160      124.150        0.144        0.035       46.449        4.766        0.011      341.874       16.888      865.204
08/06/2014  07:12:00      -25.079      -12.261        3.191       14.840       11.518        9.359      220.221      132.674       87.599        0.061        0.022       27.915        9.077        0.106      341.958       17.031      865.209
08/06/2014  07:13:00      -55.818      -16.706       -5.138       21.989       19.192       10.876      483.499      368.323      118.283        0.220        0.049       58.264        9.516        0.027      341.867       16.880      865.218
08/06/2014  07:14:00      -57.074       11.509       -4.250       14.298       11.905       12.961      204.445      141.728      167.977        0.196        0.026       58.223       10.759        0.034      341.844       16.840      865.221
08/06/2014  07:15:00      -51.885        3.520       -8.754       11.588        8.755        8.398      134.278       76.642       70.524        0.153        0.014       52.005        6.713        0.017      341.842       16.832      865.237
08/06/2014  07:16:00      -55.950       -0.508       -4.318       25.518       17.163       15.672      651.171      294.584      245.618        0.217        0.060       55.952       17.553        0.098      341.915       16.961      865.245
08/06/2014  07:17:00      -62.053       19.300      -10.175       15.604       22.271       11.460      243.498      495.995      131.332        0.260        0.044       64.985        7.503        0.013      341.888       16.915      865.267
08/06/2014  07:18:00      -86.324       62.675      -25.500        8.563       13.167        9.657       73.324      173.376       93.249        0.618        0.017      106.677        6.650        0.004      341.871       16.885      865.281
08/06/2014  07:19:00      -81.095       45.472      -16.623       24.063       31.225       18.609      579.010      974.980      346.306        0.541        0.095       92.973       14.458        0.024      341.941       17.003      865.302
08/06/2014  07:20:00      -74.822       30.241      -14.439       16.367       18.961       13.572      267.872      359.509      184.205        0.377        0.041       80.702       10.357        0.016      341.926       16.977      865.316
08/06/2014  07:21:00      -60.553       56.833      -19.067       23.606       16.147       11.391      557.250      260.734      129.757        0.410        0.047       83.046        8.900        0.011      341.913       16.955      865.319
08/06/2014  07:22:00      -29.783       38.395       -8.998       17.341       29.168       12.496      300.708      850.792      156.157        0.187        0.065       48.593       12.333        0.064      341.961       17.037      865.335
08/06/2014  07:23:00      -57.913      -39.230       -0.885       32.484       18.265       14.702     1055.224      333.600      216.147        0.325        0.080       69.950       13.028        0.035      341.896       16.927      865.331
08/06/2014  07:24:00      -56.979      -18.893        2.741       26.131       19.615       12.619      682.832      384.749      159.243        0.242        0.061       60.029       11.703        0.038      341.898       16.932      865.344
08/06/2014  07:25:00      -44.015       -5.319       -3.054        9.826       11.657        6.105       96.545      135.893       37.276        0.112        0.013       44.335        4.425        0.010      341.879       16.899      865.348
08/06/2014  07:26:00      -47.013       -5.323       -1.691        6.892        7.934        6.908       47.501       62.944       47.720        0.120        0.008       47.314        4.955        0.011      341.893       16.923      865.348
08/06/2014  07:27:00      -22.873      -12.957        1.478       12.363        5.929        5.159      152.838       35.155       26.613        0.045        0.011       26.288        3.972        0.023      341.958       17.030      865.354
08/06/2014  07:28:00      -38.973       -7.880       -3.581       10.637        8.603        6.915      113.140       74.009       47.824        0.091        0.012       39.761        4.666        0.014      341.955       17.024      865.355
08/06/2014  07:29:00      -28.505      -17.071       -4.360       10.523       10.094        8.805      110.729      101.885       77.526        0.071        0.015       33.226        5.922        0.032      341.989       17.088      865.370
08/06/2014  07:30:00      -22.898        0.669        1.385       12.499       10.022        9.137      156.237      100.440       83.490        0.043        0.017       22.908        6.339        0.077      342.033       17.160      865.378
08/06/2014  07:31:00      -15.610        5.304        0.632       10.310        8.467        6.314      106.293       71.688       39.870        0.024        0.011       16.487        4.813        0.085      342.041       17.173      865.383
08/06/2014  07:32:00      -39.624       13.516        3.626       14.807        8.189        9.510      219.246       67.067       90.435        0.107        0.019       41.866        8.329        0.040      342.026       17.147      865.387
08/06/2014  07:33:00      -19.978        6.817        5.422       14.057        5.870        8.999      197.613       34.455       80.983        0.039        0.016       21.109        7.931        0.141      342.038       17.167      865.385
08/06/2014  07:34:00       23.211       18.714       16.183       12.333       10.292        8.098      152.104      105.923       65.573        0.074        0.016       29.816        4.617        0.024      342.098       17.269      865.380
08/06/2014  07:35:00       14.439       26.056       26.248       30.670       24.827       22.199      940.668      616.382      492.807        0.181        0.102       29.789       20.850        0.490      342.317       17.642      865.377
08/06/2014  07:36:00       66.552       50.428       21.532       20.715       16.291       18.791      429.113      265.404      353.101        0.424        0.052       83.499        9.290        0.012      342.116       17.300      865.364
08/06/2014  07:37:00       17.106        9.952       22.008       37.524       34.734       18.046     1408.029     1206.419      325.655        0.191        0.147       19.791       12.415        0.394      342.178       17.406      865.361
08/06/2014  07:38:00       -1.104      -18.394        0.033       31.068       27.103       27.339      965.233      734.562      747.446        0.139        0.122       18.427       17.572        0.909      342.254       17.534      865.344
08/06/2014  07:39:00       23.900       33.768       18.725       22.036       25.271       24.461      485.591      638.625      598.361        0.189        0.086       41.370       14.234        0.118      342.284       17.588      865.348
08/06/2014  07:40:00       42.352       22.658       37.722       43.736       35.434       18.837     1912.811     1255.576      354.827        0.363        0.176       48.033       13.709        0.081      342.327       17.659      865.340
08/06/2014  07:41:00       19.065       -1.877       12.425       26.642       22.544       20.593      709.817      508.242      424.051        0.108        0.082       19.157        9.756        0.259      342.284       17.587      865.351
08/06/2014  07:42:00       47.506       25.841       -3.051       26.073       28.059       15.623      679.813      787.306      244.072        0.232        0.086       54.080        6.843        0.016      342.179       17.408      865.351
08/06/2014  07:43:00       38.287       31.436        6.495       38.128       31.024       20.336     1453.731      962.483      413.533        0.266        0.141       49.539       20.015        0.163      342.213       17.466      865.360
08/06/2014  07:44:00       24.165       30.316        7.251       31.956       34.253       22.608     1021.173     1173.263      511.114        0.213        0.135       38.769       21.357        0.303      342.216       17.470      865.358
08/06/2014  07:45:00       35.892       88.001      -17.832       21.885       21.113       16.109      478.957      445.773      259.488        0.527        0.059       95.039       12.926        0.018      342.069       17.222      865.367
08/06/2014  07:46:00       11.404       46.295        4.265       20.254       21.926       15.191      410.223      480.731      230.767        0.171        0.056       47.679       10.397        0.048      342.250       17.529      865.385
08/06/2014  07:47:00       21.215       64.821       -5.261       33.225       20.478       13.804     1103.901      419.350      190.538        0.320        0.086       68.205       14.287        0.044      342.118       17.303      865.391
08/06/2014  07:48:00       57.932       36.367       -3.744       15.070       20.389       18.203      227.115      415.705      331.333        0.283        0.049       68.401        9.655        0.020      342.188       17.423      865.410
08/06/2014  07:49:00       19.546       61.743       -5.849       14.810       15.234       10.664      219.341      232.073      113.718        0.240        0.028       64.763        7.641        0.014      342.190       17.427      865.421
08/06/2014  07:50:00        9.980       35.557       -1.159       12.062       31.664       13.748      145.482     1002.628      188.994        0.135        0.067       36.931       14.975        0.164      342.290       17.596      865.443
08/06/2014  07:51:00        8.973       -9.200        7.626       14.335       14.579       14.948      205.496      212.561      223.445        0.043        0.032       12.851       12.628        0.966      342.284       17.585      865.456
08/06/2014  07:52:00       -5.687       30.828       -0.773       17.763       45.607       14.845      315.518     2080.002      220.383        0.180        0.131       31.348       10.188        0.106      342.369       17.729      865.454
08/06/2014  07:53:00       47.905       46.559        1.602       32.662       22.383       22.529     1066.830      500.990      507.541        0.327        0.104       66.803       17.173        0.066      342.284       17.584      865.460
08/06/2014  07:54:00        1.527       83.842       -5.532       22.696       28.473       12.833      515.114      810.719      164.694        0.428        0.075       83.856       10.264        0.015      342.251       17.529      865.460
08/06/2014  07:55:00       12.512       63.281       -1.899       23.302       38.568       19.417      542.976     1487.468      377.029        0.329        0.120       64.506       19.299        0.090      342.278       17.575      865.456
08/06/2014  07:56:00       -0.849       68.587      -13.658        9.948        8.935        7.753       98.972       79.838       60.116        0.257        0.012       68.592        7.530        0.012      342.119       17.308      865.448
08/06/2014  07:57:00        3.471       56.340        3.459       15.668       20.514       14.943      245.477      420.804      223.296        0.204        0.044       56.447       10.614        0.035      342.266       17.557      865.440
08/06/2014  07:58:00       16.057       27.100        0.610       11.637       18.229       12.517      135.413      332.291      156.686        0.081        0.031       31.500       10.988        0.122      342.292       17.598      865.449
08/06/2014  07:59:00       70.722       58.913        8.060       27.741       19.329       16.651      769.536      373.608      277.255        0.498        0.071       92.046       12.951        0.020      342.232       17.498      865.452
08/06/2014  08:00:00       46.628       40.618       15.886       26.309       23.284       17.838      692.168      542.134      318.180        0.281        0.078       61.838       15.192        0.060      342.325       17.655      865.473
08/06/2014  08:01:00       28.572       56.164        0.206       18.326       33.382       18.188      335.852     1114.342      330.792        0.288        0.089       63.014       21.154        0.113      342.309       17.628      865.477
08/06/2014  08:02:00       52.821       48.313        3.052       23.209       23.102       20.826      538.642      533.708      433.738        0.332        0.075       71.584       12.433        0.030      342.293       17.601      865.499
08/06/2014  08:03:00       32.363       53.739        2.612       29.837       23.441       23.574      890.276      549.458      555.720        0.297        0.100       62.731       15.185        0.059      342.278       17.576      865.517
08/06/2014  08:04:00       42.515       61.805       15.338       32.488       30.937       28.373     1055.487      957.102      805.037        0.434        0.141       75.016       15.632        0.043      342.290       17.596      865.535
08/06/2014  08:05:00       34.916       58.313       49.324       32.369       19.000       20.514     1047.756      361.010      420.842        0.444        0.091       67.967       13.537        0.040      342.284       17.586      865.550
08/06/2014  08:06:00       23.402       34.796       63.594       36.540       32.327       13.629     1335.200     1045.035      185.738        0.418        0.128       41.933       15.825        0.142      342.501       17.954      865.551
08/06/2014  08:07:00       -1.533       29.478       56.483       15.587       28.190       14.012      242.964      794.693      196.338        0.265        0.062       29.518       14.917        0.255      342.472       17.904      865.559
08/06/2014  08:08:00       -5.973        5.896       33.126       22.920       34.849       21.568      525.335     1214.430      465.181        0.169        0.110        8.393       16.892        4.050      342.589       18.104      865.556
08/06/2014  08:09:00      -11.330      -21.520       43.679       26.605       60.751       22.258      707.838     3690.687      495.415        0.370        0.245       24.320       27.503        1.279      342.508       17.967      865.546
08/06/2014  08:10:00       16.540       43.552       43.421       26.356       26.983       24.627      694.655      728.088      606.465        0.304        0.101       46.587       12.800        0.075      342.568       18.068      865.549
08/06/2014  08:11:00       50.884       35.187       17.565       33.079       24.954       24.411     1094.243      622.680      595.915        0.322        0.116       61.865       18.601        0.090      342.385       17.758      865.531
08/06/2014  08:12:00       57.608       58.582       10.419       24.314       19.741       17.167      591.170      389.719      294.713        0.407        0.064       82.162       10.216        0.015      342.304       17.618      865.521
08/06/2014  08:13:00       46.528       44.185        2.576       18.793       16.589       14.281      353.165      275.202      203.960        0.248        0.042       64.165        6.352        0.010      342.296       17.606      865.527
08/06/2014  08:14:00        9.335       42.897        0.722       14.960       19.563       14.036      223.809      382.692      197.000        0.137        0.040       43.901       11.754        0.072      342.369       17.728      865.520
08/06/2014  08:15:00       28.842       55.482       -1.633       29.070       14.153       13.101      845.057      200.316      171.627        0.256        0.061       62.531       10.985        0.031      342.370       17.732      865.519
08/06/2014  08:16:00       36.405       46.745       40.781       36.553       27.381       17.845     1336.089      749.708      318.430        0.379        0.120       59.248        6.323        0.011      342.526       17.999      865.516
08/06/2014  08:17:00        0.708        9.086       28.436       26.490       21.828       15.129      701.697      476.460      228.897        0.115        0.070        9.114       15.009        2.712      342.704       18.298      865.498
08/06/2014  08:18:00       44.894       33.868       23.954       36.398       28.251       21.913     1324.791      798.094      480.178        0.317        0.130       56.236       14.960        0.071      342.693       18.281      865.502
08/06/2014  08:19:00       93.973       64.557        6.665       23.476       20.898       18.707      551.106      436.715      349.968        0.719        0.067      114.011       12.452        0.012      342.360       17.715      865.497
08/06/2014  08:20:00       80.227       32.993       -4.919       25.312       22.622       14.710      640.699      511.742      216.380        0.446        0.068       86.746        7.312        0.007      342.320       17.646      865.497
08/06/2014  08:21:00       63.676       39.243       19.116       27.559       30.613       25.344      759.481      937.159      642.311        0.415        0.117       74.797       17.899        0.057      342.462       17.889      865.496
08/06/2014  08:22:00       40.290       54.966       21.633       25.612       24.619       29.758      655.995      606.117      885.548        0.363        0.107       68.151        7.658        0.013      342.645       18.200      865.488
08/06/2014  08:23:00        6.098       18.503       -2.861       16.188       14.365       16.206      262.048      206.367      262.642        0.056        0.037       19.483        5.537        0.081      342.662       18.227      865.499
08/06/2014  08:24:00      -12.224      -21.240       -1.599       18.137       19.237       13.053      328.960      370.078      170.373        0.074        0.043       24.506       11.358        0.215      342.607       18.135      865.497
08/06/2014  08:25:00      -37.023        2.576      -11.426        8.894       11.858       10.526       79.104      140.605      110.796        0.092        0.017       37.112        7.000        0.036      342.402       17.786      865.492
08/06/2014  08:26:00      -17.821       -3.778       -0.060       10.512        8.680        9.063      110.500       75.346       82.130        0.030        0.013       18.217        6.220        0.117      342.447       17.863      865.499
08/06/2014  08:27:00      -10.048      -22.636       -0.905       14.589        9.939        8.135      212.853       98.776       66.184        0.050        0.019       24.766        5.283        0.045      342.422       17.823      865.491
08/06/2014  08:28:00       -3.330       -3.715        8.842        9.147       11.833        9.632       83.669      140.030       92.776        0.021        0.016        4.989        6.667        1.786      342.787       18.441      865.491
08/06/2014  08:29:00       -6.774       11.180        9.131       16.669       20.486       12.557      277.861      419.685      157.672        0.055        0.043       13.072       12.760        0.953      342.841       18.532      865.478
08/06/2014  08:30:00        0.002       81.823      -13.789        9.967       19.672       11.713       99.346      386.975      137.186        0.375        0.031       81.823        8.713        0.011      342.447       17.863      865.468
08/06/2014  08:31:00       -4.670       81.610       -7.326       12.208       18.667       12.543      149.032      348.461      157.320        0.370        0.033       81.744        9.018        0.012      342.504       17.961      865.464
08/06/2014  08:32:00        3.969       58.421       -5.913       21.526       25.647       11.574      463.385      657.763      133.967        0.236        0.063       58.555        9.284        0.025      342.673       18.247      865.453
08/06/2014  08:33:00       41.803       39.483        8.104       35.161       20.254       21.883     1236.266      410.205      478.861        0.275        0.106       57.501       16.986        0.087      342.691       18.277      865.460
08/06/2014  08:34:00       15.484       50.326       -2.562       15.417       32.417       18.137      237.680     1050.862      328.944        0.220        0.081       52.654       17.696        0.113      342.708       18.306      865.456
08/06/2014  08:35:00        9.171       56.227       -2.982       19.201       25.932       14.435      368.690      672.467      208.380        0.225        0.062       56.970       10.145        0.032      342.668       18.238      865.466
08/06/2014  08:36:00       58.756       36.853       -3.607       28.987       19.694       12.240      840.227      387.872      149.815        0.310        0.069       69.357       11.960        0.030      342.436       17.843      865.464
08/06/2014  08:37:00       25.773       43.465       -8.770       22.620       34.384       15.623      511.656     1182.230      244.068        0.228        0.097       50.532       11.211        0.049      342.617       18.152      865.468
08/06/2014  08:38:00       14.634       79.054       -8.942       21.988       22.548       22.129      483.471      508.412      489.711        0.401        0.074       80.397       15.898        0.039      342.682       18.262      865.465
08/06/2014  08:39:00        2.530       79.410       -2.339       19.300       24.688       18.870      372.472      609.488      356.066        0.383        0.067       79.451       13.164        0.027      342.848       18.544      865.458
08/06/2014  08:40:00        8.467       58.696       -2.173       29.174       31.368       23.918      851.115      983.941      572.090        0.296        0.120       59.303       11.442        0.037      342.961       18.737      865.465
08/06/2014  08:41:00       51.276       13.301        0.506       16.635       27.226       23.723      276.722      741.253      562.775        0.219        0.079       52.973        6.919        0.017      342.706       18.303      865.465
08/06/2014  08:42:00       11.988       -8.655       14.481       21.154       22.322       17.402      447.504      498.261      302.828        0.084        0.062       14.785       16.933        1.312      342.908       18.648      865.469
08/06/2014  08:43:00       30.352       30.519       38.895       33.374       28.059       31.139     1113.825      787.302      969.643        0.312        0.144       43.042       19.344        0.202      343.167       19.087      865.457
08/06/2014  08:44:00       36.861       39.325       14.237       31.588       40.454       22.782      997.799     1636.491      519.005        0.313        0.158       53.900       19.070        0.125      343.049       18.887      865.457
08/06/2014  08:45:00       40.979       86.385        0.385       20.178       37.610       27.894      407.158     1414.542      778.054        0.587        0.130       95.612       14.764        0.024      342.879       18.598      865.463
08/06/2014  08:46:00        3.596       36.891        8.629       17.798       17.459       20.972      316.769      304.833      439.806        0.125        0.053       37.066       15.807        0.182      343.068       18.919      865.474
08/06/2014  08:47:00        8.044       10.442      -14.522       17.785       28.641       16.729      316.295      820.298      279.855        0.090        0.071       13.181       12.319        0.873      342.727       18.338      865.482
08/06/2014  08:48:00        9.853      -20.664       14.434       17.410       13.786       12.623      303.096      190.046      159.352        0.069        0.033       22.892       10.292        0.202      342.826       18.507      865.473
08/06/2014  08:49:00      -30.266      -39.038      -11.314       25.132       21.085       15.938      631.606      444.557      254.012        0.195        0.067       49.396       16.209        0.108      342.688       18.273      865.472
08/06/2014  08:50:00      -44.791      -30.913      -11.854       28.596       17.229       11.127      817.751      296.837      123.815        0.217        0.062       54.422        8.184        0.023      342.666       18.237      865.457
08/06/2014  08:51:00        0.404       -3.719       26.612       17.569       11.430       12.311      308.660      130.638      151.565        0.066        0.030        3.741       10.169        7.390      343.462       19.590      865.451
08/06/2014  08:52:00       -6.820       11.948       29.911       10.098       12.193        8.296      101.977      148.666       68.823        0.070        0.016       13.757        5.981        0.189      343.515       19.681      865.450
08/06/2014  08:53:00        3.526        9.643       29.641       18.078       13.546        6.594      326.800      183.494       43.478        0.077        0.028       10.267        6.143        0.358      343.544       19.731      865.440
08/06/2014  08:54:00       14.370       21.042        7.919       23.969       22.344       14.551      574.499      499.259      211.727        0.100        0.064       25.480        8.725        0.117      343.100       18.975      865.436
08/06/2014  08:55:00       -1.866       42.576       27.039       36.880       51.394       27.413     1360.155     2641.378      751.472        0.365        0.238       42.617       30.021        0.496      343.305       19.324      865.427
08/06/2014  08:56:00      -13.354       38.948        0.667       24.281       36.764       25.731      589.565     1351.609      662.090        0.215        0.130       41.174       15.604        0.144      343.237       19.208      865.420
08/06/2014  08:57:00      -23.399       47.682      -19.960       25.105       21.031       23.633      630.245      442.284      558.529        0.242        0.082       53.114       16.811        0.100      343.004       18.810      865.418
08/06/2014  08:58:00       11.429       72.082      -10.060       18.458       26.571       17.444      340.715      706.014      304.295        0.339        0.068       72.983       10.881        0.022      343.139       19.040      865.418
08/06/2014  08:59:00        4.594       28.799       -1.017       24.496       19.328       24.455      600.053      373.577      598.031        0.121        0.079       29.164       11.326        0.151      343.264       19.253      865.412
08/06/2014  09:00:00      -10.186      -22.131      -18.924       22.778       25.637       14.908      518.819      657.276      222.244        0.117        0.070       24.362       11.640        0.228      342.934       18.693      865.407
08/06/2014  09:01:00      -30.522      -13.587      -15.700       16.604       21.435       14.258      275.692      459.457      203.291        0.115        0.047       33.410       11.335        0.115      343.016       18.831      865.395
08/06/2014  09:02:00       59.261       25.090       24.438       54.183       29.695       26.127     2935.837      881.774      682.632        0.462        0.225       64.354       18.837        0.086      343.511       19.676      865.382
08/06/2014  09:03:00       18.142       35.106       21.602       26.129       40.371       23.612      682.720     1629.787      557.505        0.245        0.144       39.516       17.236        0.190      343.529       19.704      865.374
08/06/2014  09:04:00       59.839       69.968       25.894       41.165       22.815       37.850     1694.575      520.529     1432.638        0.640        0.182       92.066       30.290        0.108      343.180       19.110      865.369
08/06/2014  09:05:00       47.131       36.707       40.305       52.397       30.933       29.808     2745.485      956.840      888.538        0.489        0.230       59.739       13.658        0.052      343.543       19.729      865.369
08/06/2014  09:06:00       35.308       16.445       31.876       52.980       54.329       46.026     2806.892     2951.635     2118.424        0.520        0.394       38.950       42.592        1.196      343.185       19.119      865.369
08/06/2014  09:07:00       -3.258      -13.908       21.471       18.705       36.014       31.820      349.891     1296.999     1012.507        0.166        0.133       14.284       27.989        3.839      343.693       19.986      865.359
08/06/2014  09:08:00       43.851       25.188       37.770       49.178       30.594       30.280     2418.434      935.992      916.850        0.413        0.214       50.570       28.189        0.311      343.621       19.863      865.353
08/06/2014  09:09:00       65.375       46.543       12.619       32.825       26.217       33.744     1077.463      687.315     1138.687        0.475        0.145       80.250       15.277        0.036      343.314       19.339      865.349
08/06/2014  09:10:00       41.569       16.249       -4.637       28.384       30.806       20.915      805.630      949.030      437.428        0.210        0.110       44.632       13.829        0.096      343.001       18.805      865.354
08/06/2014  09:11:00       21.667       -7.212      -15.147       22.513       24.046       11.538      506.840      578.193      133.127        0.098        0.061       22.836        6.453        0.080      343.055       18.898      865.345
08/06/2014  09:12:00      -12.236       24.741       10.762       16.737       41.013       19.981      280.111     1682.069      399.241        0.162        0.118       27.601       19.364        0.492      343.727       20.044      865.337
08/06/2014  09:13:00        5.051       13.112       34.743       20.639       18.333       15.206      425.965      336.090      231.218        0.120        0.050       14.051        9.697        0.476      344.062       20.615      865.340
08/06/2014  09:14:00        2.069       62.344        4.880       32.512       52.843       29.716     1057.045     2792.407      883.056        0.432        0.237       62.378       34.695        0.309      343.627       19.872      865.341
08/06/2014  09:15:00       -4.161       45.198       10.165       23.338       38.469       26.783      544.665     1479.834      717.304        0.245        0.137       45.390       24.788        0.298      343.701       19.998      865.341
08/06/2014  09:16:00      -28.147       65.628        0.370       22.927       45.152       27.576      525.625     2038.677      760.427        0.421        0.166       71.410       16.374        0.053      343.412       19.506      865.346
08/06/2014  09:17:00      -48.234        8.579       -8.514       23.538       17.127       12.798      554.028      293.341      163.801        0.174        0.051       48.991       10.282        0.044      343.221       19.178      865.365
08/06/2014  09:18:00      -53.276       -8.067       -9.742       16.510       15.337       10.628      272.583      235.211      112.954        0.181        0.031       53.884        8.064        0.022      343.103       18.980      865.359
08/06/2014  09:19:00      -44.889       28.497      -18.688       23.846       25.815       20.296      568.635      666.435      411.936        0.241        0.082       53.170        8.338        0.025      343.125       19.017      865.362
08/06/2014  09:20:00      -48.769        2.520      -10.322       28.443       24.410       16.143      809.000      595.859      260.607        0.208        0.083       48.834       12.164        0.062      343.144       19.049      865.365
08/06/2014  09:21:00      -16.592      -35.688       -4.369        9.508       17.046       18.290       90.402      290.571      334.534        0.114        0.036       39.356       11.627        0.087      343.139       19.042      865.352
08/06/2014  09:22:00      -18.693      -45.884        2.516       19.408       24.790       16.598      376.673      614.557      275.488        0.186        0.063       49.545       10.818        0.048      343.266       19.257      865.354
08/06/2014  09:23:00       -2.921      -67.202        0.171       15.044       19.909       13.199      226.308      396.355      174.213        0.266        0.040       67.266        2.874        0.002      343.145       19.051      865.349
08/06/2014  09:24:00      -45.849      -18.033       10.973       44.256       37.738       29.584     1958.637     1424.173      875.232        0.340        0.213       49.268       27.508        0.312      343.577       19.788      865.352
08/06/2014  09:25:00       -2.816      -14.053        4.740       24.028       25.437       21.084      577.366      647.031      444.524        0.095        0.083       14.333       15.501        1.170      343.839       20.236      865.360
08/06/2014  09:26:00       19.447        7.709       23.540       29.498       31.321       25.873      870.132      980.984      669.436        0.176        0.126       20.919       13.083        0.391      343.767       20.112      865.359
08/06/2014  09:27:00       -6.908       16.059       25.066       25.411       39.806       40.189      645.713     1584.537     1615.196        0.239        0.192       17.482       34.412        3.875      344.057       20.607      865.345
08/06/2014  09:28:00       38.489       55.453       63.104       39.328       43.284       22.968     1546.716     1873.535      527.529        0.624        0.197       67.501       12.160        0.032      343.758       20.095      865.351
08/06/2014  09:29:00       34.148       18.806       57.579       40.096       52.200       31.152     1607.717     2724.841      970.458        0.507        0.265       38.984       31.977        0.673      344.296       21.014      865.349
08/06/2014  09:30:00      122.018       86.390       52.978       67.867       59.027       54.788     4605.939     3484.141     3001.727        1.812        0.555      149.505       42.615        0.081      343.552       19.744      865.344
08/06/2014  09:31:00       91.617       55.960       14.243       61.473       46.291       37.298     3778.986     2142.814     1391.147        0.952        0.366      107.356       32.945        0.094      343.463       19.592      865.350
08/06/2014  09:32:00       24.631      101.261        0.740       47.643       49.196       41.606     2269.868     2420.244     1731.059        0.864        0.321      104.213       31.464        0.091      343.701       19.998      865.349
08/06/2014  09:33:00       51.851     -110.275      -11.178       56.888       70.270       29.417     3236.196     4937.934      865.347        1.200        0.452      121.856       24.444        0.040      343.717       20.025      865.348
08/06/2014  09:34:00       46.997     -157.334      -22.024       49.462       55.697       35.259     2446.490     3102.172     1243.195        1.712        0.340      164.204       24.197        0.022      343.391       19.469      865.339
08/06/2014  09:35:00       36.567     -117.349      -18.675       52.264       56.899       49.951     2731.499     3237.507     2495.088        1.196        0.423      122.914       35.925        0.085      343.721       20.032      865.332
08/06/2014  09:36:00       15.058     -119.329      -18.810       45.393       48.140       27.347     2060.567     2317.454      747.853        0.997        0.256      120.275       17.122        0.020      343.490       19.639      865.325
08/06/2014  09:37:00        5.584      -48.643       24.217       44.958       59.497       33.809     2021.212     3539.851     1143.069        0.484        0.335       48.962       12.862        0.069      343.827       20.214      865.317
08/06/2014  09:38:00       98.657        6.105       51.378       66.317       76.446       55.355     4397.916     5843.987     3064.133        1.286        0.665       98.846       52.913        0.287      343.657       19.922      865.319
08/06/2014  09:39:00      128.873      106.208      107.239       61.016       68.638       44.808     3723.009     4711.134     2007.755        2.491        0.522      166.998       35.916        0.046      343.527       19.699      865.294
08/06/2014  09:40:00       91.265      -72.873       13.419       58.485      106.418       56.579     3420.481    11324.864     3201.230        1.588        0.897      116.789       70.223        0.362      343.637       19.888      865.301
08/06/2014  09:41:00       71.743       -2.520       51.472       55.960      133.644       63.283     3131.506    17860.788     4004.783        1.639        1.250       71.787       84.936        1.400      343.847       20.246      865.285
08/06/2014  09:42:00       21.473       39.337       55.950       45.599       41.325       39.267     2079.254     1707.760     1541.876        0.523        0.266       44.816       31.934        0.508      343.833       20.226      865.287
08/06/2014  09:43:00       48.443       28.762       17.379       50.587       33.590       30.660     2559.020     1128.274      940.055        0.405        0.231       56.338       20.450        0.132      343.886       20.315      865.277
08/06/2014  09:44:00       28.532       21.926       13.559       40.486       38.140       32.291     1639.089     1454.628     1042.731        0.281        0.207       35.984       25.281        0.494      344.065       20.620      865.268
08/06/2014  09:45:00       54.268       39.771        8.855       37.317       33.608       29.161     1392.541     1129.525      850.346        0.399        0.169       67.280       22.200        0.109      343.911       20.357      865.268
08/06/2014  09:46:00       82.206       55.427       31.271       36.787       34.447       34.811     1353.306     1186.590     1211.778        0.728        0.188       99.146       12.459        0.016      343.678       19.960      865.278
08/06/2014  09:47:00       13.887       34.852       52.162       34.342       41.479       24.829     1179.397     1720.526      616.470        0.382        0.176       37.517       26.718        0.507      344.149       20.763      865.276
08/06/2014  09:48:00       10.842      -15.050       27.442       30.296       55.768       32.213      917.874     3110.091     1037.693        0.308        0.253       18.548       14.393        0.602      344.185       20.826      865.294
08/06/2014  09:49:00       58.403      -86.493        2.545       47.929       65.657       41.768     2297.205     4310.895     1744.589        0.962        0.418      104.364       43.259        0.172      343.960       20.441      865.305
08/06/2014  09:50:00       80.586     -107.920      -19.570       67.469       77.784       40.972     4552.071     6050.392     1678.691        1.540        0.614      134.688       38.223        0.081      343.797       20.161      865.299
08/06/2014  09:51:00       78.417     -131.894      -18.299       52.141       41.412       33.123     2718.684     1714.924     1097.159        1.470        0.277      153.444       21.343        0.019      343.765       20.107      865.315
08/06/2014  09:52:00       74.199      -77.371       24.722       53.762       71.641       56.356     2890.384     5132.494     3176.029        1.165        0.560      107.200       53.348        0.248      344.015       20.535      865.317
08/06/2014  09:53:00       18.066       -8.844       34.332       31.291       47.290       57.558      979.135     2236.347     3312.875        0.405        0.326       20.114       39.820        3.919      344.149       20.765      865.316
08/06/2014  09:54:00        4.305      -18.143       26.650       28.144       34.332       24.655      792.068     1178.653      607.884        0.182        0.129       18.647       17.112        0.842      344.091       20.665      865.305
08/06/2014  09:55:00      -10.288       -2.074       22.647       24.220       23.254       16.329      586.585      540.730      266.627        0.101        0.070       10.495       13.692        1.702      344.525       21.405      865.291
08/06/2014  09:56:00       21.224       32.450       37.255       35.233       32.103       34.661     1241.394     1030.605     1201.397        0.318        0.174       38.775       16.326        0.177      344.420       21.226      865.281
08/06/2014  09:57:00       32.514       11.195       54.590       35.659       86.992       53.318     1271.539     7567.571     2842.838        0.792        0.584       34.387       64.428        3.510      344.483       21.333      865.292
08/06/2014  09:58:00      232.790      132.219       52.196       86.913       68.533       63.495     7553.807     4696.713     4031.633        4.534        0.814      267.718       45.928        0.029      343.658       19.922      865.295
08/06/2014  09:59:00      187.169       77.339       46.367       88.755       82.294       59.987     7877.432     6772.232     3598.395        3.070        0.912      202.518       48.372        0.057      343.681       19.960      865.289
08/06/2014  10:00:00      124.905       80.749       46.523       90.845       51.162       51.515     8252.830     2617.589     2653.818        1.890        0.676      148.733       41.365        0.077      343.801       20.168      865.303
08/06/2014  10:01:00      227.779      123.759       14.762       83.609       62.509       57.568     6990.499     3907.382     3314.056        4.081        0.711      259.229       38.657        0.022      343.540       19.719      865.310
08/06/2014  10:02:00       68.757       93.413        9.843       69.845       54.360       43.584     4878.378     2955.045     1899.597        1.164        0.487      115.989       29.429        0.064      343.629       19.875      865.314
08/06/2014  10:03:00       70.140       -7.003        3.088       44.370       76.712       37.707     1968.700     5884.716     1421.799        0.712        0.464       70.489       41.126        0.340      343.961       20.440      865.301
08/06/2014  10:04:00       73.808      -87.580       -4.013       47.706       80.950       47.988     2275.857     6552.927     2302.830        1.213        0.557      114.533       47.417        0.171      344.272       20.972      865.302
08/06/2014  10:05:00       70.952      -53.292       12.590       61.270       85.548       50.523     3753.964     7318.410     2552.524        1.083        0.681       88.737       59.799        0.454      344.350       21.107      865.307
08/06/2014  10:06:00      109.114     -118.238      -18.180       65.454       64.319       43.782     4284.232     4136.933     1916.848        1.828        0.517      160.892       38.147        0.056      343.963       20.444      865.289
08/06/2014  10:07:00      154.332      -25.158       48.776       89.572      102.599       73.465     8023.202    10526.456     5397.033        2.538        1.197      156.369       75.924        0.236      344.049       20.590      865.290
08/06/2014  10:08:00       52.764      -27.017       34.565       64.444       95.132       63.527     4153.018     9050.176     4035.672        1.097        0.862       59.279       35.207        0.353      344.163       20.786      865.302
08/06/2014  10:09:00       54.438       32.133       66.469       65.506       87.262       41.781     4291.068     7614.741     1745.639        1.103        0.683       63.214       45.188        0.511      344.320       21.055      865.310
08/06/2014  10:10:00       85.155       79.164       73.504       63.791       51.625       49.257     4069.334     2665.117     2426.295        1.404        0.458      116.269       41.983        0.130      344.015       20.534      865.318
08/06/2014  10:11:00      141.037       89.105       28.307       64.990       53.948       56.521     4223.715     2910.380     3194.618        1.948        0.516      166.827       44.298        0.071      343.772       20.118      865.331
08/06/2014  10:12:00      138.149       83.915       28.266       37.712       26.967       35.878     1422.184      727.206     1287.253        1.518        0.172      161.638       22.589        0.020      343.756       20.091      865.341
08/06/2014  10:13:00       59.873       45.813       13.821       22.784       30.762       24.437      519.123      946.281      597.173        0.397        0.103       75.390        8.977        0.014      343.863       20.276      865.352
08/06/2014  10:14:00       83.480       38.248       30.678       53.716       51.073       35.879     2885.365     2608.408     1287.307        0.808        0.339       91.825       25.418        0.077      343.906       20.348      865.354
08/06/2014  10:15:00       61.302       64.741       57.265       37.413       24.926       15.747     1399.724      621.329      247.979        0.675        0.113       89.159        9.207        0.011      343.765       20.108      865.364
08/06/2014  10:16:00       58.900       61.865       35.532       30.653       18.915       27.637      939.584      357.791      763.779        0.531        0.103       85.420       13.448        0.025      343.986       20.484      865.376
08/06/2014  10:17:00        6.808       12.938       60.286       39.904       79.805       41.701     1592.332     6368.818     1738.972        0.677        0.485       14.620       45.267        9.587      344.387       21.169      865.392
08/06/2014  10:18:00       26.800       11.406       15.206       35.015       47.734       25.702     1226.031     2278.573      660.580        0.262        0.208       29.126       21.995        0.570      344.238       20.916      865.403
08/06/2014  10:19:00      109.623       64.987       21.282       57.333       42.145       39.424     3287.035     1776.179     1554.252        1.165        0.331      127.438       22.457        0.031      344.211       20.869      865.414
08/06/2014  10:20:00      100.758      106.463       69.578       86.928       56.622       50.938     7556.513     3206.048     2594.658        1.984        0.668      146.583       47.898        0.107      344.185       20.823      865.427
08/06/2014  10:21:00      137.644       95.441       42.391       65.536       45.950       37.559     4294.928     2111.383     1410.678        1.883        0.391      167.496       15.679        0.009      343.939       20.403      865.450
08/06/2014  10:22:00      126.692       91.620       71.922       85.343       68.788       59.043     7283.372     4731.797     3486.084        2.256        0.775      156.349       46.397        0.088      343.957       20.433      865.460
08/06/2014  10:23:00      169.532       96.065       27.992       68.461       60.458       50.291     4686.871     3655.212     2529.221        2.481        0.544      194.857       37.621        0.037      343.743       20.067      865.460
08/06/2014  10:24:00      116.185       53.325       50.500       52.395       46.916       45.209     2745.186     2201.072     2043.817        1.294        0.350      127.838       29.453        0.053      343.864       20.276      865.458
08/06/2014  10:25:00       55.267       60.236       33.461       49.654       48.962       48.414     2465.501     2397.307     2343.905        0.750        0.360       81.748       39.947        0.239      344.121       20.716      865.462
08/06/2014  10:26:00       -8.428      -28.546       13.281       27.716       38.167       21.709      768.158     1456.758      471.291        0.188        0.135       29.764       21.047        0.500      344.351       21.108      865.462
08/06/2014  10:27:00       14.972       -0.318       28.595       19.891       12.454       19.369      395.642      155.110      375.160        0.098        0.046       14.975       16.545        1.221      344.532       21.418      865.442
08/06/2014  10:28:00       25.235        5.119       17.923       15.732       10.497       15.419      247.485      110.180      237.732        0.079        0.030       25.749        6.902        0.072      344.339       21.089      865.443
08/06/2014  10:29:00      -13.632       15.069       21.560       27.053       28.514       30.406      731.874      813.055      924.536        0.167        0.123       20.321       20.333        1.001      344.433       21.248      865.445
08/06/2014  10:30:00       36.221       73.844       70.877       56.692       37.654       56.388     3214.019     1417.858     3179.631        0.980        0.391       82.248       39.307        0.228      344.140       20.748      865.446
08/06/2014  10:31:00        9.616       56.411       78.283       46.226       47.930       44.518     2136.863     2297.253     1981.886        0.791        0.321       57.224       39.906        0.486      344.316       21.049      865.436
08/06/2014  10:32:00       82.631      -80.746       -3.084       48.982       61.704       31.405     2399.272     3807.344      986.259        1.027        0.360      115.533       34.809        0.091      343.990       20.493      865.434
08/06/2014  10:33:00       28.034      -46.491       19.502       43.248       71.506       43.541     1870.382     5113.076     1895.801        0.610        0.444       54.290       45.408        0.700      344.389       21.172      865.434
08/06/2014  10:34:00        9.397       -3.360       46.398       27.901       33.363       21.371      778.465     1113.058      456.726        0.230        0.117        9.980       14.985        2.255      344.843       21.949      865.434
08/06/2014  10:35:00       36.445       38.367       65.692       43.839       77.437       66.375     1921.887     5996.477     4405.655        0.972        0.616       52.918       64.587        1.490      344.452       21.280      865.435
08/06/2014  10:36:00       -0.989       81.285      111.727       33.565       69.301       46.918     1126.585     4802.656     2201.314        1.361        0.407       81.291       42.855        0.278      344.562       21.469      865.440
08/06/2014  10:37:00       36.750      -56.206       17.949       48.814       87.570       54.796     2382.850     7668.422     3002.644        0.894        0.653       67.154       59.834        0.794      344.441       21.262      865.442
08/06/2014  10:38:00       17.961       49.112       68.251       45.412       55.030       36.913     2062.288     3028.304     1362.537        0.692        0.323       52.293       27.132        0.269      344.712       21.726      865.430
08/06/2014  10:39:00       25.131       -0.233       57.406       41.887       68.736       44.898     1754.560     4724.579     2015.850        0.621        0.425       25.132       44.640        3.155      344.727       21.752      865.435
08/06/2014  10:40:00       52.855       75.250       75.699       74.198       47.206       40.736     5505.392     2228.396     1659.455        1.179        0.470       91.957       43.612        0.225      344.530       21.414      865.440
08/06/2014  10:41:00       29.944      -64.210       14.802       43.579       92.462       40.689     1899.133     8549.207     1655.573        0.867        0.605       70.849       56.290        0.631      344.317       21.051      865.443
08/06/2014  10:42:00       94.194     -124.674      -26.510       43.018       56.536       27.664     1850.529     3196.340      765.320        1.546        0.291      156.257       18.466        0.014      344.193       20.837      865.434
08/06/2014  10:43:00       61.146      -21.944       28.796       46.199       41.838       42.627     2134.348     1750.413     1817.071        0.537        0.285       64.964       36.989        0.324      344.545       21.441      865.429
08/06/2014  10:44:00       20.232       67.935       77.283       47.866       41.891       32.282     2291.157     1754.855     1042.143        0.804        0.254       70.884       26.041        0.135      344.651       21.622      865.426
08/06/2014  10:45:00      112.180      117.856       38.251       79.171       54.645       61.168     6268.106     2986.062     3741.534        2.046        0.650      162.709       31.932        0.039      344.316       21.047      865.427
08/06/2014  10:46:00       25.886       49.162       15.444       39.035       64.543       25.481     1523.761     4165.800      649.261        0.483        0.317       55.560       28.546        0.264      344.537       21.427      865.426
08/06/2014  10:47:00       64.682       64.928       14.143       30.362       25.177       32.849      921.836      633.868     1079.085        0.562        0.132       91.648       20.760        0.051      344.467       21.306      865.417
08/06/2014  10:48:00      213.280      139.063       21.206      117.043       67.935       45.964    13699.105     4615.142     2112.715        4.285        1.021      254.611       49.787        0.038      344.215       20.872      865.425
08/06/2014  10:49:00      151.010       83.674       35.203       88.115       68.169       54.723     7764.338     4647.014     2994.648        2.322        0.770      172.643       35.086        0.041      344.216       20.875      865.449
08/06/2014  10:50:00       43.921      -91.552        2.324       37.312       43.959       39.547     1392.195     1932.422     1563.943        0.760        0.244      101.542       27.265        0.072      344.111       20.699      865.455
08/06/2014  10:51:00        9.960      -68.896      -15.416       20.405       15.608       15.466      416.363      243.597      239.187        0.299        0.045       69.612        9.821        0.020      343.896       20.329      865.446
08/06/2014  10:52:00       11.587       -0.998       35.795       24.778       40.343       41.486      613.932     1627.520     1721.123        0.269        0.198       11.630       37.582       10.442      344.686       21.681      865.443
08/06/2014  10:53:00       51.979       73.619       82.863       60.752       42.113       33.447     3690.755     1773.496     1118.717        1.078        0.329       90.120       28.658        0.101      344.408       21.205      865.446
08/06/2014  10:54:00        5.212       20.736       69.351       44.788       71.949       63.144     2005.974     5176.685     3987.138        0.822        0.558       21.381       55.974        6.854      344.824       21.918      865.446
08/06/2014  10:55:00      212.571      133.043       19.449       92.690       67.449       60.723     8591.431     4549.413     3687.284        4.004        0.841      250.772       46.814        0.035      344.336       21.081      865.451
08/06/2014  10:56:00      174.803      131.033       12.022       58.263       49.714       43.077     3394.623     2471.438     1855.632        2.779        0.386      218.463       34.745        0.025      344.033       20.562      865.471
08/06/2014  10:57:00      140.654       86.151       -3.207       49.556       36.139       43.957     2455.842     1306.023     1932.212        1.645        0.285      164.942       29.222        0.031      344.186       20.826      865.465
08/06/2014  10:58:00       77.373       86.687        1.028       40.314       39.051       36.173     1625.196     1525.000     1308.478        0.898        0.223      116.195       18.839        0.026      344.233       20.908      865.469
08/06/2014  10:59:00       71.380       90.858      -23.990       29.310       36.508       21.241      859.077     1332.848      451.171        0.828        0.132      115.543       13.685        0.014      344.132       20.733      865.480
08/06/2014  11:00:00       29.309        6.998        9.062       52.678       29.302       28.291     2774.981      858.609      800.397        0.271        0.222       30.133       21.376        0.503      344.636       21.596      865.474
08/06/2014  11:01:00       90.572       84.265       10.064       38.397       38.423       41.216     1474.362     1476.329     1698.733        1.003        0.232      123.709       30.744        0.062      344.520       21.398      865.489
08/06/2014  11:02:00       99.691       60.765        1.080       56.379       33.489       35.003     3178.644     1121.511     1225.176        0.958        0.276      116.750       23.106        0.039      344.394       21.183      865.512
08/06/2014  11:03:00       15.298       42.409       -6.566       35.013       38.737       29.459     1225.940     1500.521      867.854        0.283        0.180       45.084       16.169        0.129      344.394       21.182      865.507
08/06/2014  11:04:00      124.399       76.557        3.510       39.113       27.842       34.035     1529.815      775.191     1158.394        1.241        0.173      146.068       17.207        0.014      344.232       20.905      865.517
08/06/2014  11:05:00       25.464        4.108        8.478       39.382       35.447       35.058     1550.967     1256.479     1229.088        0.239        0.202       25.793       23.001        0.795      344.908       22.060      865.501
08/06/2014  11:06:00       68.015      106.063        4.601       56.903       74.699       45.925     3237.992     5579.925     2109.124        1.341        0.546      125.998       39.737        0.099      344.714       21.728      865.508
08/06/2014  11:07:00       -0.710       80.002        6.270       38.408       72.589       39.180     1475.153     5269.151     1535.111        0.736        0.414       80.005       36.167        0.204      345.009       22.234      865.512
08/06/2014  11:08:00        1.430      123.421      -19.153       27.050       56.478       34.562      731.676     3189.772     1194.543        1.036        0.256      123.429       30.254        0.060      344.607       21.545      865.513
08/06/2014  11:09:00       67.532       37.473      -15.624       45.779       31.350       29.085     2095.756      982.814      845.945        0.507        0.196       77.232        9.790        0.016      344.703       21.710      865.514
08/06/2014  11:10:00       19.852       82.874       25.390       51.912       43.499       34.632     2694.816     1892.175     1199.401        0.685        0.289       85.219       30.738        0.130      344.607       21.547      865.524
08/06/2014  11:11:00     -148.797      113.485      -16.202       66.603       59.977       37.107     4435.993     3597.299     1376.914        2.234        0.471      187.134       31.342        0.028      344.212       20.868      865.508
08/06/2014  11:12:00     -179.504       19.296       -6.957       35.870       34.150       25.069     1286.667     1166.216      628.467        1.786        0.154      180.539       16.530        0.008      344.118       20.709      865.504
08/06/2014  11:13:00      -82.816       17.675       -5.844       56.841       21.307       11.777     3230.880      453.999      138.694        0.551        0.191       84.681       12.992        0.024      344.117       20.706      865.512
08/06/2014  11:14:00       37.965       29.038       38.311       60.872       55.212       60.589     3705.380     3048.412     3671.012        0.709        0.521       47.797       52.171        1.191      344.863       21.985      865.504
08/06/2014  11:15:00       59.202       38.116       71.937       56.335       93.012       56.731     3173.603     8651.179     3218.388        1.258        0.752       70.411       53.604        0.580      344.831       21.930      865.493
08/06/2014  11:16:00       60.312       31.830       23.585       57.667       44.356       57.671     3325.438     1967.485     3325.962        0.691        0.431       68.196       36.547        0.287      344.986       22.195      865.476
08/06/2014  11:17:00       70.072      -61.933       35.037       58.780       91.300       55.889     3455.060     8335.749     3123.624        1.244        0.746       93.519       62.674        0.449      345.207       22.573      865.468
08/06/2014  11:18:00       49.991      -84.857       31.055       67.063       74.869       58.628     4497.411     5605.310     3437.252        1.210        0.677       98.488       48.008        0.238      344.977       22.178      865.471
08/06/2014  11:19:00       48.257       -8.538       51.884       43.143       54.430       43.179     1861.334     2962.582     1864.400        0.589        0.334       49.007       39.227        0.641      345.374       22.860      865.463
08/06/2014  11:20:00       29.469       32.035       49.316       36.638       36.388       28.664     1342.370     1324.063      821.635        0.391        0.174       43.528       19.246        0.195      345.427       22.951      865.466
08/06/2014  11:21:00       66.231       63.649       62.771       62.584       74.963       52.517     3916.802     5619.401     2758.026        1.233        0.615       91.857       57.382        0.390      345.018       22.251      865.451
08/06/2014  11:22:00       83.046      106.769       85.694       83.015       63.826       75.945     6891.508     4073.812     5767.592        2.118        0.837      135.263       75.110        0.308      344.720       21.740      865.452
08/06/2014  11:23:00       62.090       46.673       54.933       66.503       49.948       35.388     4422.674     2494.756     1252.287        0.861        0.408       77.676       26.245        0.114      344.955       22.141      865.447
08/06/2014  11:24:00       74.026       64.446       78.020       63.808       56.414       53.074     4071.416     3182.565     2816.802        1.289        0.504       98.149       39.559        0.162      344.918       22.078      865.429
08/06/2014  11:25:00      108.941       92.091       67.665       59.732       43.462       46.540     3567.971     1888.968     2166.002        1.627        0.381      142.650       33.206        0.054      345.181       22.528      865.426
08/06/2014  11:26:00       81.285       62.275       65.813       60.281       47.997       56.158     3633.782     2303.683     3153.759        1.195        0.455      102.398       33.590        0.108      344.871       21.997      865.412
08/06/2014  11:27:00       98.674       83.111       78.873       95.026       67.200       45.219     9029.881     4515.835     2044.789        1.922        0.780      129.012       33.256        0.066      345.136       22.450      865.404
08/06/2014  11:28:00       82.823       49.936       53.491       82.653      100.524       43.039     6831.509    10105.170     1852.361        1.550        0.939       96.712       49.590        0.263      345.017       22.245      865.394
08/06/2014  11:29:00       48.965      -15.963       29.319       60.211      105.902       46.077     3625.306    11215.197     2123.098        1.023        0.848       51.502       55.815        1.175      345.209       22.576      865.383
08/06/2014  11:30:00       95.834     -108.708       20.522       66.852       60.728       48.158     4469.130     3687.873     2319.236        1.595        0.524      144.919       26.952        0.035      345.187       22.537      865.369
08/06/2014  11:31:00      116.552      -24.177       54.353       66.823      166.283       81.078     4465.378    27649.975     6573.722        2.790        1.934      119.033       96.802        0.661      344.998       22.213      865.339
08/06/2014  11:32:00      133.033      114.174       75.663       86.614       54.159       51.725     7501.993     2933.224     2675.464        2.478        0.656      175.309       47.861        0.075      344.970       22.166      865.341
08/06/2014  11:33:00       39.555      -46.306       31.232       58.496       87.545       61.026     3421.795     7664.096     3724.186        0.974        0.741       60.900       63.893        1.101      345.482       23.043      865.332
08/06/2014  11:34:00       91.218       14.912       35.780       67.541      104.085       41.491     4561.820    10833.791     1721.489        1.347        0.856       92.428       36.845        0.159      345.407       22.916      865.327
08/06/2014  11:35:00      209.653      140.879       53.618       81.682       58.055       67.099     6671.943     3370.358     4502.227        4.061        0.727      252.589       40.671        0.026      345.028       22.263      865.322
08/06/2014  11:36:00      203.595       99.625       33.189       61.064       63.003       56.521     3728.796     3969.408     3194.649        3.168        0.545      226.663       33.976        0.022      344.818       21.904      865.331
08/06/2014  11:37:00      133.261       94.239       13.227       92.279       74.706       42.742     8515.349     5580.925     1826.875        2.137        0.796      163.216       20.228        0.015      344.946       22.124      865.332
08/06/2014  11:38:00      114.488       97.029        9.265       53.936       53.556       45.408     2909.063     2868.248     2061.893        1.522        0.392      150.074       32.224        0.046      345.287       22.709      865.336
08/06/2014  11:39:00      120.185      109.276       62.199       68.248       49.662       56.919     4657.779     2466.307     3239.787        2.031        0.518      162.437       26.489        0.027      345.334       22.788      865.323
08/06/2014  11:40:00      102.194       89.973       85.853       58.855       52.547       40.598     3463.889     2761.142     1648.199        1.689        0.394      136.158       15.240        0.013      345.179       22.523      865.340
08/06/2014  11:41:00      153.651       79.158       62.742       73.719       73.386       71.867     5434.506     5385.556     5164.884        2.489        0.799      172.843       53.668        0.096      344.929       22.093      865.346
08/06/2014  11:42:00      122.671       79.514       69.557       64.968       60.339       41.408     4220.848     3640.809     1714.647        1.789        0.479      146.187       22.682        0.024      345.052       22.307      865.361
08/06/2014  11:43:00      113.307       73.745        9.280       41.606       37.977       28.258     1731.040     1442.268      798.539        1.117        0.199      135.192       19.224        0.020      344.629       21.583      865.369
08/06/2014  11:44:00       27.201       29.387       12.929       27.288       31.822       32.430      744.658     1012.613     1051.679        0.229        0.140       40.043       22.248        0.309      345.165       22.501      865.362
08/06/2014  11:45:00      -52.606       37.147       16.091       54.458       38.270       30.119     2965.630     1464.617      907.179        0.487        0.267       64.400       30.238        0.220      345.164       22.499      865.351
08/06/2014  11:46:00      -28.763      -56.817       15.280       42.569       45.882       27.820     1812.149     2105.112      773.933        0.449        0.235       63.683       28.370        0.198      345.029       22.269      865.341
08/06/2014  11:47:00       28.313       65.346      119.270       66.796       65.308       56.439     4461.665     4265.078     3185.310        1.560        0.596       71.216       49.991        0.493      345.711       23.436      865.344
08/06/2014  11:48:00       62.956      -10.770       51.216       86.694       90.217       49.950     7515.922     8139.126     2495.014        1.242        0.908       63.870       51.581        0.652      345.109       22.405      865.343
08/06/2014  11:49:00       72.113       98.574       89.108      113.364       53.593       42.936    12851.489     2872.202     1843.512        2.021        0.878      122.135       48.441        0.157      345.356       22.827      865.332
08/06/2014  11:50:00       14.530      -35.196       28.542       45.316       52.209       39.013     2053.555     2725.753     1521.986        0.428        0.315       38.077       21.952        0.332      345.733       23.476      865.337
08/06/2014  11:51:00       52.284      -43.239       43.789       59.201       72.226       53.306     3504.800     5216.546     2841.538        0.904        0.578       67.848       43.584        0.413      345.607       23.260      865.332
08/06/2014  11:52:00       59.652      -50.444        6.356       37.040       46.981       41.721     1371.994     2207.214     1740.670        0.573        0.266       78.121       37.197        0.227      345.348       22.815      865.341
08/06/2014  11:53:00      -12.014      -28.481       10.520       74.932       41.211       38.927     5614.795     1698.325     1515.332        0.495        0.441       30.912       32.336        1.094      345.513       23.098      865.330
08/06/2014  11:54:00      -46.505      -20.033       15.440       35.983       36.011       24.866     1294.802     1296.810      618.318        0.301        0.160       50.636       22.949        0.205      345.540       23.144      865.319
08/06/2014  11:55:00       -9.151       15.537       22.728       27.659       36.839       40.536      765.010     1357.130     1643.207        0.230        0.188       18.032       12.536        0.483      345.935       23.823      865.322
08/06/2014  11:56:00       99.935       60.565       34.491       53.956       39.810       50.429     2911.267     1584.831     2543.034        1.094        0.352      116.855       37.820        0.105      345.261       22.665      865.331
08/06/2014  11:57:00      182.669      128.365       38.584       74.503       42.816       46.581     5550.714     1833.210     2169.787        3.044        0.478      223.261       32.453        0.021      344.967       22.158      865.317
08/06/2014  11:58:00       68.455       86.202      105.517       83.156      101.698       66.360     6914.863    10342.453     4403.704        2.245        1.083      110.077       59.207        0.289      345.454       22.992      865.308
08/06/2014  11:59:00       75.543       95.173       53.005       77.328       48.505       52.850     5979.665     2352.760     2793.166        1.435        0.556      121.510       45.022        0.137      345.484       23.045      865.321
08/06/2014  12:00:00       50.757       90.732       66.646       78.715       65.144       80.813     6195.991     4243.753     6530.689        1.611        0.849      103.964       59.458        0.327      345.837       23.653      865.320
08/06/2014  12:01:00      100.537      146.898      150.259      100.904       84.599       95.436    10181.688     7156.981     9108.033        4.035        1.322      178.007       79.390        0.199      345.273       22.681      865.328
08/06/2014  12:02:00       60.744      104.831      110.958       77.221       78.491       71.720     5963.024     6160.786     5143.719        2.213        0.863      121.158       55.537        0.210      345.199       22.557      865.352
08/06/2014  12:03:00      124.555       60.602       30.708       75.552       70.687       55.887     5708.078     4996.655     3123.348        1.698        0.691      138.516       40.815        0.087      344.970       22.165      865.356
08/06/2014  12:04:00      116.066       77.031       44.896       78.866       62.412       64.949     6219.793     3895.307     4218.363        1.787        0.717      139.302       15.699        0.013      345.082       22.358      865.324
08/06/2014  12:05:00       64.299       86.580      -13.051       86.319       62.828       42.240     7450.895     3947.303     1784.199        1.249        0.659      107.845       32.853        0.093      345.106       22.399      865.326
08/06/2014  12:06:00       63.360       39.670       16.199       74.511       52.192       43.615     5551.858     2724.055     1902.262        0.801        0.509       74.754       27.094        0.131      345.395       22.892      865.302
08/06/2014  12:07:00      138.876       57.520       11.857       79.205       65.330       48.663     6273.487     4268.074     2368.088        1.782        0.645      150.317       35.922        0.057      345.287       22.708      865.290
08/06/2014  12:08:00      196.605      129.943       50.729       68.289       71.925       66.112     4663.417     5173.254     4370.808        3.616        0.710      235.666       33.061        0.020      345.515       23.099      865.300
08/06/2014  12:09:00      141.122      104.807       18.125       94.197       63.228       61.788     8873.032     3997.816     3817.801        2.396        0.834      175.784       29.505        0.028      345.407       22.913      865.306
08/06/2014  12:10:00      117.984      163.799      123.467       98.465       65.485       81.724     9695.391     4288.331     6678.861        3.832        1.033      201.867       76.794        0.145      345.272       22.678      865.299
08/06/2014  12:11:00       72.572      121.080      111.153       86.055       68.209       46.502     7405.489     4652.518     2162.418        2.325        0.711      141.163       34.712        0.060      345.218       22.589      865.291
08/06/2014  12:12:00       56.468       -9.149       68.437       68.935       68.987       50.933     4751.995     4759.214     2594.196        1.003        0.605       57.205       52.645        0.847      345.793       23.576      865.285
08/06/2014  12:13:00       84.642       67.525       49.098       77.128       57.664       49.899     5948.773     3325.187     2489.909        1.295        0.588      108.277       42.578        0.155      345.656       23.342      865.268
08/06/2014  12:14:00       18.155      -47.342       10.355       59.941       95.010       32.546     3592.946     9026.863     1059.220        0.818        0.684       50.704       41.822        0.680      345.931       23.814      865.253
08/06/2014  12:15:00      127.966     -154.040      -10.451       46.553       55.285       31.927     2167.162     3056.407     1019.320        2.323        0.312      200.259       26.046        0.017      345.118       22.419      865.241
08/06/2014  12:16:00       31.193      -72.171       18.438       40.462       42.414       29.080     1637.148     1798.933      845.669        0.540        0.214       78.624       31.699        0.163      345.884       23.733      865.211
08/06/2014  12:17:00       10.265      -38.695        2.192       35.967       57.773       29.660     1293.616     3337.731      879.703        0.356        0.276       40.034       31.428        0.616      346.404       24.628      865.193
08/06/2014  12:18:00      -56.630      -18.480       -1.337       38.159       34.380       23.068     1456.109     1181.961      532.120        0.336        0.159       59.569       16.059        0.073      346.129       24.155      865.184
08/06/2014  12:19:00       11.830       10.512       42.424       65.477       54.765       43.990     4287.193     2999.229     1935.146        0.563        0.461       15.826       47.891        9.157      346.281       24.416      865.179
08/06/2014  12:20:00       62.783        5.487       62.973       61.964       55.953       44.652     3839.499     3130.728     1993.773        0.845        0.448       63.023       37.671        0.357      345.836       23.652      865.157
08/06/2014  12:21:00       13.329       -6.147       73.852       61.886      100.877       49.454     3829.929    10176.100     2445.743        1.106        0.823       14.678       46.481       10.028      345.930       23.812      865.136
08/06/2014  12:22:00       37.268      -53.609       19.464       41.813       84.104       47.278     1748.300     7073.533     2235.227        0.785        0.553       65.290       45.848        0.493      345.795       23.583      865.131
08/06/2014  12:23:00       28.826       39.524       69.708       48.981       51.776       37.435     2399.119     2680.711     1401.355        0.687        0.324       48.919       36.124        0.545      346.285       24.423      865.125
08/06/2014  12:24:00      111.279      103.647       96.580      108.563       76.147       73.300    11786.029     5798.398     5372.844        2.770        1.148      152.072       81.156        0.285      345.651       23.331      865.114
08/06/2014  12:25:00      153.872      136.397       86.235       83.274       65.127       71.700     6934.563     4241.535     5140.875        3.301        0.816      205.622       48.010        0.055      345.656       23.340      865.116
08/06/2014  12:26:00      140.247       97.096       45.323       91.461       53.533       45.992     8365.203     2865.756     2115.254        2.225        0.667      170.578       20.869        0.015      345.873       23.713      865.124
08/06/2014  12:27:00       34.425       46.833       48.058       52.465       47.306       40.055     2752.552     2237.869     1604.408        0.614        0.330       58.124       39.216        0.455      346.142       24.178      865.116
08/06/2014  12:28:00       34.887      -58.477       23.061       62.086      108.115       44.462     3854.637    11688.768     1976.851        1.134        0.876       68.093       34.745        0.260      345.834       23.649      865.096
08/06/2014  12:29:00       77.015     -129.517       17.770       74.509       89.157       58.577     5551.583     7949.013     3431.312        1.997        0.847      150.685       56.182        0.139      345.587       23.224      865.088
08/06/2014  12:30:00      101.634       77.277       56.310       76.895       43.285       48.204     5912.871     1873.594     2323.607        1.479        0.506      127.676       45.257        0.126      345.835       23.650      865.093
08/06/2014  12:31:00      113.020       56.221       27.820       90.018       61.388       56.014     8103.214     3768.536     3137.545        1.586        0.750      126.232       42.398        0.113      345.901       23.763      865.095
08/06/2014  12:32:00       53.399       81.485       12.051       68.864       83.659       48.053     4742.191     6998.788     2309.067        1.184        0.703       97.423       47.262        0.235      345.782       23.557      865.105
08/06/2014  12:33:00      116.357       74.612       21.128       73.454       62.227       57.776     5395.439     3872.148     3338.067        1.608        0.630      138.224       28.540        0.043      345.892       23.747      865.097
08/06/2014  12:34:00      195.671      139.302       74.279       98.217       62.114       67.127     9646.575     3858.128     4506.020        4.061        0.901      240.191       62.173        0.067      345.649       23.328      865.103
08/06/2014  12:35:00      224.458      131.431       12.321      102.807       65.407       56.453    10569.244     4278.029     3186.902        4.292        0.902      260.107       51.275        0.039      345.178       22.521      865.124
08/06/2014  12:36:00       77.479       57.659       -2.979       34.208       43.667       40.250     1170.168     1906.778     1620.093        0.702        0.235       96.580       25.702        0.071      345.104       22.398      865.149
08/06/2014  12:37:00      -29.481       19.600      -24.888       52.861       28.934       16.441     2794.322      837.155      270.305        0.289        0.195       35.402       17.801        0.253      345.143       22.463      865.147
08/06/2014  12:38:00        8.190       29.328        6.721       63.401       39.613       47.085     4019.722     1569.219     2217.034        0.439        0.390       30.450       35.483        1.358      345.497       23.070      865.146
08/06/2014  12:39:00       74.733       53.771       37.609       51.981       48.025       35.663     2701.985     2306.428     1271.838        0.808        0.314       92.067       23.424        0.065      345.583       23.217      865.156
08/06/2014  12:40:00      119.243       54.958       42.200      125.868       73.540       63.335    15842.677     5408.064     4011.316        2.214        1.263      131.299       42.902        0.107      345.748       23.499      865.159
08/06/2014  12:41:00      119.164       34.085       40.020       99.061       70.405       67.278     9813.175     4956.897     4526.341        1.813        0.965      123.943       40.598        0.107      345.392       22.889      865.150
08/06/2014  12:42:00       32.564       97.113      111.983       70.547       61.156       45.672     4976.869     3740.023     2085.916        1.691        0.540      102.427       37.779        0.136      345.895       23.751      865.149
08/06/2014  12:43:00       41.630       34.982       74.017       54.678       72.349       45.074     2989.632     5234.438     2031.640        0.934        0.513       54.376       43.197        0.631      345.806       23.599      865.161
08/06/2014  12:44:00       -0.689       34.543       60.978       55.078       57.317       37.913     3033.626     3285.255     1437.432        0.633        0.388       34.549       42.970        1.547      346.122       24.143      865.150
08/06/2014  12:45:00       47.940     -106.100      -16.166       60.956       67.792       38.699     3715.635     4595.715     1497.611        1.181        0.490      116.428       40.822        0.123      345.857       23.686      865.135
08/06/2014  12:46:00       12.712      -36.667       -0.769       40.631       41.731       31.750     1650.879     1741.468     1008.046        0.295        0.220       38.808       30.113        0.602      346.012       23.953      865.130
08/06/2014  12:47:00       -6.928       39.640        0.956       29.168       43.678       35.036      850.767     1907.785     1227.516        0.280        0.199       40.241       32.276        0.643      346.139       24.172      865.131
08/06/2014  12:48:00      -66.054       77.704        1.467       54.208       67.690       43.222     2938.500     4581.951     1868.132        0.989        0.469      101.986       36.867        0.131      345.975       23.890      865.128
08/06/2014  12:49:00      -92.527       90.402      -10.804       45.704       47.143       38.118     2088.899     2222.490     1452.975        1.131        0.288      129.360       28.788        0.050      345.584       23.220      865.123
08/06/2014  12:50:00       -3.003       44.940        9.559       48.849       33.495       35.767     2386.198     1121.911     1279.297        0.345        0.239       45.040       33.207        0.544      346.025       23.977      865.118
08/06/2014  12:51:00       90.906       46.094       28.099       67.181       43.001       34.875     4513.298     1849.083     1216.245        0.938        0.379      101.924       31.317        0.094      345.847       23.669      865.120
08/06/2014  12:52:00        6.732      104.445        2.376       42.058       70.221       42.014     1768.869     4931.049     1765.162        0.971        0.423      104.662       40.656        0.151      345.854       23.683      865.103
08/06/2014  12:53:00        9.677      182.851      -23.357       32.960       77.462       38.550     1086.385     6000.372     1486.102        2.132        0.429      183.107       44.319        0.059      345.389       22.883      865.099
08/06/2014  12:54:00       77.915       83.574        8.131       54.934       71.618       42.779     3017.692     5129.207     1830.055        1.155        0.499      114.260       28.057        0.060      345.614       23.270      865.087
08/06/2014  12:55:00       28.910      140.907       -4.755       59.882       76.025       49.118     3585.802     5779.829     2412.590        1.624        0.589      143.842       46.864        0.106      345.695       23.408      865.082
08/06/2014  12:56:00      -15.154       89.598        3.292       28.946       55.242       30.455      837.882     3051.708      927.534        0.654        0.241       90.871       30.132        0.110      346.157       24.204      865.077
08/06/2014  12:57:00      -42.422      179.808      -16.220       35.394       64.819       34.888     1252.717     4201.518     1217.199        2.053        0.334      184.744       31.947        0.030      345.654       23.338      865.072
08/06/2014  12:58:00      -40.869      127.677       -3.552       33.381       66.124       35.340     1114.302     4372.441     1248.949        1.236        0.337      134.058       33.956        0.064      345.875       23.719      865.046
08/06/2014  12:59:00        2.440       83.917      -30.587       29.653       45.285       21.891      879.313     2050.768      479.230        0.570        0.170       83.952       12.773        0.023      345.426       22.948      865.037
08/06/2014  13:00:00       27.309      110.783        1.549       39.016       63.098       37.794     1522.220     3981.314     1428.413        0.998        0.347      114.099       39.284        0.119      345.665       23.359      865.024
08/06/2014  13:01:00       24.755       27.612       18.085       37.915       29.768       27.364     1437.533      886.119      748.779        0.239        0.154       37.084       17.628        0.226      346.083       24.075      865.002
08/06/2014  13:02:00       99.464       49.155       19.508       69.716       52.199       40.959     4860.374     2724.747     1677.602        1.097        0.463      110.947       24.157        0.047      345.883       23.733      864.984
08/06/2014  13:03:00       37.893      133.480      -22.593       37.770       89.009       41.679     1426.581     7922.611     1737.175        1.542        0.554      138.754       43.493        0.098      345.631       23.298      864.992
08/06/2014  13:04:00      -40.653       46.616       -6.546       44.492       67.488       32.462     1979.501     4554.677     1053.791        0.573        0.379       61.852       43.559        0.496      345.883       23.731      864.983
08/06/2014  13:05:00      -67.242        9.602       -4.631       39.550       38.342       31.051     1564.195     1470.075      964.168        0.432        0.200       67.924       19.591        0.083      345.801       23.593      864.961
08/06/2014  13:06:00       -6.741       55.982       17.200       33.041       47.949       37.056     1091.721     2299.083     1373.159        0.412        0.238       56.386       34.217        0.368      346.651       25.053      864.956
08/06/2014  13:07:00      -29.852       32.235       20.671       32.993       39.151       33.211     1088.565     1532.766     1102.985        0.304        0.186       43.934       14.300        0.106      346.525       24.835      864.957
08/06/2014  13:08:00      -18.964       42.589       20.642       30.128       57.435       24.014      907.683     3298.779      576.690        0.369        0.239       46.620       27.064        0.337      346.579       24.929      864.955
08/06/2014  13:09:00      -14.311        9.307       20.560       39.904       20.254       23.886     1592.304      410.238      570.529        0.164        0.129       17.071       24.921        2.131      346.761       25.241      864.932
08/06/2014  13:10:00     -113.609       32.770        4.000       61.552       36.924       28.674     3788.676     1363.353      822.208        0.998        0.299      118.240       35.345        0.089      345.998       23.932      864.938
08/06/2014  13:11:00      -67.459      -27.974       13.225       58.339       54.776       35.256     3403.447     3000.439     1243.014        0.658        0.382       73.029       37.659        0.266      346.198       24.273      864.935
08/06/2014  13:12:00      -62.110       17.961        9.319       53.858       52.934       27.778     2900.655     2802.001      771.619        0.537        0.324       64.655       12.942        0.040      346.207       24.289      864.934
08/06/2014  13:13:00       37.767       49.827       22.805       94.856       49.658       32.864     8997.586     2465.899     1080.046        0.848        0.627       62.522       26.065        0.174      346.213       24.299      864.934
08/06/2014  13:14:00       22.249       70.862       18.322       40.133       63.199       32.161     1610.664     3994.130     1034.337        0.624        0.332       74.273       22.432        0.091      346.309       24.463      864.925
08/06/2014  13:15:00       71.346       52.189        0.535       39.895       30.305       39.185     1591.630      918.415     1535.441        0.593        0.202       88.396       23.751        0.072      345.944       23.838      864.911
08/06/2014  13:16:00        0.776       57.811      -13.299       24.474       32.771       18.785      598.995     1073.926      352.879        0.277        0.101       57.817       16.367        0.080      345.797       23.584      864.905
08/06/2014  13:17:00       12.810      137.072        2.832       53.357       62.663       33.796     2847.019     3926.648     1142.154        1.344        0.396      137.669       26.093        0.036      346.373       24.573      864.896
08/06/2014  13:18:00       42.255      148.019       -9.778       69.824       77.701       40.394     4875.418     6037.447     1631.639        1.817        0.627      153.932       37.281        0.059      346.275       24.403      864.905
08/06/2014  13:19:00       47.084      159.209      -19.164       43.187       68.719       45.368     1865.119     4722.265     2058.279        1.829        0.432      166.025       40.540        0.060      345.789       23.569      864.924
08/06/2014  13:20:00        1.398       89.621       -6.781       35.154       53.979       36.578     1235.788     2913.770     1337.917        0.678        0.274       89.632       29.313        0.107      345.968       23.877      864.915
08/06/2014  13:21:00       -0.194       59.304       -2.820       48.091       78.253       42.275     2312.737     6123.506     1787.151        0.687        0.511       59.304       41.754        0.496      345.794       23.579      864.900
08/06/2014  13:22:00      -33.866       44.609       13.023      111.991       38.544       48.575    12541.968     1485.641     2359.482        0.984        0.819       56.008       45.673        0.665      346.020       23.967      864.872
08/06/2014  13:23:00      106.994       73.251       31.788       82.708       73.153       47.832     6840.682     5351.414     2287.869        1.615        0.724      129.666       24.968        0.037      346.328       24.497      864.848
08/06/2014  13:24:00      150.408      100.292       36.951       91.179       72.342       61.669     8313.559     5233.335     3803.054        2.569        0.867      180.779       54.437        0.091      345.947       23.841      864.837
08/06/2014  13:25:00      201.348      149.279       12.078       82.752       55.197       62.663     6847.929     3046.658     3926.704        3.839        0.691      250.649       33.862        0.018      345.746       23.493      864.804
08/06/2014  13:26:00      191.907      128.951       30.380       76.045       51.588       42.824     5782.838     2661.324     1833.869        3.233        0.514      231.207       38.169        0.027      345.690       23.399      864.803
08/06/2014  13:27:00      132.306      100.981       14.738       61.218       60.207       59.685     3747.646     3624.919     3562.299        1.942        0.547      166.439       35.589        0.046      345.868       23.704      864.783
08/06/2014  13:28:00      123.704      103.794       11.186       64.217       71.664       56.822     4123.790     5135.739     3228.750        1.934        0.624      161.480       44.131        0.075      345.788       23.566      864.789
08/06/2014  13:29:00      125.288       81.949        7.873       50.330       45.718       43.993     2533.080     2090.175     1935.391        1.452        0.328      149.709       28.016        0.035      345.795       23.580      864.784
08/06/2014  13:30:00       58.890      101.752        4.812       44.569       54.484       41.915     1986.384     2968.528     1756.827        1.028        0.336      117.565       41.151        0.123      345.965       23.872      864.765
08/06/2014  13:31:00       91.081       75.211       -6.435       51.569       37.653       32.368     2659.396     1417.715     1047.697        0.956        0.256      118.121       21.656        0.034      345.784       23.561      864.766
08/06/2014  13:32:00       18.259       69.061       12.255       49.138       37.927       38.081     2414.566     1438.460     1450.141        0.528        0.265       71.434       27.779        0.151      346.104       24.112      864.773
08/06/2014  13:33:00       19.999       54.942        8.199       40.698       35.503       31.228     1656.287     1260.449      975.203        0.369        0.195       58.469       25.294        0.187      346.132       24.161      864.768
08/06/2014  13:34:00       16.201       25.400       -0.353       18.910       26.406       25.149      357.601      697.270      632.460        0.130        0.084       30.127       23.185        0.592      346.339       24.516      864.763
08/06/2014  13:35:00       66.938       40.893        5.766       21.152       19.320       25.669      447.388      373.271      658.923        0.383        0.074       78.441       10.943        0.019      345.664       23.358      864.750
08/06/2014  13:36:00       63.377       55.684        9.429       15.111       22.350       32.129      228.351      499.536     1032.301        0.448        0.088       84.364       17.483        0.043      345.598       23.244      864.734
08/06/2014  13:37:00       64.326       64.838       73.462       30.664       24.790       23.775      940.287      614.569      565.231        0.793        0.106       91.334       13.521        0.022      345.812       23.610      864.711
08/06/2014  13:38:00        6.269       -8.378       39.097       45.413       56.699       38.493     2062.356     3214.745     1481.703        0.420        0.338       10.464       47.156       20.308      346.088       24.084      864.694
08/06/2014  13:39:00       16.715      -19.102       -3.786       28.939       57.026       20.632      837.475     3251.970      425.694        0.259        0.226       25.383       22.515        0.787      346.171       24.227      864.676
08/06/2014  13:40:00      -63.289      -31.735       22.129       57.038       46.794       30.086     3253.358     2189.662      905.185        0.592        0.317       70.800       32.149        0.206      346.334       24.507      864.654
08/06/2014  13:41:00      -75.276     -114.120        2.230       42.983       50.404       27.108     1847.498     2540.576      734.833        1.191        0.256      136.711       26.707        0.038      345.820       23.626      864.633
08/06/2014  13:42:00      -32.010       -1.276       34.198       36.089       56.070       45.784     1302.424     3143.889     2096.133        0.437        0.327       32.035       46.481        2.105      346.425       24.664      864.603
08/06/2014  13:43:00       21.613      -24.987       10.538       31.373       28.456       21.339      984.266      809.722      455.372        0.173        0.112       33.037       17.504        0.281      346.332       24.503      864.592
08/06/2014  13:44:00      -35.852      -24.395        8.581       38.787       34.605       28.614     1504.443     1197.496      818.786        0.274        0.176       43.364       25.976        0.359      346.255       24.371      864.590
08/06/2014  13:45:00      -22.357       20.593       16.870       26.671       20.371       24.931      711.358      414.996      621.564        0.148        0.087       30.396       21.611        0.505      347.165       25.938      864.580
08/06/2014  13:46:00      -37.098       91.784      -11.853       44.863       71.551       31.909     2012.670     5119.580     1018.195        0.904        0.408       98.998       31.893        0.104      346.126       24.150      864.567
08/06/2014  13:47:00       20.509       22.443       33.931       44.005       35.054       32.884     1936.462     1228.790     1081.372        0.316        0.212       30.403       23.091        0.577      347.049       25.737      864.557
08/06/2014  13:48:00      -23.385       53.530       24.595       42.560       73.884       32.381     1811.352     5458.807     1048.498        0.617        0.416       58.415       30.674        0.276      346.821       25.344      864.551
08/06/2014  13:49:00        2.993       43.729       17.275       35.574       47.814       31.119     1265.530     2286.209      968.366        0.337        0.226       43.832       29.186        0.443      346.715       25.162      864.551
08/06/2014  13:50:00       30.551       63.235        6.826       52.314       45.707       34.172     2736.767     2089.123     1167.754        0.548        0.300       70.228       23.977        0.117      346.470       24.741      864.547
08/06/2014  13:51:00       38.353      123.800        3.014       59.346       65.566       36.605     3521.928     4298.851     1339.922        1.298        0.458      129.605       39.895        0.095      346.052       24.021      864.539
08/06/2014  13:52:00       80.947       41.190       28.332       37.621       27.997       29.250     1415.321      783.840      855.583        0.605        0.153       90.824       15.449        0.029      346.066       24.046      864.532
08/06/2014  13:53:00       47.797       29.373       22.099       32.193       26.861       34.018     1036.408      721.497     1157.194        0.327        0.146       56.101       25.018        0.199      346.524       24.832      864.527
08/06/2014  13:54:00       24.960       44.291       49.149       32.680       57.140       35.415     1067.973     3264.985     1254.199        0.529        0.279       50.840       24.913        0.240      346.958       25.581      864.508
08/06/2014  13:55:00       65.891       69.364       55.232       59.807       47.507       36.303     3576.864     2256.916     1317.929        0.968        0.358       95.671       28.865        0.091      346.672       25.088      864.491
08/06/2014  13:56:00      114.048       63.413       71.906       71.783       64.605       50.931     5152.815     4173.753     2593.956        1.706        0.596      130.492       40.852        0.098      346.543       24.865      864.471
08/06/2014  13:57:00       34.119      -10.155       37.805       71.126       61.328       48.174     5058.912     3761.073     2320.728        0.692        0.557       35.598       41.372        1.351      346.770       25.256      864.442
08/06/2014  13:58:00      136.720       95.696       27.810      100.747       64.755       50.209    10149.881     4193.238     2520.942        2.274        0.843      166.883       22.592        0.018      346.595       24.955      864.442
08/06/2014  13:59:00      146.628       92.812        5.886      109.369       69.350       38.295    11961.666     4809.419     1466.512        2.419        0.912      173.533       25.841        0.022      346.577       24.923      864.434
08/06/2014  14:00:00       75.349       91.159       -1.708       77.011       68.542       45.893     5930.628     4698.014     2106.195        1.336        0.637      118.268       38.040        0.103      346.440       24.688      864.436
08/06/2014  14:01:00      193.448      133.528       37.150       84.366       71.713       54.282     7117.590     5142.738     2946.484        3.592        0.760      235.057       44.505        0.036      346.182       24.242      864.416
08/06/2014  14:02:00      126.961       67.500       54.470       90.390       88.387       73.360     8170.344     7812.317     5381.688        2.250        1.068      143.789       65.189        0.206      346.229       24.324      864.395
08/06/2014  14:03:00      127.890       99.398       46.735      113.360       89.500       75.032    12850.411     8010.320     5629.865        2.745        1.325      161.975       60.484        0.139      346.542       24.864      864.395
08/06/2014  14:04:00      172.209      137.929       10.073      107.143       71.528       63.065    11479.727     5116.319     3977.150        3.467        1.029      220.636       47.818        0.047      346.229       24.324      864.398
08/06/2014  14:05:00       68.557      124.028       -1.178       59.873       77.847       56.413     3584.720     6060.170     3182.427        1.645        0.641      141.714       41.237        0.085      346.370       24.568      864.411
08/06/2014  14:06:00       51.776      178.622      -21.582       62.479       92.687       57.948     3903.601     8590.797     3357.942        2.545        0.793      185.975       53.645        0.083      346.194       24.265      864.435
08/06/2014  14:07:00       -8.596      204.089      -27.735       29.264       79.742       24.750      856.406     6358.836      612.560        2.516        0.391      204.270       23.050        0.013      345.937       23.822      864.434
08/06/2014  14:08:00      -41.977       40.434        5.969       34.972       32.338       31.058     1223.067     1045.730      964.579        0.333        0.162       58.284       25.607        0.193      346.649       25.049      864.430
08/06/2014  14:09:00      -31.623       60.720       -6.433       37.186       48.680       30.754     1382.799     2369.773      945.802        0.471        0.235       68.461       31.998        0.218      346.492       24.779      864.423
08/06/2014  14:10:00      -28.012       10.071       -3.138       26.562       40.027       19.810      705.540     1602.160      392.416        0.180        0.135       29.767       16.216        0.297      346.433       24.676      864.402
08/06/2014  14:11:00      -92.521       69.762       -8.833       52.070       50.518       31.642     2711.335     2552.048     1001.230        0.988        0.313      115.874       38.136        0.108      346.555       24.887      864.369
08/06/2014  14:12:00     -165.363       76.935      -19.814       36.299       69.539       28.093     1317.637     4835.692      789.194        2.030        0.347      182.384       32.075        0.031      346.117       24.134      864.358
08/06/2014  14:13:00     -125.923      106.420      -24.584       44.112       54.162       28.868     1945.898     2933.574      833.348        1.675        0.286      164.869       31.851        0.037      346.316       24.475      864.341
08/06/2014  14:14:00      -87.824       91.913      -14.697       60.767       58.559       36.853     3692.596     3429.206     1358.174        1.243        0.424      127.126       38.448        0.091      346.513       24.814      864.315
08/06/2014  14:15:00      -14.934       77.084       18.239       52.994       71.814       38.065     2808.328     5157.291     1448.971        0.795        0.471       78.517       42.988        0.300      346.738       25.201      864.303
08/06/2014  14:16:00      -33.686      -57.790        9.108       64.406       49.889       37.859     4148.163     2488.874     1433.279        0.631        0.404       66.891       29.487        0.194      346.696       25.129      864.287
08/06/2014  14:17:00      -65.068      -38.208        5.519       57.974       43.885       30.556     3361.030     1925.901      933.680        0.597        0.311       75.456       21.909        0.084      346.577       24.925      864.287
08/06/2014  14:18:00      -55.357        1.004       -0.935       42.242       28.148       25.176     1784.415      792.301      633.845        0.314        0.161       55.366       23.615        0.182      346.695       25.129      864.295
08/06/2014  14:19:00       15.534       38.622       24.963       38.320       55.644       36.027     1468.453     3096.222     1297.919        0.411        0.293       41.628       37.333        0.804      346.976       25.611      864.299
08/06/2014  14:20:00       88.358       69.415       20.064       39.606       25.048       27.894     1568.621      627.381      778.092        0.800        0.149      112.364       23.174        0.043      346.180       24.241      864.285
08/06/2014  14:21:00      -44.721      162.982       -7.916       69.482       81.272       39.544     4827.687     6605.211     1563.767        2.081        0.650      169.006       38.459        0.052      346.680       25.100      864.283
08/06/2014  14:22:00     -138.574       96.306      -30.593       36.833       37.578       27.333     1356.641     1412.094      747.081        1.646        0.176      168.753       24.047        0.020      346.264       24.384      864.292
08/06/2014  14:23:00     -103.648       54.724       -8.965       55.055       58.584       36.678     3031.041     3432.065     1345.310        1.081        0.390      117.207       37.942        0.105      346.532       24.849      864.286
08/06/2014  14:24:00     -105.490      180.389      -19.178       49.458       68.575       45.074     2446.109     4702.469     2031.694        2.661        0.459      208.970       37.914        0.033      346.557       24.889      864.275
08/06/2014  14:25:00     -134.832       41.025      -18.360       45.907       66.472       29.681     2107.438     4418.500      880.973        1.380        0.370      140.935       26.637        0.036      346.286       24.422      864.274
08/06/2014  14:26:00      -53.570        5.270        5.065       73.200       47.715       34.082     5358.215     2276.744     1161.551        0.586        0.440       53.828       30.971        0.331      346.945       25.557      864.258
08/06/2014  14:27:00     -119.882      -64.568       12.335      105.881       75.181       38.346    11210.688     5652.230     1470.408        1.851        0.917      136.164       43.261        0.101      346.863       25.415      864.244
08/06/2014  14:28:00      -14.121       -7.744       19.404       53.855       47.625       36.073     2900.332     2268.126     1301.249        0.355        0.323       16.105       39.070        5.886      347.368       26.287      864.245
08/06/2014  14:29:00      -36.982       39.152        9.721       39.013       27.302       33.297     1522.050      745.396     1108.714        0.318        0.169       53.857       23.416        0.189      346.962       25.588      864.251
08/06/2014  14:30:00       -5.443       46.187       17.991       56.244       52.922       40.317     3163.396     2800.698     1625.440        0.504        0.379       46.507       36.052        0.601      347.221       26.034      864.249
08/06/2014  14:31:00      139.386       81.371       15.971       58.587       46.449       40.356     3432.399     2157.545     1628.576        1.676        0.361      161.399       35.676        0.049      346.695       25.127      864.231
08/06/2014  14:32:00      124.125       94.162       37.443       51.433       58.852       45.857     2645.322     3463.535     2102.881        1.694        0.411      155.800       23.992        0.024      346.587       24.942      864.222
08/06/2014  14:33:00       75.495       68.273       17.826       64.922       46.233       46.411     4214.883     2137.509     2153.964        0.959        0.425      101.788       24.073        0.056      346.763       25.245      864.219
08/06/2014  14:34:00      118.646       68.447       86.398      100.760       95.363       70.911    10152.487     9094.092     5028.332        2.525        1.214      136.974       54.144        0.156      346.849       25.392      864.204
08/06/2014  14:35:00       93.121      101.491       87.007       52.353       54.121       50.326     2740.820     2929.104     2532.720        1.737        0.410      137.739       34.829        0.064      346.585       24.939      864.201
08/06/2014  14:36:00       76.805       80.480       57.387       52.268       43.797       45.217     2731.969     1918.215     2044.570        1.118        0.335      111.248       31.541        0.080      346.703       25.141      864.190
08/06/2014  14:37:00      141.226      156.648      101.563      103.078       54.382       61.260    10625.147     2957.440     3752.817        3.606        0.867      210.911       48.871        0.054      346.542       24.861      864.163
08/06/2014  14:38:00       92.282       16.001       33.279       84.072       62.829       54.856     7068.167     3947.453     3009.222        1.195        0.701       93.659       41.843        0.200      346.669       25.082      864.167
08/06/2014  14:39:00       32.341      -61.761       47.319       52.224      113.656       58.361     2727.299    12917.699     3405.988        1.307        0.953       69.716       55.433        0.632      346.698       25.132      864.124
08/06/2014  14:40:00       85.289        9.580       57.681       44.595       65.234       59.766     1988.755     4255.457     3571.931        1.025        0.491       85.825       36.292        0.179      346.756       25.234      864.117
08/06/2014  14:41:00       94.857       42.577       45.927       53.539       64.165       43.037     2866.380     4117.086     1852.199        1.088        0.442      103.974       27.070        0.068      346.509       24.807      864.091
08/06/2014  14:42:00       -0.833      -50.471        7.210       82.474      119.106       41.001     6801.958    14186.270     1681.056        1.263        1.133       50.478       58.605        1.348      346.934       25.537      864.039
08/06/2014  14:43:00       19.171     -170.351       -9.710       77.989       65.306       38.745     6082.345     4264.829     1501.140        2.066        0.592      171.426       20.708        0.015      346.316       24.474      864.036
08/06/2014  14:44:00      -67.604      -71.274      -10.090       25.209       50.670       29.131      635.510     2567.454      848.624        0.690        0.203       98.236       17.338        0.031      346.448       24.703      864.032
08/06/2014  14:45:00      -48.144       46.327      -14.533       23.416       34.057       23.531      548.310     1159.879      553.728        0.347        0.113       66.813        8.712        0.017      346.376       24.580      864.011
08/06/2014  14:46:00      -48.733      -15.392       -6.896       25.832       44.521       25.167      667.280     1982.113      633.395        0.297        0.164       51.106       18.915        0.137      346.744       25.211      863.990
08/06/2014  14:47:00       -4.410       31.360       38.846       15.533       28.447       30.258      241.276      809.249      915.560        0.224        0.098       31.669       21.202        0.448      347.649       26.771      863.976
08/06/2014  14:48:00       55.524       30.526       29.702       42.864       37.553       36.200     1837.333     1410.256     1310.405        0.473        0.228       63.362       14.531        0.053      347.034       25.711      863.967
08/06/2014  14:49:00      133.684       97.538       28.589       91.419       76.396       53.121     8357.428     5836.383     2821.875        2.261        0.851      165.484       37.389        0.051      346.898       25.476      863.951
08/06/2014  14:50:00      225.440      124.204       44.066       73.717       57.540       59.384     5434.149     3310.894     3526.471        4.023        0.614      257.390       38.383        0.022      346.582       24.928      863.946
08/06/2014  14:51:00      132.129      110.295        9.898       88.840       62.511       57.144     7892.598     3907.671     3265.491        2.239        0.753      172.114       42.911        0.062      346.813       25.328      863.937
08/06/2014  14:52:00      161.364      113.495       16.727       66.896       51.931       44.870     4475.083     2696.861     2013.346        2.419        0.459      197.280       16.762        0.007      346.715       25.159      863.924
08/06/2014  14:53:00      106.237      118.506        6.080       97.502       58.679       51.969     9506.559     3443.240     2700.817        2.051        0.783      159.154       42.653        0.072      346.638       25.027      863.923
08/06/2014  14:54:00       81.408       99.352       -0.082       89.533       65.672       55.008     8016.186     4312.798     3025.909        1.592        0.768      128.445       22.703        0.031      346.566       24.904      863.913
08/06/2014  14:55:00       49.063      116.007        5.644       70.999      105.024       52.480     5040.853    11030.022     2754.145        1.736        0.941      125.956       53.902        0.183      346.784       25.279      863.907
08/06/2014  14:56:00        7.733      112.876      -13.003       67.436       66.184       37.887     4547.550     4380.299     1435.449        1.166        0.518      113.141       40.037        0.125      346.667       25.079      863.898
08/06/2014  14:57:00      -53.437       84.671      -13.508       51.182       34.384       33.148     2619.623     1182.236     1098.819        0.755        0.245      100.123       25.519        0.065      346.994       25.644      863.887
08/06/2014  14:58:00      -36.015      113.090       -7.643       65.023       63.104       34.198     4228.017     3982.157     1169.478        1.176        0.469      118.687       26.810        0.051      346.775       25.264      863.877
08/06/2014  14:59:00        8.873      116.457       -8.683       40.740       60.945       37.925     1659.752     3714.351     1438.325        1.026        0.341      116.795       36.765        0.099      346.884       25.452      863.857
08/06/2014  15:00:00      116.627       60.463       12.676       87.048       46.904       39.868     7577.412     2199.960     1589.420        1.439        0.568      131.368       28.790        0.048      346.924       25.521      863.837
08/06/2014  15:01:00        6.932      172.391      -20.598       59.076       65.239       27.518     3490.016     4256.145      757.248        1.935        0.425      172.531       28.353        0.027      346.660       25.064      863.819
08/06/2014  15:02:00      -17.630      203.292      -31.325       39.966       39.065       30.280     1597.301     1526.108      916.905        2.333        0.202      204.055       14.106        0.005      346.627       25.009      863.809
08/06/2014  15:03:00      -41.004       57.193       -2.172       43.508       50.966       30.867     1892.908     2597.519      952.770        0.520        0.272       70.374       26.001        0.137      346.972       25.604      863.795
08/06/2014  15:04:00      -10.236      118.355        8.174       27.668       66.397       43.075      765.492     4408.567     1855.450        1.060        0.351      118.797       48.787        0.169      347.102       25.827      863.767
08/06/2014  15:05:00        9.674      186.564      -15.575       41.183       62.679       34.122     1696.043     3928.601     1164.299        2.096        0.339      186.815       36.317        0.038      347.100       25.822      863.741
08/06/2014  15:06:00      -46.645      170.370      -29.145       38.004       93.995       36.929     1444.324     8835.104     1363.749        2.184        0.582      176.640       42.333        0.057      347.008       25.663      863.720
08/06/2014  15:07:00        4.015       56.449       22.120       51.785       54.051       37.774     2681.663     2921.499     1426.873        0.536        0.352       56.592       33.749        0.356      347.400       26.342      863.699
08/06/2014  15:08:00       28.808      110.417       -5.208       55.087       78.959       43.380     3034.606     6234.473     1881.829        1.210        0.558      114.113       43.462        0.145      347.049       25.736      863.687
08/06/2014  15:09:00       27.926      109.898        1.304       52.404       72.357       50.114     2746.225     5235.510     2511.388        1.167        0.525      113.391       43.206        0.145      347.034       25.711      863.668
08/06/2014  15:10:00       50.160       87.732       -1.428       43.861       60.366       44.143     1923.801     3644.032     1948.640        0.886        0.376      101.058       30.033        0.088      346.798       25.304      863.649
08/06/2014  15:11:00      100.792       49.399       37.556       90.764       77.067       52.464     8238.044     5939.356     2752.491        1.547        0.846      112.246       25.857        0.053      347.101       25.825      863.622
08/06/2014  15:12:00      120.128      109.653       77.208       95.284       64.886       70.918     9079.052     4210.203     5029.322        2.536        0.916      162.648       60.648        0.139      346.837       25.370      863.611
08/06/2014  15:13:00       51.191       70.558       28.228       55.434       50.197       53.164     3072.907     2519.740     2826.411        0.841        0.421       87.172       40.608        0.217      346.859       25.410      863.599
08/06/2014  15:14:00       33.712      141.137      -15.779       58.062       94.152       42.303     3371.206     8864.590     1789.531        1.766        0.701      145.108       53.890        0.138      346.686       25.108      863.582
08/06/2014  15:15:00       13.156      187.534      -24.068       72.058       96.816       40.540     5192.335     9373.393     1643.488        2.606        0.810      187.994       42.150        0.050      346.932       25.532      863.563
08/06/2014  15:16:00      164.341      129.981       -5.509      104.245       67.872       46.744    10867.078     4606.580     2185.035        3.079        0.883      209.530       42.421        0.041      346.750       25.219      863.570
08/06/2014  15:17:00       64.426       57.414        8.178       69.918       33.598       30.784     4888.510     1128.851      947.642        0.724        0.348       86.296       16.184        0.035      346.647       25.045      863.578
08/06/2014  15:18:00       54.879       -6.260       16.475       61.800       46.035       24.876     3819.295     2119.233      618.834        0.494        0.328       55.235       15.238        0.076      346.934       25.539      863.550
08/06/2014  15:19:00       66.017        6.260       48.174       68.922       78.430       39.448     4750.270     6151.262     1556.183        0.959        0.623       66.313       49.554        0.558      346.795       25.299      863.535
08/06/2014  15:20:00       17.645       14.217       36.224       24.964       31.553       29.419      623.178      995.604      865.480        0.215        0.124       22.660       24.494        1.168      346.926       25.525      863.524
08/06/2014  15:21:00        8.000      -22.293       21.920       27.287       28.377       25.778      744.593      805.281      664.502        0.163        0.111       23.685       19.397        0.671      347.213       26.020      863.508
08/06/2014  15:22:00       56.167      -54.756       25.882       65.304       98.523       58.947     4264.630     9706.713     3474.784        1.213        0.872       78.441       68.401        0.760      347.134       25.883      863.486
08/06/2014  15:23:00       26.125     -120.067      -20.083       72.034       84.880       53.938     5188.946     7204.647     2909.305        1.540        0.765      122.876       58.519        0.227      347.016       25.677      863.468
08/06/2014  15:24:00      -28.275      -31.145       -2.524       41.470       42.459       27.963     1719.726     1802.805      781.947        0.304        0.215       42.065       25.397        0.365      347.339       26.237      863.470
08/06/2014  15:25:00        5.641       16.741       34.843       25.508       31.895       45.948      650.647     1017.307     2111.225        0.265        0.189       17.665       29.967        2.878      347.348       26.254      863.476
08/06/2014  15:26:00       66.709       69.337       36.080       47.221       29.655       38.191     2229.841      879.397     1458.558        0.756        0.228       96.218       34.276        0.127      346.989       25.634      863.472
08/06/2014  15:27:00       82.539       88.402       -5.310       71.013       55.685       51.573     5042.855     3100.764     2659.807        1.273        0.540      120.945       36.416        0.091      347.018       25.683      863.480
08/06/2014  15:28:00      -71.582       87.177      -13.776       35.790       42.853       34.774     1280.959     1836.365     1209.251        0.862        0.216      112.800       20.986        0.035      347.200       25.996      863.484
08/06/2014  15:29:00      -19.547       43.122       24.175       43.102       44.856       38.353     1857.743     2012.094     1470.965        0.408        0.267       47.345       27.677        0.342      347.692       26.846      863.471
08/06/2014  15:30:00     -104.986      140.501      -24.583       60.727       66.023       37.340     3687.793     4359.041     1394.280        2.040        0.472      175.393       34.571        0.039      347.155       25.918      863.472
08/06/2014  15:31:00      -26.894      142.215       -9.252       55.737       60.255       34.035     3106.587     3630.691     1158.401        1.446        0.395      144.735       38.326        0.070      346.939       25.548      863.481
08/06/2014  15:32:00       21.189      103.992      -24.737       34.946       50.568       28.283     1221.254     2557.129      799.934        0.823        0.229      106.129       20.332        0.037      347.064       25.763      863.474
08/06/2014  15:33:00       18.194       19.800       35.223       49.307       44.194       31.760     2431.198     1953.123     1008.715        0.368        0.270       26.890       25.071        0.869      347.557       26.613      863.464
08/06/2014  15:34:00       33.887       60.598       17.985       47.794       53.666       38.098     2284.246     2880.054     1451.452        0.588        0.331       69.429       30.617        0.194      347.261       26.103      863.474
08/06/2014  15:35:00      -15.060       12.496        2.782       32.376       24.843       37.076     1048.182      617.166     1374.625        0.171        0.152       19.570       19.040        0.947      347.391       26.325      863.476
08/06/2014  15:36:00      105.412       88.592       17.206       76.899       53.801       49.372     5913.528     2894.572     2437.639        1.525        0.562      137.696       44.196        0.103      346.970       25.600      863.479
08/06/2014  15:37:00       80.275       62.306       -1.458       79.963       58.338       40.902     6394.015     3403.320     1672.974        1.090        0.574      101.618       33.438        0.108      347.280       26.134      863.471
08/06/2014  15:38:00       82.598       32.812       16.357       52.399       52.051       39.692     2745.689     2709.284     1575.439        0.760        0.352       88.877       21.474        0.058      347.386       26.318      863.466
08/06/2014  15:39:00       -8.377      116.698      -20.114       34.800       38.737       20.903     1211.047     1500.540      436.919        0.862        0.157      116.998       16.579        0.020      347.038       25.718      863.464
08/06/2014  15:40:00      -17.653      135.414      -15.612       28.818       59.039       27.348      830.478     3485.559      747.915        1.198        0.253      136.560       32.794        0.058      346.949       25.565      863.467
08/06/2014  15:41:00      -24.182      117.872      -25.821       31.912       27.709       15.031     1018.354      767.814      225.927        0.858        0.101      120.327        8.902        0.005      346.855       25.402      863.463
08/06/2014  15:42:00       33.831       48.241        4.287       45.826       46.730       34.802     2099.980     2183.678     1211.167        0.449        0.275       58.921       30.114        0.261      347.138       25.889      863.452
08/06/2014  15:43:00      -11.574       17.966       -5.443       27.893       28.445       14.805      778.033      809.138      219.203        0.115        0.090       21.371        5.227        0.060      347.142       25.897      863.438
08/06/2014  15:44:00      -65.208      106.557        5.820       46.901       58.562       36.639     2199.675     3429.491     1342.412        1.130        0.349      124.926       28.555        0.052      347.435       26.402      863.447
08/06/2014  15:45:00      -49.983      181.549      -19.655       51.836       99.906       33.849     2687.007     9981.244     1145.765        2.483        0.691      188.304       33.227        0.031      347.109       25.839      863.455
08/06/2014  15:46:00       -3.863       92.493       -2.399       54.504       64.197       34.201     2970.677     4121.246     1169.709        0.842        0.413       92.574       34.384        0.138      347.252       26.087      863.462
08/06/2014  15:47:00       23.059       33.863       11.509       42.156       39.397       31.941     1777.090     1552.113     1020.242        0.308        0.217       40.969       21.658        0.279      347.354       26.264      863.466
08/06/2014  15:48:00       13.157       57.702       76.080       54.472       40.856       26.867     2967.218     1669.197      721.816        0.732        0.268       59.182       18.737        0.100      347.489       26.496      863.467
08/06/2014  15:49:00        3.111       46.919       18.010       52.279       82.205       40.329     2733.055     6757.742     1626.431        0.682        0.556       47.022       40.294        0.734      347.225       26.040      863.454
08/06/2014  15:50:00      -85.027       52.793       -2.885       76.240       53.140       34.109     5812.572     2823.898     1163.451        0.991        0.490      100.083       35.350        0.125      347.072       25.775      863.462
08/06/2014  15:51:00      -10.582      103.264       -9.449       73.872       48.068       33.909     5457.038     2310.554     1149.832        0.989        0.446      103.805       32.933        0.101      347.046       25.732      863.451
08/06/2014  15:52:00       83.151       62.299        3.183       39.827       45.766       39.671     1586.174     2094.543     1573.812        0.803        0.263      103.900       28.542        0.075      346.800       25.308      863.429
08/06/2014  15:53:00       79.683       61.196       22.986       48.150       22.251       24.770     2318.455      495.100      613.552        0.702        0.171      100.471       20.914        0.043      346.658       25.066      863.402
08/06/2014  15:54:00      -24.430       44.050      -16.604       18.668       20.820       12.264      348.498      433.458      150.408        0.187        0.047       50.371        7.664        0.023      346.698       25.131      863.380
08/06/2014  15:55:00      -64.769        3.167       -6.870       14.697       19.006       19.778      216.000      361.242      391.171        0.261        0.048       64.847       11.117        0.029      346.821       25.345      863.373
08/06/2014  15:56:00      -80.569       21.103      -10.684       26.537       31.759       22.694      704.190     1008.643      515.040        0.464        0.111       83.287       13.195        0.025      346.930       25.533      863.360
08/06/2014  15:57:00      -50.539      -15.255       13.061       86.615       35.603       24.446     7502.230     1267.554      597.625        0.616        0.468       52.791       32.397        0.377      347.291       26.154      863.349
08/06/2014  15:58:00     -153.703      -89.138       -5.756       67.111       67.035       34.621     4503.852     4493.699     1198.615        2.090        0.510      177.680       40.966        0.053      346.925       25.522      863.339
08/06/2014  15:59:00     -133.976      -17.264      -11.648       48.374       66.450       33.155     2340.072     4415.569     1099.265        1.312        0.393      135.084       25.114        0.035      347.071       25.775      863.343
08/06/2014  16:00:00     -137.610      -90.322       -5.507       44.759       40.985       23.921     2003.338     1679.803      572.211        1.569        0.213      164.605       23.530        0.020      346.660       25.066      863.356
08/06/2014  16:01:00      -96.392      -53.645       -1.223       64.425       49.223       27.816     4150.617     2422.857      773.731        0.976        0.367      110.314       35.912        0.106      346.894       25.468      863.361
08/06/2014  16:02:00        6.508       62.479       12.756       34.385       72.927       30.586     1182.304     5318.368      935.510        0.577        0.372       62.817       29.239        0.217      347.174       25.951      863.355
08/06/2014  16:03:00       63.354      112.700       -3.735       35.963       63.156       36.602     1293.365     3988.724     1339.672        1.167        0.331      129.287       20.841        0.026      346.790       25.291      863.350
08/06/2014  16:04:00      -26.716       34.182       -5.374       40.233       22.606       22.987     1618.657      511.019      528.392        0.228        0.133       43.384       15.354        0.125      347.136       25.886      863.318
08/06/2014  16:05:00       -9.203       -2.656        5.655       34.093       40.832       19.713     1162.339     1667.246      388.600        0.167        0.161        9.579       13.245        1.912      347.277       26.130      863.300
08/06/2014  16:06:00      -28.051      -33.661        5.545       33.258       30.876       23.682     1106.089      953.325      560.822        0.228        0.131       43.817       23.514        0.288      347.057       25.750      863.297
08/06/2014  16:07:00      -22.619       45.008        6.555       28.422       34.836       23.118      807.804     1213.558      534.429        0.257        0.128       50.372       19.957        0.157      347.265       26.106      863.290
08/06/2014  16:08:00      -39.074       91.978       13.378       51.999       69.001       34.928     2703.935     4761.093     1219.945        0.942        0.434       99.933       36.299        0.132      347.250       26.084      863.315
08/06/2014  16:09:00      -20.350      225.460      -28.179       69.892       89.934       45.478     4884.953     8088.095     2068.241        3.354        0.752      226.376       49.149        0.047      346.964       25.587      863.313
08/06/2014  16:10:00       24.524      168.502      -21.129       69.845      114.078       47.258     4878.379    13013.782     2233.310        2.478        1.006      170.277       53.341        0.098      347.020       25.685      863.303
08/06/2014  16:11:00      112.188       32.595        8.565       48.231       53.731       33.183     2326.251     2887.010     1101.138        1.002        0.316      116.827       13.055        0.012      347.160       25.929      863.293
08/06/2014  16:12:00       90.175       61.703       15.391       40.973       38.343       27.901     1678.755     1470.150      778.444        0.805        0.196      109.265       15.343        0.020      346.928       25.529      863.270
08/06/2014  16:13:00       58.157       42.169       19.029       53.068       40.134       25.281     2816.230     1610.714      639.140        0.529        0.253       71.836       11.432        0.025      347.179       25.961      863.260
08/06/2014  16:14:00       68.871       60.988       14.748       92.203       52.454       35.761     8501.476     2751.423     1278.830        1.060        0.627       91.993       26.675        0.084      347.106       25.835      863.252
08/06/2014  16:15:00        6.972      120.027      -17.702       38.824       42.340       21.418     1507.285     1792.658      458.723        0.926        0.188      120.229       19.781        0.027      347.112       25.846      863.250
08/06/2014  16:16:00      -32.935       83.378      -11.907       36.290       35.664       21.351     1316.999     1271.926      455.849        0.561        0.152       89.647       15.617        0.030      347.156       25.921      863.239
08/06/2014  16:17:00      -62.302       37.837       11.112       90.495       48.410       39.772     8189.377     2343.489     1581.851        0.877        0.606       72.892       52.309        0.515      347.182       25.966      863.216
08/06/2014  16:18:00      -55.214      138.165      -12.074       99.684      107.414       52.037     9936.902    11537.666     2707.890        2.323        1.209      148.789       55.481        0.139      347.146       25.902      863.209
08/06/2014  16:19:00     -145.225      123.522      -28.161       68.787       66.346       39.540     4731.627     4401.754     1563.394        2.392        0.535      190.652       31.907        0.028      346.937       25.542      863.179
08/06/2014  16:20:00      -97.141       69.956       -3.824       48.570       54.200       36.524     2359.046     2937.597     1333.988        1.049        0.332      119.709       35.949        0.090      347.166       25.938      863.148
08/06/2014  16:21:00      -70.946      144.395       -9.744       59.547       57.557       46.805     3545.819     3312.781     2190.755        1.751        0.452      160.882       37.939        0.056      347.332       26.223      863.140
08/06/2014  16:22:00     -154.823       37.630      -17.544       61.675       42.517       27.000     3803.818     1807.670      729.004        1.602        0.317      159.331       28.319        0.032      346.987       25.629      863.114
08/06/2014  16:23:00       30.295       86.264        8.898       51.630       78.173       40.677     2665.623     6111.061     1654.613        0.943        0.522       91.429       41.917        0.210      347.454       26.435      863.099
08/06/2014  16:24:00      -83.709      137.382      -26.581       54.816       79.603       47.086     3004.784     6336.621     2217.091        1.907        0.578      160.876       30.444        0.036      347.309       26.184      863.086
08/06/2014  16:25:00      -54.222       26.564       -3.186       47.308       26.526       38.006     2238.088      703.610     1444.480        0.402        0.219       60.380       35.210        0.340      347.396       26.336      863.065
08/06/2014  16:26:00      -55.374       30.705      -17.465       43.906       62.525       22.993     1927.745     3909.427      528.679        0.534        0.318       63.318       17.421        0.076      347.225       26.041      863.048
08/06/2014  16:27:00      -29.164       84.453      -13.262       43.423       77.939       26.076     1885.559     6074.431      679.967        0.840        0.432       89.347       25.577        0.082      347.141       25.894      863.047
08/06/2014  16:28:00      -28.949       88.387       -7.177       30.339       46.053       31.079      920.457     2120.898      965.922        0.635        0.200       93.007       26.614        0.082      347.172       25.948      863.037
08/06/2014  16:29:00      -79.368       97.953        0.416       58.431      108.724       48.414     3414.185    11820.850     2343.953        1.673        0.879      126.072       33.140        0.069      347.385       26.316      863.021
08/06/2014  16:30:00     -101.543       87.598        2.991      114.914       89.483       49.299    13205.194     8007.209     2430.398        2.081        1.182      134.106       69.117        0.266      347.400       26.340      863.011
08/06/2014  16:31:00     -199.452      199.244      -32.235       84.707       90.521       56.055     7175.330     8193.981     3142.170        4.951        0.926      281.921       57.639        0.042      346.996       25.640      863.026
08/06/2014  16:32:00     -183.309      124.215      -30.082       77.754       61.868       41.204     6045.762     3827.607     1697.763        3.075        0.579      221.431       33.720        0.023      346.967       25.592      863.022
08/06/2014  16:33:00     -131.630      106.313      -23.117       49.863       68.033       33.254     2486.296     4628.491     1105.822        1.869        0.411      169.201       35.216        0.043      346.926       25.522      863.020
08/06/2014  16:34:00      -91.142      143.170      -14.112       62.385       64.075       34.012     3891.827     4105.589     1156.833        1.908        0.458      169.719       35.051        0.043      346.982       25.621      863.012
08/06/2014  16:35:00      -91.792      113.786      -12.919       64.522       53.621       28.370     4163.058     2875.159      804.844        1.469        0.392      146.195       17.097        0.014      346.954       25.573      862.991
08/06/2014  16:36:00     -159.109      188.519      -31.581       59.775       70.717       41.626     3573.080     5000.885     1732.740        3.608        0.515      246.688       39.126        0.025      346.897       25.471      863.004
08/06/2014  16:37:00     -127.293       79.816      -19.606       47.027       35.354       26.706     2211.523     1249.934      713.199        1.357        0.209      150.247       22.676        0.023      347.033       25.708      862.988
08/06/2014  16:38:00      -82.707       73.696       -8.488       55.295       37.705       30.308     3057.577     1421.644      918.574        0.887        0.270      110.777       31.059        0.079      347.178       25.958      862.969
08/06/2014  16:39:00     -111.957       58.238      -18.930       48.991       58.936       30.412     2400.140     3473.483      924.911        1.154        0.340      126.198       21.771        0.030      347.164       25.935      862.954
08/06/2014  16:40:00      -24.475      246.286      -30.807       64.423       56.971       32.580     4150.316     3245.663     1061.462        3.533        0.423      247.499       26.201        0.011      346.876       25.434      862.956
08/06/2014  16:41:00      -78.606      176.796      -24.667       54.003       49.338       28.077     2916.337     2434.260      788.294        2.209        0.307      193.484       22.581        0.014      346.913       25.500      862.957
08/06/2014  16:42:00      -92.201       96.643      -26.032       45.074       32.517       22.997     2031.655     1057.335      528.846        1.107        0.181      133.570       14.932        0.012      347.037       25.715      862.956
08/06/2014  16:43:00      -66.562       56.922       -9.454       39.250       35.297       25.510     1540.549     1245.874      650.772        0.560        0.172       87.583       22.250        0.065      347.130       25.877      862.952
08/06/2014  16:44:00      -62.305      107.553       -9.943       48.173       51.001       41.641     2320.602     2601.138     1733.995        1.110        0.333      124.297       35.795        0.083      347.121       25.861      862.957
08/06/2014  16:45:00      -59.678      128.757      -12.713       52.385       49.202       33.669     2744.149     2420.814     1133.601        1.330        0.315      141.915       33.682        0.056      346.975       25.608      862.970
08/06/2014  16:46:00      -56.159       70.543       -2.311       36.457       44.704       34.222     1329.115     1998.462     1171.147        0.632        0.225       90.167       27.644        0.094      347.271       26.120      862.972
08/06/2014  16:47:00     -127.903      140.203      -36.173       59.546       83.760       35.113     3545.746     7015.663     1232.913        2.456        0.590      189.779       39.437        0.043      347.044       25.725      862.978
08/06/2014  16:48:00     -122.439      166.296      -30.142       49.631       52.280       34.678     2463.270     2733.168     1202.553        2.498        0.320      206.508       29.844        0.021      346.966       25.592      862.984
08/06/2014  16:49:00      -56.915      142.539      -18.334       47.931       36.737       21.407     2297.390     1349.642      458.246        1.400        0.205      153.482       15.977        0.011      346.851       25.396      862.979
08/06/2014  16:50:00       -5.423       75.766       -2.268       23.891       53.448       23.308      570.789     2856.685      543.247        0.487        0.199       75.960       23.413        0.095      347.000       25.653      862.967
08/06/2014  16:51:00       22.555       40.093        7.536       68.430      130.325       39.701     4682.601    16984.666     1576.180        1.270        1.162       46.002       53.676        1.361      346.798       25.305      862.946
08/06/2014  16:52:00      -18.713      -81.074        9.248       77.314       53.173       28.963     5977.417     2827.326      838.867        0.832        0.482       83.206       24.641        0.088      347.098       25.820      862.923
08/06/2014  16:53:00      -94.807       -5.371       -5.707       46.056       43.090       32.563     2121.133     1856.738     1060.331        0.704        0.252       94.959       26.024        0.075      347.329       26.219      862.919
08/06/2014  16:54:00      -88.632       -4.592      -13.055       42.707       27.419       20.741     1823.920      751.821      430.191        0.553        0.150       88.751       17.237        0.038      347.091       25.810      862.919
08/06/2014  16:55:00     -110.624      -18.169      -10.614       39.438       30.677       26.846     1555.369      941.081      720.703        0.795        0.161      112.106       19.659        0.031      347.049       25.737      862.922
08/06/2014  16:56:00     -143.304      -24.239       -0.992       38.236       30.055       20.509     1461.991      903.320      420.616        1.195        0.139      145.339       17.031        0.014      347.069       25.772      862.930
08/06/2014  16:57:00     -171.336      -76.698      -13.698       71.652       50.860       28.459     5133.959     2586.779      809.897        2.198        0.427      187.720       14.600        0.006      346.911       25.499      862.936
08/06/2014  16:58:00     -133.816      -99.800        7.695      124.945       76.297       53.523    15611.335     5821.190     2864.683        2.611        1.215      166.934       55.940        0.112      347.088       25.802      862.932
08/06/2014  16:59:00     -127.665        5.717       -9.457       73.185       60.983       38.004     5356.042     3718.904     1444.297        1.347        0.526      127.793       23.301        0.033      347.017       25.682      862.928
08/06/2014  17:00:00      -43.395       -1.558        6.568       46.562       52.706       29.427     2168.008     2777.937      865.935        0.387        0.291       43.423       22.850        0.277      347.245       26.075      862.942
08/06/2014  17:01:00     -160.671      -30.820      -12.657       61.694       44.957       29.297     3806.169     2021.115      858.338        1.680        0.334      163.600       24.362        0.022      347.057       25.749      862.939
08/06/2014  17:02:00     -187.677        4.519      -20.925       68.205       65.929       30.110     4651.939     4346.613      906.631        2.279        0.495      187.731       32.295        0.030      346.984       25.622      862.938
08/06/2014  17:03:00     -160.737       53.387      -18.671       72.388       50.021       26.516     5239.981     2502.124      703.118        1.874        0.422      169.371       25.193        0.022      346.991       25.635      862.942
08/06/2014  17:04:00     -170.030       42.050      -12.174       55.030       36.952       18.976     3028.275     1365.470      360.093        1.779        0.238      175.152       12.415        0.005      346.960       25.581      862.943
08/06/2014  17:05:00      -73.932      163.958      -14.121       67.477       73.264       42.417     4553.207     5367.560     1799.214        2.213        0.586      179.856       40.948        0.052      346.986       25.625      862.942
08/06/2014  17:06:00     -105.871       64.109       -1.493       89.896       78.464       43.466     8081.328     6156.675     1889.303        1.572        0.806      123.768       41.496        0.112      347.047       25.730      862.943
08/06/2014  17:07:00      -48.448      124.956       -0.439       39.799       72.003       38.774     1583.943     5184.374     1503.454        1.311        0.414      134.019       36.090        0.073      346.963       25.588      862.954
08/06/2014  17:08:00      -96.104       90.840       -7.878       59.372       50.916       50.268     3525.058     2592.480     2526.831        1.310        0.432      132.242       34.703        0.069      347.053       25.743      862.964
08/06/2014  17:09:00     -116.525      118.384      -30.121       45.720       75.513       34.060     2090.320     5702.255     1160.094        1.872        0.448      166.111       29.316        0.031      346.995       25.641      862.985
08/06/2014  17:10:00     -108.625      121.214      -14.756       74.749       71.180       42.721     5587.368     5066.610     1825.125        1.959        0.624      162.764       42.400        0.068      346.989       25.633      862.994
08/06/2014  17:11:00     -161.486      121.620      -35.045       52.984       59.410       33.157     2807.331     3529.516     1099.373        2.477        0.372      202.161       30.178        0.022      346.847       25.388      863.014
08/06/2014  17:12:00      -46.931      129.234      -17.395       42.704       40.362       26.094     1823.631     1629.109      680.877        1.167        0.207      137.492       20.282        0.022      346.840       25.377      863.014
08/06/2014  17:13:00      -17.652       48.937      -11.275       23.358       48.584       17.265      545.609     2360.413      298.068        0.302        0.160       52.023       12.874        0.061      346.927       25.527      863.011
08/06/2014  17:14:00      -55.646       49.140       -4.788       39.069       64.632       27.531     1526.421     4177.357      757.966        0.600        0.323       74.238       33.241        0.200      346.961       25.584      863.015
08/06/2014  17:15:00      -28.237       82.976        7.553       21.586       39.758       26.307      465.957     1580.672      692.064        0.524        0.137       87.649       21.422        0.060      346.978       25.614      863.003
08/06/2014  17:16:00      -62.174       76.686       -8.501       28.445       42.292       23.968      809.092     1788.610      574.467        0.649        0.159       98.724       22.246        0.051      346.949       25.564      862.988
08/06/2014  17:17:00      -17.478       30.444        9.292       19.366       41.206       17.152      375.026     1697.958      294.190        0.184        0.118       35.105       21.863        0.388      347.034       25.711      862.972
08/06/2014  17:18:00      -64.730       36.635      -11.510       36.674       38.215       21.606     1344.980     1460.361      466.814        0.447        0.164       74.378       23.100        0.096      346.888       25.461      862.958
08/06/2014  17:19:00      -90.021       33.595        0.086       78.775       37.787       33.687     6205.479     1427.841     1134.795        0.900        0.438       96.085       40.948        0.182      346.878       25.441      862.944
08/06/2014  17:20:00      -43.778       61.567        6.552       42.155       47.206       32.975     1777.020     2228.394     1087.349        0.542        0.255       75.545       30.943        0.168      346.946       25.559      862.932
08/06/2014  17:21:00     -153.240       18.106       -6.798       82.957       55.591       45.790     6881.838     3090.344     2096.747        1.796        0.603      154.306       37.738        0.060      346.873       25.432      862.917
08/06/2014  17:22:00      -59.211      110.551      -12.579       31.193       39.632       27.878      972.975     1570.710      777.194        0.960        0.166      125.409       22.061        0.031      346.853       25.398      862.925
08/06/2014  17:23:00      -20.653       66.330      -16.834       27.707       28.586       20.711      767.691      817.162      428.942        0.356        0.101       69.471       11.190        0.026      346.922       25.517      862.920
08/06/2014  17:24:00      -12.655      133.737      -19.955       45.467       34.991       25.566     2067.241     1224.365      653.602        1.119        0.197      134.334       22.359        0.028      346.893       25.468      862.920
08/06/2014  17:25:00      -25.716      110.176       -1.558       40.110       65.098       32.445     1608.816     4237.762     1052.684        0.985        0.345      113.137       21.807        0.037      346.942       25.552      862.919
08/06/2014  17:26:00      -34.669      -12.171       12.392       33.017       33.431       21.050     1090.107     1117.631      443.120        0.208        0.133       36.743       14.791        0.162      347.020       25.686      862.920
08/06/2014  17:27:00     -105.653       34.462      -22.372       39.062       32.372       21.449     1525.877     1047.970      460.043        0.794        0.152      111.131       16.350        0.022      346.884       25.453      862.920
08/06/2014  17:28:00      -61.085       19.068       -9.584       19.070       25.178       16.513      363.646      633.953      272.692        0.273        0.064       63.992        3.537        0.003      346.978       25.614      862.915
08/06/2014  17:29:00     -121.410       88.152      -30.927       46.087       54.617       31.058     2124.030     2982.992      964.622        1.477        0.304      150.037       27.612        0.034      346.935       25.541      862.914
08/06/2014  17:30:00     -127.306       87.167      -13.190       70.027       65.110       31.863     4903.733     4239.339     1015.252        1.707        0.508      154.288       31.133        0.041      346.882       25.448      862.904
08/06/2014  17:31:00     -156.470      187.759      -34.064       57.433       61.000       40.925     3298.601     3721.055     1674.895        3.479        0.435      244.410       38.880        0.025      346.767       25.246      862.914
08/06/2014  17:32:00      -49.175      189.790      -15.560       38.038       63.530       24.559     1446.867     4036.036      603.161        2.238        0.304      196.057       15.999        0.007      346.802       25.312      862.899
08/06/2014  17:33:00      -60.386       27.641        3.764       45.688       73.732       26.552     2087.415     5436.400      705.006        0.633        0.411       66.412       11.950        0.032      346.941       25.551      862.883
08/06/2014  17:34:00      -73.615        1.648       -6.045       52.800       59.989       38.442     2787.815     3598.729     1477.751        0.666        0.393       73.633       28.659        0.151      347.023       25.691      862.889
08/06/2014  17:35:00      -88.924       -3.700      -12.188       45.039       54.738       25.301     2028.467     2996.274      640.154        0.687        0.283       89.001       13.525        0.023      346.940       25.550      862.887
08/06/2014  17:36:00     -101.188       -8.712       -1.457       68.975       51.296       35.134     4757.575     2631.295     1234.376        0.947        0.431      101.563       39.147        0.149      347.009       25.667      862.884
08/06/2014  17:37:00     -172.200      -36.536       -7.769       82.448       53.624       36.484     6797.722     2875.564     1331.069        2.102        0.550      176.034       37.103        0.044      346.924       25.518      862.891
08/06/2014  17:38:00     -118.722       12.601      -14.751       68.450       59.536       25.434     4685.375     3544.536      646.899        1.167        0.444      119.389       19.908        0.028      346.878       25.441      862.887
08/06/2014  17:39:00     -135.226       15.307      -21.915       33.944       41.030       19.261     1152.216     1683.466      371.003        1.110        0.160      136.090       13.785        0.010      346.893       25.468      862.887
08/06/2014  17:40:00      -35.508      -20.990       -5.740       60.585       44.489       29.508     3670.598     1979.266      870.735        0.413        0.326       41.248       22.532        0.298      346.969       25.597      862.873
08/06/2014  17:41:00      -66.255        0.810       -7.346       51.708       89.752       33.726     2673.742     8055.365     1137.473        0.815        0.593       66.260       31.559        0.227      346.885       25.453      862.860
08/06/2014  17:42:00     -132.908       20.710      -15.823       74.133      115.441       29.790     5495.700    13326.619      887.471        1.902        0.985      134.512       18.293        0.018      346.838       25.373      862.863
08/06/2014  17:43:00     -173.966      -81.736       -0.289       78.303       46.682       37.821     6131.400     2179.226     1430.459        2.334        0.487      192.210       37.420        0.038      346.828       25.353      862.866
08/06/2014  17:44:00     -213.188       -7.601      -21.541       31.724       31.872       26.110     1006.432     1015.851      681.711        2.434        0.135      213.324       22.839        0.011      346.822       25.344      862.870
08/06/2014  17:45:00     -177.429      -40.400       -8.972       54.353       49.877       26.571     2954.206     2487.666      706.016        1.967        0.307      181.970       28.574        0.025      346.868       25.423      862.887
08/06/2014  17:46:00      -80.979       -0.635       -3.673       47.452       27.474       19.479     2251.731      754.830      379.420        0.498        0.169       80.982       19.707        0.059      346.926       25.526      862.910
08/06/2014  17:47:00        0.206      -44.380       10.394       30.504       63.267       16.875      930.499     4002.776      284.756        0.365        0.261       44.380       13.900        0.098      347.071       25.774      862.910
08/06/2014  17:48:00      -34.812      -59.056       -2.668       34.370       35.140       23.125     1181.269     1234.816      534.745        0.383        0.148       68.553       19.695        0.083      346.841       25.378      862.920
08/06/2014  17:49:00      -61.811      -85.444       -3.130       46.799       73.332       27.270     2190.144     5377.554      743.659        0.972        0.416      105.458       24.236        0.053      346.896       25.473      862.918
08/06/2014  17:50:00        3.693      -85.997        5.160       43.438       63.787       21.658     1886.873     4068.833      469.047        0.693        0.321       86.076       16.695        0.038      346.882       25.449      862.910
08/06/2014  17:51:00      -58.680      -34.184        8.940       62.704       33.081       29.013     3931.826     1094.325      841.772        0.528        0.293       67.911       33.029        0.237      346.919       25.513      862.917
08/06/2014  17:52:00      -55.945      -55.276       -4.493       26.843       18.073       15.901      720.552      326.633      252.831        0.375        0.065       78.646        7.463        0.009      346.883       25.449      862.912
08/06/2014  17:53:00      -88.805        4.227       -9.486       87.108       42.959       30.016     7587.860     1845.483      900.972        0.916        0.517       88.906       30.349        0.117      347.047       25.732      862.916
08/06/2014  17:54:00     -243.112       -2.150      -17.149      109.542       77.971       43.486    11999.388     6079.484     1891.062        3.968        0.998      243.122       49.601        0.042      346.880       25.444      862.905
08/06/2014  17:55:00     -209.321      -75.940      -20.434       58.529       66.265       39.141     3425.650     4391.008     1532.010        2.967        0.467      222.671       34.448        0.024      346.903       25.481      862.895
08/06/2014  17:56:00     -230.909       36.118      -17.880       73.705       57.717       38.247     5432.427     3331.246     1462.820        3.258        0.511      233.717       28.805        0.015      346.916       25.505      862.880
08/06/2014  17:57:00     -153.000      -40.738       -1.547       79.390       80.241       43.414     6302.710     6438.688     1884.810        1.985        0.731      158.331       45.468        0.082      346.950       25.564      862.877
08/06/2014  17:58:00     -179.681       -2.587       -9.398       80.039       51.435       30.721     6406.184     2645.555      943.750        2.119        0.500      179.699       31.373        0.030      346.938       25.544      862.887
08/06/2014  17:59:00     -226.498     -124.625      -13.077       97.948       79.708       37.137     9593.785     6353.344     1379.132        4.216        0.866      258.520       43.258        0.028      346.873       25.430      862.886
08/06/2014  18:00:00     -230.166      -25.080      -11.136       60.493       58.968       38.024     3659.434     3477.258     1445.815        3.115        0.429      231.528       32.735        0.020      346.869       25.423      862.889
08/06/2014  18:01:00     -142.999      -46.714        1.519       92.091       96.964       43.127     8480.699     9401.942     1859.920        2.118        0.987      150.436       54.129        0.129      346.879       25.441      862.901
08/06/2014  18:02:00     -211.244       37.170      -12.103       85.396       55.054       36.852     7292.553     3030.944     1358.107        2.891        0.584      214.489       41.969        0.038      346.803       25.311      862.919
08/06/2014  18:03:00     -274.068      -58.766      -16.581       91.000       66.741       38.923     8280.942     4454.321     1514.982        4.654        0.713      280.297       31.808        0.013      346.786       25.279      862.929
08/06/2014  18:04:00     -124.965      -41.172       10.107       72.184       50.405       39.508     5210.562     2540.616     1560.900        1.336        0.466      131.573       35.731        0.074      346.840       25.377      862.934
08/06/2014  18:05:00     -133.990      -42.989       -4.280       58.760       38.759       28.537     3452.693     1502.268      814.358        1.279        0.288      140.718       29.399        0.044      346.839       25.377      862.944
08/06/2014  18:06:00     -117.739       -1.670        2.435       82.825       59.501       35.204     6860.005     3540.323     1239.342        1.275        0.582      117.751       47.467        0.163      346.843       25.383      862.947
08/06/2014  18:07:00      -63.639       37.004       -6.056       35.284       38.858       24.413     1244.945     1509.937      595.990        0.440        0.168       73.616       21.481        0.085      346.901       25.483      862.937
08/06/2014  18:08:00      -79.012       12.103      -25.095       49.225       54.108       37.939     2423.095     2927.623     1439.377        0.690        0.340       79.934       29.802        0.139      346.848       25.391      862.931
08/06/2014  18:09:00     -166.486       58.148      -30.847       71.779       51.370       36.542     5152.175     2638.891     1335.326        2.059        0.456      176.348       36.700        0.043      346.774       25.262      862.927
08/06/2014  18:10:00     -184.416       36.005      -32.671       52.182       93.001       44.599     2722.990     8649.188     1989.028        2.486        0.668      187.898       36.363        0.037      346.773       25.259      862.921
08/06/2014  18:11:00     -155.329        2.212      -12.230       57.445       58.045       36.600     3299.920     3369.265     1339.524        1.614        0.400      155.344       28.002        0.032      346.780       25.273      862.914
08/06/2014  18:12:00     -140.952       18.888      -15.306       67.971       51.110       32.147     4620.122     2612.282     1033.406        1.436        0.413      142.212       33.326        0.055      346.753       25.225      862.917
08/06/2014  18:13:00      -72.286       31.664        3.453       39.966       43.501       28.589     1597.302     1892.323      817.345        0.527        0.215       78.917       20.446        0.067      346.808       25.321      862.908
08/06/2014  18:14:00       -9.641       -8.140        0.104       36.791       31.467       20.913     1353.578      990.199      437.355        0.147        0.139       12.618       16.633        1.738      346.830       25.359      862.910
08/06/2014  18:15:00      -30.033       49.059        3.346       43.287       53.398       35.051     1873.757     2851.310     1228.588        0.464        0.298       57.522       28.321        0.242      346.858       25.407      862.920
08/06/2014  18:16:00     -106.332       58.569      -12.883       54.828       42.093       27.889     3006.071     1771.784      777.820        1.023        0.278      121.395       22.068        0.033      346.815       25.334      862.933
08/06/2014  18:17:00      -72.453       88.275       -9.850       43.157       46.291       31.709     1862.485     2142.837     1005.443        0.907        0.251      114.201       31.471        0.076      346.795       25.300      862.934
08/06/2014  18:18:00      -38.556       98.804      -16.405       34.767       51.108       26.539     1208.711     2612.038      704.307        0.802        0.226      106.060       27.601        0.068      346.786       25.284      862.931
08/06/2014  18:19:00      -48.852      138.876      -16.318       36.397       51.512       25.228     1324.732     2653.436      636.474        1.328        0.231      147.218       18.113        0.015      346.773       25.261      862.939
08/06/2014  18:20:00      -98.275      123.068      -16.083       72.635       60.544       35.143     5275.862     3665.608     1235.063        1.762        0.509      157.492       35.821        0.052      346.780       25.272      862.945
08/06/2014  18:21:00      -57.322      171.452      -18.166       51.927       61.522       32.721     2696.403     3784.992     1070.672        2.028        0.378      180.780       39.080        0.047      346.714       25.157      862.951
08/06/2014  18:22:00     -112.977      100.902      -18.142       71.929       46.519       31.361     5173.813     2163.973      983.510        1.580        0.416      151.476       35.445        0.055      346.762       25.242      862.944
08/06/2014  18:23:00     -109.714      148.980      -27.567       39.330       35.676       27.595     1546.835     1272.752      761.483        1.929        0.179      185.019       22.173        0.014      346.762       25.242      862.937
08/06/2014  18:24:00      -84.122       82.444      -16.790       59.709       57.049       28.964     3565.218     3254.579      838.910        1.091        0.383      117.786       32.463        0.076      346.774       25.263      862.933
08/06/2014  18:25:00     -111.631      160.360      -26.708       48.202       49.584       35.711     2323.474     2458.611     1275.307        2.247        0.303      195.389       29.960        0.024      346.725       25.176      862.944
08/06/2014  18:26:00     -109.918       46.056      -12.798       41.404       41.226       29.830     1714.275     1699.618      889.818        0.933        0.215      119.177       21.576        0.033      346.832       25.363      862.940
08/06/2014  18:27:00      -86.950       54.844      -14.518       37.545       53.784       27.630     1409.613     2892.666      763.440        0.792        0.253      102.801       20.174        0.039      346.817       25.338      862.949
08/06/2014  18:28:00      -99.364      149.209      -25.586       46.314       70.902       29.065     2144.956     5027.127      844.768        2.040        0.401      179.267       27.979        0.024      346.747       25.216      862.968
08/06/2014  18:29:00     -119.029       79.043      -13.441       43.964       44.597       26.587     1932.811     1988.911      706.866        1.261        0.231      142.883       17.205        0.015      346.758       25.237      862.983
08/06/2014  18:30:00      -65.755       61.546        8.791       65.445       63.211       35.320     4283.003     3995.628     1247.511        0.886        0.476       90.065       34.058        0.143      346.789       25.289      863.004
08/06/2014  18:31:00      -52.196       86.947       -1.087       57.342       62.135       33.108     3288.076     3860.705     1096.137        0.926        0.412      101.411       37.514        0.137      346.791       25.293      863.035
08/06/2014  18:32:00     -141.739      147.283      -31.203       57.206       67.612       33.847     3272.476     4571.333     1145.595        2.587        0.449      204.407       28.473        0.019      346.752       25.223      863.049
08/06/2014  18:33:00     -156.926       72.056      -10.236       67.421       54.171       36.517     4545.653     2934.493     1333.477        1.937        0.441      172.678       34.608        0.040      346.726       25.179      863.069
08/06/2014  18:34:00      -85.945      117.491        1.137       39.249       81.612       34.832     1540.504     6660.437     1213.281        1.530        0.471      145.571       42.101        0.084      346.753       25.225      863.080
08/06/2014  18:35:00      -49.784       69.011        3.384       53.158       64.442       31.170     2825.735     4152.795      971.587        0.760        0.398       85.094       28.872        0.115      346.810       25.326      863.091
08/06/2014  18:36:00      -74.361       54.950       -4.156       44.024       61.688       27.129     1938.120     3805.447      735.991        0.752        0.324       92.461       19.274        0.043      346.769       25.254      863.098
08/06/2014  18:37:00      -84.258       37.744      -10.885       53.856       58.523       31.945     2900.513     3424.948     1020.462        0.799        0.367       92.326       29.043        0.099      346.819       25.341      863.099
08/06/2014  18:38:00      -40.243       79.620        6.760       42.216       46.161       31.385     1782.224     2130.799      985.047        0.645        0.245       89.212       30.028        0.113      346.850       25.393      863.107
08/06/2014  18:39:00     -102.925       -3.192       -3.476       43.618       41.777       24.526     1902.561     1745.311      601.542        0.743        0.212      102.975       18.798        0.033      346.798       25.306      863.097
08/06/2014  18:40:00     -122.352       41.294      -22.309       37.736       46.082       22.812     1424.018     2123.585      520.396        1.062        0.203      129.132        8.942        0.005      346.756       25.233      863.096
08/06/2014  18:41:00     -135.616      128.861      -34.502       44.512       44.287       31.474     1981.301     1961.345      990.612        2.056        0.247      187.075       26.185        0.020      346.704       25.140      863.098
08/06/2014  18:42:00      -71.310       88.499       -6.893       42.247       37.047       26.973     1784.812     1372.477      727.554        0.842        0.194      113.653       23.166        0.042      346.770       25.256      863.082
08/06/2014  18:43:00      -49.573       61.047       -0.331       29.390       38.878       21.159      863.782     1511.494      447.688        0.450        0.141       78.639       19.377        0.061      346.808       25.322      863.073
08/06/2014  18:44:00      -18.680        6.746        0.648       21.796       25.076       15.953      475.079      628.802      254.511        0.088        0.068       19.860        9.550        0.231      346.897       25.476      863.073
08/06/2014  18:45:00      -63.688      127.022      -27.975       26.906       60.250       24.644      723.939     3630.084      607.331        1.297        0.248      142.094       24.979        0.031      346.762       25.242      863.074
08/06/2014  18:46:00      -23.291      124.120      -11.224       26.664       38.659       26.874      710.962     1494.527      722.233        0.950        0.146      126.287       19.463        0.024      346.772       25.261      863.066
08/06/2014  18:47:00      -43.639       60.667       -0.764       31.038       47.186       22.929      963.340     2226.541      525.718        0.465        0.186       74.732       20.595        0.076      346.840       25.380      863.065
08/06/2014  18:48:00      -55.916       64.241       -7.474       36.183       33.316       26.806     1309.217     1109.964      718.543        0.522        0.157       85.168       23.556        0.076      346.846       25.387      863.076
08/06/2014  18:49:00      -56.881       33.465        7.737       49.337       78.351       27.798     2434.139     6138.944      772.735        0.688        0.467       65.995       21.065        0.102      346.854       25.402      863.091
08/06/2014  18:50:00      -39.610       47.467        1.851       48.023       49.243       30.848     2306.188     2424.866      951.621        0.475        0.284       61.823       32.100        0.270      346.867       25.424      863.111
08/06/2014  18:51:00      -92.154       87.148      -14.420       58.296       49.149       32.078     3398.392     2415.629     1028.987        1.157        0.342      126.835       32.986        0.068      346.805       25.315      863.140
08/06/2014  18:52:00     -145.580      130.088      -28.888       43.328       51.795       34.784     1877.335     2682.673     1209.934        2.236        0.288      195.234       29.842        0.023      346.777       25.269      863.163
08/06/2014  18:53:00      -65.421      122.603      -13.984       44.407       42.359       26.771     1971.996     1794.291      716.700        1.199        0.224      138.965       27.066        0.038      346.792       25.295      863.172
08/06/2014  18:54:00      -83.245      109.488      -11.730       38.222       50.613       22.046     1460.908     2561.720      486.036        1.178        0.225      137.541       19.741        0.021      346.829       25.357      863.170
08/06/2014  18:55:00      -52.432       50.267       -2.310       40.935       51.809       28.151     1675.683     2684.171      792.470        0.522        0.258       72.635       19.990        0.076      346.862       25.415      863.168
08/06/2014  18:56:00      -52.036       39.732       -0.238       37.572       43.775       23.673     1411.654     1916.216      560.427        0.409        0.194       65.471       18.153        0.077      346.813       25.331      863.158
08/06/2014  18:57:00      -74.939      -21.012       -5.941       46.055       32.387       20.776     2121.065     1048.940      431.624        0.485        0.180       77.829       19.399        0.062      346.815       25.334      863.136
08/06/2014  18:58:00     -125.808      121.044      -29.048       59.272       61.303       31.976     3513.176     3758.076     1022.485        1.981        0.415      174.583       39.895        0.052      346.774       25.261      863.126
08/06/2014  18:59:00      -80.417      129.291        2.619       65.353       92.556       35.967     4270.986     8566.629     1293.592        1.866        0.707      152.260       36.938        0.059      346.750       25.221      863.106
08/06/2014  19:00:00      -61.040      180.794      -12.648       44.944       53.410       35.516     2019.959     2852.595     1261.357        2.135        0.307      190.820       30.823        0.026      346.735       25.194      863.084
08/06/2014  19:01:00      -79.939      121.702      -15.577       34.666       49.485       31.892     1201.727     2448.788     1017.096        1.305        0.233      145.608       29.549        0.041      346.757       25.233      863.075
08/06/2014  19:02:00      -53.620      134.192       -5.064       47.343       38.741       31.574     2241.393     1500.852      996.932        1.282        0.237      144.508       25.188        0.030      346.769       25.253      863.062
08/06/2014  19:03:00      -65.354       78.584      -13.173       26.004       29.149       21.470      676.213      849.673      460.966        0.630        0.099      102.209       15.529        0.023      346.784       25.282      863.059
08/06/2014  19:04:00      -43.115      108.871       -6.509       31.313       32.853       24.001      980.508     1079.310      576.039        0.819        0.132      117.097       18.302        0.024      346.777       25.270      863.058
08/06/2014  19:05:00      -94.973      160.703      -30.385       45.741      101.489       38.733     2092.195    10300.087     1500.212        2.483        0.695      186.669       48.473        0.067      346.771       25.257      863.053
08/06/2014  19:06:00      -95.226      142.094      -10.163       70.817       68.098       36.362     5015.078     4637.363     1322.226        2.017        0.549      171.052       36.096        0.045      346.780       25.274      863.047
08/06/2014  19:07:00     -169.206       85.840      -26.471       59.815       84.392       40.972     3577.838     7122.043     1678.730        2.454        0.619      189.734       32.712        0.030      346.760       25.237      863.065
08/06/2014  19:08:00     -108.780      180.550      -28.347       60.613       81.650       37.892     3673.898     6666.742     1435.780        2.850        0.589      210.787       42.600        0.041      346.765       25.244      863.058
08/06/2014  19:09:00      -82.968       86.743       -1.049       32.677      101.585       29.296     1067.816    10319.584      858.250        1.332        0.612      120.033       33.247        0.077      346.800       25.307      863.048
08/06/2014  19:10:00      -55.747       38.084       -4.785       42.096       19.437       19.664     1772.098      377.814      386.690        0.356        0.127       67.514       12.911        0.037      346.772       25.262      863.042
08/06/2014  19:11:00      -51.253       88.886       -5.403       72.888       56.776       31.531     5312.601     3223.505      994.222        1.004        0.477      102.604       26.819        0.068      346.764       25.246      863.035
08/06/2014  19:12:00      -48.912      175.900      -18.195       41.812       61.891       24.172     1748.274     3830.555      584.294        1.991        0.308      182.574       17.241        0.009      346.773       25.262      863.023
08/06/2014  19:13:00      -74.288      163.358      -34.138       59.691       77.629       36.647     3563.029     6026.254     1342.976        2.215        0.547      179.456       44.167        0.061      346.610       24.982      863.040
08/06/2014  19:14:00       -4.855      232.190      -19.047       55.537      113.330       60.547     3084.323    12843.580     3665.945        3.694        0.980      232.241       63.494        0.075      346.611       24.980      863.044
08/06/2014  19:15:00      -42.976      218.415      -22.613       69.158       86.785       46.894     4782.845     7531.722     2199.081        3.229        0.726      222.603       32.412        0.021      346.554       24.882      863.063
08/06/2014  19:16:00      -34.109      300.435      -38.680       59.509       79.479       35.694     3541.299     6316.966     1274.052        5.202        0.557      302.365       32.593        0.012      346.504       24.795      863.072
08/06/2014  19:17:00      -30.037      321.011      -43.147       91.356       79.078       33.824     8345.973     6253.336     1144.063        6.077        0.787      322.414       32.228        0.010      346.491       24.773      863.070
08/06/2014  19:18:00      -11.813      202.973      -23.712       71.272       91.700       37.259     5079.727     8408.971     1388.221        2.839        0.744      203.316       40.967        0.041      346.488       24.766      863.075
08/06/2014  19:19:00       23.069      163.110      -13.791       55.595       69.765       44.511     3090.777     4867.092     1981.263        1.863        0.497      164.733       39.209        0.057      346.478       24.754      863.093
08/06/2014  19:20:00       44.339      205.653      -17.088       67.433       65.368       48.941     4547.172     4272.996     2395.238        2.788        0.561      210.379       38.343        0.033      346.452       24.706      863.118
08/06/2014  19:21:00       11.182      159.033      -11.232       68.872       94.893       52.193     4743.394     9004.597     2724.138        2.100        0.824      159.425       59.616        0.140      346.456       24.715      863.137
08/06/2014  19:22:00      -29.412      282.236      -31.547       84.626      116.181       49.325     7161.603    13497.923     2432.932        5.230        1.155      283.764       58.094        0.042      346.389       24.600      863.154
08/06/2014  19:23:00     -123.334      326.423      -44.406       60.867       90.283       45.065     3704.750     8151.109     2030.856        6.881        0.694      348.946       46.936        0.018      346.320       24.480      863.166
08/06/2014  19:24:00      -30.097      317.906      -42.313       55.488       69.945       41.295     3078.881     4892.299     1705.276        5.672        0.484      319.328       37.457        0.014      346.324       24.488      863.173
08/06/2014  19:25:00       -6.610      256.162      -29.438       71.037       97.782       54.514     5046.198     9561.244     2971.775        4.205        0.879      256.247       53.751        0.044      346.314       24.468      863.189
08/06/2014  19:26:00       -8.420      258.492      -31.876       59.274      102.824       45.294     3513.423    10572.758     2051.546        4.202        0.807      258.629       48.326        0.035      346.300       24.443      863.204
08/06/2014  19:27:00       15.910      269.965      -30.093       95.355       94.437       56.389     9092.631     8918.346     3179.764        4.761        1.060      270.433       49.013        0.033      346.275       24.402      863.222
08/06/2014  19:28:00      -26.130      272.919      -34.531       91.361      112.136       55.693     8346.798    12574.549     3101.687        5.019        1.201      274.168       52.955        0.037      346.242       24.343      863.249
08/06/2014  19:29:00      -51.488      413.193      -53.802       99.139      103.165       58.368     9828.478    10642.927     3406.780       10.007        1.194      416.389       57.771        0.019      346.133       24.158      863.273
08/06/2014  19:30:00      -84.465      393.491      -48.600       74.784      104.073       46.167     5592.719    10831.113     2131.378        9.144        0.928      402.454       45.997        0.013      346.109       24.115      863.286
08/06/2014  19:31:00      -70.868      286.681      -39.824       75.928      152.668       49.027     5765.137    23307.576     2403.618        6.013        1.574      295.311       61.043        0.043      346.104       24.107      863.302
08/06/2014  19:32:00      -43.363      188.041      -14.809       80.879      113.880       39.752     6541.428    12968.664     1580.237        2.927        1.055      192.976       49.301        0.065      346.132       24.156      863.300
08/06/2014  19:33:00      -34.756      237.923      -35.988       59.882       76.778       32.714     3585.823     5894.825     1070.229        3.483        0.528      240.448       24.687        0.011      346.136       24.161      863.295
08/06/2014  19:34:00      -20.213       92.991      -14.847       30.708       62.648       24.343      942.960     3924.751      592.573        0.737        0.273       95.162       28.777        0.091      346.153       24.196      863.303
08/06/2014  19:35:00      -75.792      184.376      -25.559       68.978       65.505       40.904     4757.920     4290.882     1673.115        2.555        0.536      199.346       38.972        0.038      346.102       24.108      863.324
08/06/2014  19:36:00       20.676      249.354      -15.780       82.332       98.019       53.597     6778.600     9607.713     2872.677        4.105        0.963      250.209       59.520        0.057      346.073       24.051      863.320
08/06/2014  19:37:00       -9.857      276.666      -27.670       53.146       42.273       33.821     2824.526     1787.010     1143.862        4.158        0.288      276.841       13.985        0.003      346.067       24.042      863.322
08/06/2014  19:38:00      -60.690      222.356      -22.885       56.874       88.839       36.368     3234.674     7892.383     1322.616        3.305        0.622      230.490       38.270        0.028      346.104       24.109      863.328
08/06/2014  19:39:00      -31.965      177.782      -17.492       78.700       90.575       41.851     6193.620     8203.900     1751.494        2.454        0.807      180.633       44.595        0.061      346.057       24.027      863.337
08/06/2014  19:40:00      -30.632      158.298      -20.537       59.704       89.820       36.143     3564.572     8067.676     1306.339        1.968        0.647      161.235       40.116        0.062      346.050       24.018      863.344
08/06/2014  19:41:00      -65.069      172.193      -20.507       49.011       70.180       36.866     2402.049     4925.296     1359.073        2.149        0.434      184.077       38.457        0.044      346.036       23.993      863.338
08/06/2014  19:42:00      -26.418      127.704      -16.181       45.321       68.642       24.063     2053.995     4711.706      579.039        1.230        0.367      130.408       26.398        0.041      346.059       24.034      863.350
08/06/2014  19:43:00      -45.641      122.720      -13.258       37.609       66.014       20.624     1414.415     4357.866      425.340        1.176        0.310      130.932       22.969        0.031      346.069       24.050      863.362
08/06/2014  19:44:00      -93.407        5.077      -13.638       34.997       58.974       25.271     1224.801     3477.891      638.609        0.714        0.267       93.545       18.871        0.041      346.086       24.081      863.357
08/06/2014  19:45:00     -143.907       59.046      -24.500       51.836       39.061       25.690     2686.949     1525.797      659.951        1.483        0.244      155.550       22.751        0.021      346.029       23.981      863.367
08/06/2014  19:46:00     -149.246       68.700      -18.360       93.644       79.635       40.957     8769.180     6341.718     1677.513        2.206        0.839      164.299       50.835        0.096      345.978       23.895      863.383
08/06/2014  19:47:00      -93.843       43.015      -15.291       41.647       38.706       31.201     1734.441     1498.171      973.520        0.755        0.210      103.232       24.798        0.058      345.985       23.909      863.394
08/06/2014  19:48:00      -76.792       43.770      -10.090       43.665       43.472       34.590     1906.640     1889.817     1196.461        0.645        0.250       88.390       30.079        0.116      346.038       23.999      863.407
08/06/2014  19:49:00      -60.878        2.428        4.943       72.432       26.438       32.893     5246.434      698.949     1081.941        0.538        0.351       60.927       33.713        0.306      346.008       23.945      863.414
08/06/2014  19:50:00     -125.315      -14.880      -31.545       52.979       35.695       25.385     2806.770     1274.113      644.397        1.082        0.236      126.195       28.304        0.050      345.962       23.867      863.419
08/06/2014  19:51:00     -114.352      -34.578      -11.007       34.390       46.157       18.547     1182.665     2130.490      343.981        0.902        0.183      119.466       13.284        0.012      345.959       23.861      863.420
08/06/2014  19:52:00     -114.487      -10.687      -11.294       45.523       77.309       29.735     2072.301     5976.698      884.159        1.114        0.447      114.985       36.145        0.099      345.919       23.794      863.422
08/06/2014  19:53:00     -118.784      -24.705      -20.055       45.205       59.779       29.203     2043.513     3573.477      852.802        1.079        0.323      121.325       12.426        0.010      345.909       23.779      863.414
08/06/2014  19:54:00     -106.834      -44.701       -0.044       51.503       33.949       24.321     2652.571     1152.535      591.507        0.890        0.220      115.809       24.577        0.045      345.844       23.666      863.420
08/06/2014  19:55:00      -90.251      -38.670       -8.884       47.737       29.005       23.107     2278.851      841.278      533.943        0.669        0.183       98.186       25.344        0.067      345.846       23.668      863.423
08/06/2014  19:56:00      -63.789      -33.220        7.642       48.500       33.557       24.746     2352.264     1126.072      612.378        0.466        0.205       71.921       23.040        0.103      345.833       23.647      863.418
08/06/2014  19:57:00     -115.402      -26.649        1.550       37.387       38.316       22.503     1397.816     1468.115      506.376        0.870        0.169      118.439       17.487        0.022      345.797       23.585      863.424
08/06/2014  19:58:00     -120.622       15.101      -17.336       45.248       49.847       21.697     2047.421     2484.759      470.772        1.004        0.250      121.563       20.725        0.029      345.774       23.545      863.434
08/06/2014  19:59:00      -70.435      -12.872       -5.422       33.102       30.481       14.478     1095.765      929.121      209.600        0.369        0.112       71.601       15.068        0.044      345.771       23.542      863.437
08/06/2014  20:00:00      -59.687        1.315      -11.630       33.100       26.097       16.185     1095.593      681.028      261.939        0.287        0.102       59.702       13.659        0.052      345.752       23.509      863.448
08/06/2014  20:01:00      -87.313       11.442       -4.159       46.333       28.863       19.624     2146.733      833.068      385.099        0.557        0.168       88.060       22.392        0.065      345.781       23.556      863.457
08/06/2014  20:02:00      -89.142       40.538      -19.309       43.852       50.145       21.687     1922.978     2514.542      470.312        0.743        0.245       97.926       15.238        0.024      345.772       23.543      863.461
08/06/2014  20:03:00      -61.606       32.791       -4.618       33.627       39.981       21.393     1130.762     1598.492      457.670        0.404        0.159       69.789       18.719        0.072      345.777       23.550      863.470
08/06/2014  20:04:00     -120.005      -10.050      -10.189       58.241       40.595       24.504     3391.983     1647.957      600.434        1.012        0.282      120.425       26.055        0.047      345.820       23.624      863.481
08/06/2014  20:05:00      -28.188       13.985        7.557       31.607       34.860       20.368      999.027     1215.235      414.851        0.184        0.131       31.467       19.024        0.366      345.745       23.495      863.482
08/06/2014  20:06:00      -54.593       14.964      -16.314       15.201       23.870       12.352      231.079      569.792      152.562        0.221        0.048       56.606        8.642        0.023      345.800       23.589      863.490
08/06/2014  20:07:00      -72.389       63.297      -25.089       31.353       43.506       16.916      983.000     1892.796      286.144        0.652        0.158       96.159       19.504        0.041      345.817       23.617      863.493
08/06/2014  20:08:00      -40.763       30.472       -2.631       24.677       19.911       14.217      608.940      396.447      202.121        0.190        0.060       50.894       11.792        0.054      345.788       23.571      863.494
08/06/2014  20:09:00      -51.384       34.189      -12.355       21.210       19.202       13.308      449.845      368.732      177.112        0.248        0.050       61.719       10.934        0.031      345.786       23.568      863.503
08/06/2014  20:10:00      -68.168       88.953      -21.041       28.574       54.630       23.421      816.496     2984.452      548.528        0.867        0.217      112.069       25.566        0.052      345.804       23.599      863.516
08/06/2014  20:11:00      -46.935       17.082       -7.246       27.407       23.033       15.767      751.168      530.522      248.593        0.204        0.077       49.946       10.319        0.043      345.828       23.639      863.511
08/06/2014  20:12:00      -72.236       53.025      -15.025       33.969       28.702       21.484     1153.875      823.833      461.566        0.535        0.122       89.608       23.808        0.071      345.836       23.651      863.516
08/06/2014  20:13:00      -83.054       30.085       -9.363       32.077       23.987       20.653     1028.937      575.360      426.542        0.496        0.102       88.335       16.124        0.033      345.808       23.604      863.515
08/06/2014  20:14:00      -15.505       22.741        8.629       25.604       26.787       18.000      655.540      717.557      323.990        0.126        0.085       27.523       15.491        0.317      345.798       23.585      863.508
08/06/2014  20:15:00      -58.690       31.988      -12.148       31.027       30.096       16.136      962.658      905.747      260.372        0.337        0.106       66.841       18.796        0.079      345.819       23.624      863.523
08/06/2014  20:16:00      -54.731       14.932       -7.478       17.088       16.476        9.977      291.993      271.473       99.547        0.197        0.033       56.731       10.635        0.035      345.779       23.556      863.533
08/06/2014  20:17:00      -92.261        7.593       -7.689       41.251       33.571       14.717     1701.664     1126.987      216.584        0.584        0.152       92.573       11.283        0.015      345.783       23.561      863.546
08/06/2014  20:18:00      -94.263       11.584      -13.283       44.005       29.292       15.572     1936.429      858.038      242.485        0.612        0.152       94.972       12.759        0.018      345.785       23.565      863.557
08/06/2014  20:19:00      -62.418       30.277       -6.111       16.042       26.873       16.839      257.336      722.167      283.545        0.306        0.063       69.374       12.433        0.032      345.740       23.484      863.572
08/06/2014  20:20:00      -78.103        4.079       -7.313       29.988       25.496       13.802      899.303      650.042      190.489        0.395        0.087       78.209       13.242        0.029      345.781       23.556      863.585
08/06/2014  20:21:00      -87.289      -34.300       -2.237       30.110       23.720       14.327      906.595      562.618      205.263        0.524        0.084       93.787       13.247        0.020      345.744       23.495      863.606
08/06/2014  20:22:00      -72.943      -17.878        0.411       33.892       39.132       22.855     1148.645     1531.313      522.370        0.442        0.160       75.102       12.499        0.028      345.694       23.407      863.616
08/06/2014  20:23:00      -86.980       -2.217       -2.703       21.597       30.314       17.867      466.450      918.917      319.232        0.464        0.085       87.008       13.987        0.026      345.708       23.433      863.630
08/06/2014  20:24:00      -69.427        2.343      -13.894       30.575       30.738       18.071      934.811      944.815      326.573        0.361        0.110       69.467       19.317        0.077      345.690       23.401      863.648
08/06/2014  20:25:00      -41.951       27.834       -0.221       29.534       29.932       15.916      872.229      895.928      253.314        0.228        0.101       50.345       11.956        0.056      345.704       23.422      863.647
08/06/2014  20:26:00      -55.832       14.412       -9.181       14.217       22.204       11.348      202.135      492.998      128.783        0.212        0.041       57.662        6.282        0.012      345.713       23.441      863.649
08/06/2014  20:27:00      -51.314      -17.440        4.481       32.280       24.335       14.600     1041.984      592.192      213.166        0.240        0.092       54.197       15.394        0.081      345.684       23.389      863.661
08/06/2014  20:28:00      -33.017       36.450       -7.508       23.431       17.969       15.416      549.020      322.890      237.668        0.179        0.055       49.180        7.592        0.024      345.670       23.367      863.657
08/06/2014  20:29:00      -65.650       56.911      -13.158       36.383       24.417       19.362     1323.697      596.192      374.868        0.501        0.115       86.884       17.576        0.041      345.658       23.344      863.667
08/06/2014  20:30:00      -96.402       59.206      -22.415       47.048       42.593       23.923     2213.533     1814.159      572.327        0.895        0.230      113.132       25.669        0.051      345.690       23.401      863.671
08/06/2014  20:31:00      -68.947       57.334      -11.101       53.460       34.986       23.634     2857.997     1224.041      558.582        0.640        0.232       89.671       26.848        0.090      345.668       23.362      863.670
08/06/2014  20:32:00      -85.950       88.971      -18.932       27.698       30.183       24.589      767.162      911.020      604.629        0.897        0.114      123.706       18.494        0.022      345.673       23.371      863.674
08/06/2014  20:33:00      -74.740       46.010      -16.551       32.545       20.121       17.588     1059.200      404.865      309.324        0.487        0.089       87.767       17.853        0.041      345.673       23.370      863.693
08/06/2014  20:34:00      -97.196       79.527      -23.704       37.221       39.522       18.456     1385.401     1561.962      340.622        0.981        0.164      125.585       24.831        0.039      345.670       23.365      863.703
08/06/2014  20:35:00      -56.829      102.251      -10.799       46.630       68.959       30.581     2174.394     4755.394      935.174        1.083        0.393      116.982       42.600        0.133      345.695       23.408      863.718
08/06/2014  20:36:00      -52.491       78.821        0.062       41.631       45.589       30.002     1733.113     2078.395      900.139        0.684        0.236       94.700       24.303        0.066      345.652       23.335      863.733
08/06/2014  20:37:00      -73.174       82.872      -17.002       29.753       36.106       24.533      885.217     1303.644      601.874        0.765        0.140      110.554       22.507        0.041      345.713       23.441      863.742
08/06/2014  20:38:00      -38.612       34.197        2.784       41.639       30.523       18.383     1733.824      931.649      337.937        0.284        0.150       51.578       23.945        0.216      345.665       23.357      863.760
08/06/2014  20:39:00      -23.444       31.145        0.429       34.619       25.576       13.757     1198.454      654.138      189.259        0.178        0.102       38.983       11.009        0.080      345.638       23.310      863.766
08/06/2014  20:40:00      -87.732       40.638      -10.857       27.085       22.579       24.004      733.600      509.803      576.190        0.564        0.091       96.687       19.447        0.040      345.672       23.369      863.773
08/06/2014  20:41:00      -48.907       56.679      -12.428       56.241       23.996       17.300     3163.044      575.818      299.291        0.490        0.202       74.862        9.790        0.017      345.703       23.425      863.784
08/06/2014  20:42:00      -78.767       40.809      -14.366       33.120       23.251       18.112     1096.948      540.619      328.053        0.502        0.098       88.710       14.901        0.028      345.661       23.349      863.806
08/06/2014  20:43:00      -93.690       65.167      -23.527       18.835       27.091       14.879      354.771      733.934      221.380        0.744        0.066      114.125       10.986        0.009      345.651       23.335      863.811
08/06/2014  20:44:00     -131.292      112.088      -32.244       34.366       32.360       22.058     1181.002     1047.165      486.553        1.678        0.136      172.630       16.228        0.009      345.679       23.380      863.820
08/06/2014  20:45:00     -103.057       21.314       -0.126       40.337       31.168       22.756     1627.064      971.463      517.819        0.710        0.156      105.238       19.101        0.033      345.666       23.358      863.831
08/06/2014  20:46:00      -71.395       47.206      -15.887       32.219       31.151       18.219     1038.072      970.370      331.949        0.496        0.117       85.590       21.654        0.064      345.634       23.303      863.837
08/06/2014  20:47:00      -59.492       41.490        3.717       55.317       36.555       28.333     3059.935     1336.304      802.760        0.524        0.260       72.531       26.052        0.129      345.583       23.216      863.842
08/06/2014  20:48:00      -82.674       55.041      -19.669       29.397       25.830       14.404      864.167      667.193      207.481        0.599        0.087       99.321       15.027        0.023      345.601       23.248      863.860
08/06/2014  20:49:00      -73.695       10.620       -6.050       33.298       39.900       15.245     1108.755     1592.049      232.416        0.426        0.147       74.457       14.515        0.038      345.589       23.227      863.868
08/06/2014  20:50:00      -29.336       66.952        7.384       29.715       51.747       21.261      882.964     2677.750      452.050        0.470        0.201       73.097       21.016        0.083      345.526       23.119      863.871
08/06/2014  20:51:00      -79.378      -31.813       -6.543       22.245       21.322       17.822      494.844      454.632      317.638        0.431        0.063       85.515       12.255        0.021      345.550       23.160      863.881
08/06/2014  20:52:00      -64.372       -7.089       -6.635       29.868       24.933       16.709      892.120      621.665      279.200        0.302        0.090       64.761       19.119        0.087      345.517       23.104      863.887
08/06/2014  20:53:00      -80.942       -8.793       -1.921       27.232       18.905       21.933      741.599      357.394      481.040        0.411        0.079       81.418        9.568        0.014      345.511       23.093      863.888
08/06/2014  20:54:00      -72.877      -46.626       -8.780       44.718       28.045       14.040     1999.741      786.506      197.130        0.527        0.149       86.516        5.734        0.004      345.434       22.959      863.902
08/06/2014  20:55:00      -77.612      -56.505        0.821       37.823       30.683       21.389     1430.617      941.447      457.470        0.602        0.141       96.002       21.258        0.049      345.401       22.903      863.911
08/06/2014  20:56:00      -93.125      -48.050       -5.032       31.624       28.478       20.601     1000.095      810.974      424.416        0.662        0.112      104.790       10.605        0.010      345.403       22.909      863.908
08/06/2014  20:57:00      -59.467      -37.636        2.407       57.113       44.790       27.058     3261.930     2006.134      732.109        0.548        0.300       70.376       30.727        0.191      345.339       22.797      863.919
08/06/2014  20:58:00      -76.796      -61.422        0.932       57.377       28.167       26.134     3292.168      793.370      683.004        0.722        0.238       98.337       30.608        0.097      345.243       22.632      863.931
08/06/2014  20:59:00      -60.254      -15.882       -0.727       43.671       44.055       23.879     1907.174     1940.855      570.230        0.415        0.221       62.312       23.121        0.138      345.270       22.679      863.938
08/06/2014  21:00:00     -108.373      -40.915       -2.063       31.612       35.874       19.127      999.346     1286.943      365.841        0.804        0.133      115.839       14.602        0.016      345.233       22.614      863.950
08/06/2014  21:01:00      -67.877      -32.509        2.070       35.609       37.580       23.267     1268.036     1412.288      541.360        0.444        0.161       75.261       26.163        0.121      345.225       22.605      863.967
08/06/2014  21:02:00      -58.056      -22.421       -1.046       26.325       24.951       20.761      693.011      622.540      431.035        0.281        0.087       62.235       14.365        0.053      345.230       22.611      863.988
08/06/2014  21:03:00      -99.202      -42.190       -6.385       20.347       19.032       14.950      414.018      362.225      223.504        0.633        0.050      107.801        8.744        0.007      345.275       22.688      864.003
08/06/2014  21:04:00      -88.743      -30.655      -10.837       16.815       21.138       11.556      282.760      446.833      133.537        0.490        0.043       93.888        4.077        0.002      345.260       22.663      864.016
08/06/2014  21:05:00      -87.705      -15.359      -14.122       15.660       19.677       13.399      245.231      387.193      179.534        0.447        0.041       89.040        4.283        0.002      345.278       22.692      864.028
08/06/2014  21:06:00      -56.173       -5.543       -0.966       18.466       23.017       11.440      340.981      529.761      130.877        0.209        0.050       56.446        5.139        0.008      345.296       22.723      864.028
08/06/2014  21:07:00      -42.407       12.615       -7.987       23.701       30.143       12.692      561.745      908.601      161.095        0.183        0.082       44.243       10.562        0.057      345.276       22.689      864.027
08/06/2014  21:08:00      -47.229       40.621      -10.935       26.179       25.738        9.856      685.335      662.433       97.148        0.272        0.072       62.294       11.042        0.031      345.294       22.720      864.023
08/06/2014  21:09:00      -24.854       68.226       -7.273       17.099       36.671       18.372      292.386     1344.740      337.534        0.365        0.099       72.612       18.019        0.062      345.372       22.854      864.030
08/06/2014  21:10:00      -41.211       57.416        2.631       27.592       49.457       16.272      761.321     2445.957      264.770        0.424        0.174       70.675       12.599        0.032      345.320       22.764      864.030
08/06/2014  21:11:00      -89.743       45.686      -18.675       25.799       22.042       15.611      665.607      485.863      243.718        0.594        0.070      100.703       11.431        0.013      345.414       22.926      864.034
08/06/2014  21:12:00     -126.493       86.410      -25.724       34.565       37.494       22.137     1194.708     1405.815      490.040        1.361        0.155      153.190       22.126        0.021      345.417       22.932      864.033
08/06/2014  21:13:00     -101.395       89.735      -20.272       61.610       50.824       25.636     3795.817     2583.065      657.207        1.289        0.352      135.401       33.692        0.062      345.416       22.929      864.050
08/06/2014  21:14:00     -135.117       93.276      -27.262       32.591       33.956       22.137     1062.154     1152.998      490.030        1.520        0.135      164.186       17.968        0.012      345.448       22.985      864.053
08/06/2014  21:15:00     -140.514      112.306      -29.957       34.727       49.752       24.060     1205.976     2475.303      578.878        1.876        0.213      179.880       22.832        0.016      345.448       22.983      864.057
08/06/2014  21:16:00     -113.381      101.156      -19.604       44.473       52.562       24.151     1977.829     2762.784      583.258        1.440        0.266      151.946       24.791        0.027      345.445       22.980      864.069
08/06/2014  21:17:00      -98.840      112.377      -27.902       37.901       43.458       25.489     1436.498     1888.614      649.685        1.357        0.199      149.660       22.099        0.022      345.483       23.045      864.088
08/06/2014  21:18:00     -131.572       86.172      -21.044       36.839       42.671       23.254     1357.114     1820.830      540.750        1.445        0.186      157.280       16.589        0.011      345.444       22.977      864.092
08/06/2014  21:19:00      -64.090       70.428       -1.088       38.895       51.395       28.938     1512.830     2641.412      837.422        0.703        0.250       95.224       32.907        0.119      345.406       22.912      864.084
08/06/2014  21:20:00      -76.701       98.106      -16.526       34.439       53.561       23.283     1186.021     2868.763      542.115        1.019        0.230      124.530       21.785        0.031      345.456       22.998      864.089
08/06/2014  21:21:00     -102.358       98.196      -23.000       36.771       65.569       32.402     1352.103     4299.334     1049.875        1.367        0.335      141.843       31.464        0.049      345.485       23.048      864.085
08/06/2014  21:22:00      -95.187      131.476      -20.373       36.500       67.376       33.294     1332.230     4539.463     1108.488        1.687        0.349      162.316       34.700        0.046      345.465       23.013      864.074
08/06/2014  21:23:00     -104.913       81.444      -18.838       32.005       36.015       22.889     1024.336     1297.084      523.891        1.042        0.142      132.816       21.717        0.027      345.478       23.037      864.077
08/06/2014  21:24:00      -91.869      106.205      -24.857       44.269       52.764       28.496     1959.713     2784.041      812.028        1.295        0.278      140.426       28.663        0.042      345.493       23.061      864.080
08/06/2014  21:25:00      -71.932       79.791       -8.002       38.585       51.060       32.264     1488.840     2607.152     1040.939        0.837        0.257      107.428       30.197        0.079      345.445       22.980      864.094
08/06/2014  21:26:00      -67.148       72.401      -17.708       37.498       31.501       24.534     1406.094      992.308      601.924        0.653        0.150       98.746       21.094        0.046      345.459       23.003      864.103
08/06/2014  21:27:00      -59.486       61.017       -4.151       43.148       39.014       28.038     1861.765     1522.055      786.109        0.572        0.208       85.216       23.350        0.075      345.461       23.007      864.112
08/06/2014  21:28:00      -77.039      118.143      -15.808       28.305       46.476       23.343      801.165     2159.978      544.874        1.182        0.175      141.041       18.852        0.018      345.491       23.060      864.130
08/06/2014  21:29:00     -103.137       96.089      -22.771       35.688       33.846       17.352     1273.659     1145.544      301.097        1.155        0.136      140.962       14.315        0.010      345.498       23.072      864.155
08/06/2014  21:30:00      -84.172       68.646      -13.082       39.518       36.297       30.847     1561.701     1317.459      951.565        0.790        0.192      108.615       22.818        0.044      345.438       22.967      864.164
08/06/2014  21:31:00     -135.006      125.759      -36.020       43.321       56.362       27.231     1876.683     3176.695      741.527        2.057        0.290      184.504       28.067        0.023      345.505       23.080      864.176
08/06/2014  21:32:00     -119.081       78.806      -29.292       31.505       29.729       18.326      992.584      883.840      335.848        1.173        0.111      142.796       18.532        0.017      345.486       23.049      864.194
08/06/2014  21:33:00     -102.363       93.920      -21.803       51.972       47.500       36.409     2701.109     2256.257     1325.634        1.303        0.314      138.921       36.612        0.069      345.489       23.056      864.205
08/06/2014  21:34:00     -101.978      116.729      -29.872       64.711       62.893       37.047     4187.477     3955.490     1372.493        1.721        0.476      155.001       42.249        0.074      345.468       23.016      864.215
08/06/2014  21:35:00      -72.599       79.899      -12.323       38.131       37.358       28.064     1454.007     1395.625      787.581        0.772        0.182      107.955       26.127        0.059      345.464       23.012      864.239
08/06/2014  21:36:00      -71.408       71.359       -9.266       33.498       39.933       31.143     1122.134     1594.625      969.860        0.698        0.184      100.952       18.554        0.034      345.476       23.034      864.248
08/06/2014  21:37:00      -81.921       73.193      -17.550       28.743       34.150       21.353      826.140     1166.238      455.952        0.741        0.122      109.855       19.851        0.033      345.491       23.058      864.256
08/06/2014  21:38:00      -64.512       78.554       -8.883       30.850       39.579       21.485      951.735     1566.513      461.587        0.670        0.149      101.649       19.745        0.038      345.488       23.054      864.261
08/06/2014  21:39:00      -53.463      106.144      -15.638       39.810       52.004       23.059     1584.862     2704.385      531.736        0.959        0.241      118.848       24.189        0.041      345.487       23.053      864.279
08/06/2014  21:40:00      -85.493       71.672      -10.721       35.506       39.671       24.049     1260.641     1573.802      578.351        0.799        0.171      111.561       25.061        0.050      345.508       23.088      864.285
08/06/2014  21:41:00      -60.439      135.345      -16.211       30.399       66.682       24.961      924.096     4446.471      623.050        1.411        0.300      148.226       28.355        0.037      345.487       23.052      864.286
08/06/2014  21:42:00      -69.415      131.692      -17.675       32.862       48.528       22.917     1079.909     2354.972      525.185        1.322        0.198      148.866       12.190        0.007      345.465       23.014      864.280
08/06/2014  21:43:00      -70.675       81.998       -8.274       43.063       43.402       26.177     1854.390     1883.746      685.215        0.810        0.221      108.252       24.048        0.049      345.450       22.989      864.285
08/06/2014  21:44:00     -133.648       74.691      -25.487       40.078       35.731       24.823     1606.245     1276.681      616.165        1.379        0.175      153.103       22.849        0.022      345.507       23.086      864.289
08/06/2014  21:45:00     -108.992       92.416      -27.427       47.375       39.669       23.032     2244.426     1573.651      530.453        1.276        0.217      142.898       24.519        0.029      345.500       23.073      864.283
08/06/2014  21:46:00      -87.722       98.414      -19.091       44.270       51.441       24.201     1959.813     2646.135      585.700        1.147        0.260      131.835       27.148        0.042      345.501       23.077      864.288
08/06/2014  21:47:00     -111.714      115.592      -27.561       53.157       46.893       35.745     2825.664     2198.989     1277.716        1.645        0.315      160.753       33.064        0.042      345.526       23.119      864.306
08/06/2014  21:48:00      -92.117      107.480      -24.390       29.544       39.501       27.538      872.840     1560.291      758.326        1.191        0.160      141.554       16.991        0.014      345.494       23.064      864.314
08/06/2014  21:49:00      -88.793      109.701      -16.519       38.698       41.156       30.109     1497.563     1693.801      906.551        1.214        0.205      141.133       29.012        0.042      345.479       23.037      864.320
08/06/2014  21:50:00      -26.481       72.241      -12.140       26.376       33.991       17.448      695.674     1155.360      304.423        0.411        0.108       76.942       12.543        0.027      345.442       22.975      864.328
08/06/2014  21:51:00      -43.167       21.064       -3.705       24.940       22.136       15.188      622.016      489.991      230.672        0.183        0.067       48.032       11.778        0.060      345.407       22.913      864.344
08/06/2014  21:52:00      -67.735       20.907       -7.222       32.597       35.375       17.691     1062.553     1251.359      312.966        0.385        0.131       70.888       16.549        0.055      345.451       22.988      864.352
08/06/2014  21:53:00      -90.066       97.041      -24.232       31.762       31.243       19.842     1008.839      976.146      393.712        1.025        0.119      132.396       15.604        0.014      345.414       22.926      864.347
08/06/2014  21:54:00      -92.618       62.848      -16.723       30.365       32.728       20.155      922.003     1071.152      406.227        0.760        0.120      111.928       18.382        0.027      345.416       22.931      864.348
08/06/2014  21:55:00      -68.898       28.830      -13.238       28.472       31.309       14.339      810.632      980.231      205.599        0.387        0.100       74.686       13.308        0.032      345.369       22.852      864.364
08/06/2014  21:56:00      -73.659       56.217      -11.023       34.805       30.425       15.453     1211.411      925.701      238.784        0.554        0.119       92.660       17.452        0.035      345.360       22.834      864.374
08/06/2014  21:57:00     -104.822       79.261      -27.566       37.175       37.127       20.752     1381.956     1378.382      430.625        1.061        0.160      131.415       21.418        0.027      345.380       22.869      864.375
08/06/2014  21:58:00      -66.096        4.849       -5.255       20.656       44.306       20.664      426.660     1963.028      427.019        0.362        0.141       66.273       12.827        0.037      345.344       22.806      864.380
08/06/2014  21:59:00      -66.814       40.122      -16.145       23.727       44.859       23.007      562.987     2012.359      529.328        0.472        0.155       77.935       19.800        0.065      345.323       22.771      864.389
08/06/2014  22:00:00      -63.755       -1.663       -5.666       20.049       26.235       15.374      401.962      688.269      236.356        0.271        0.066       63.777        5.868        0.008      345.291       22.716      864.393
08/06/2014  22:01:00      -51.756        5.077       -4.025       11.974       10.247        6.901      143.387      105.011       47.622        0.151        0.015       52.005        1.938        0.001      345.309       22.749      864.389
08/06/2014  22:02:00      -33.359      -16.244        0.434       28.431       16.974       11.185      808.350      288.110      125.104        0.130        0.061       37.104       12.036        0.105      345.244       22.633      864.384
08/06/2014  22:03:00      -58.962      -26.970       -3.129       29.877       26.563       18.131      892.636      705.571      328.729        0.307        0.096       64.838        8.539        0.017      345.191       22.543      864.381
08/06/2014  22:04:00      -81.158      -59.979       -7.757       52.187       29.943       24.285     2723.520      896.572      589.749        0.723        0.210      100.916       12.199        0.015      345.123       22.429      864.380
08/06/2014  22:05:00      -88.608      -46.697        0.402       27.579       22.224       17.105      760.608      493.915      292.566        0.579        0.077      100.159       16.524        0.027      345.104       22.398      864.390
08/06/2014  22:06:00      -73.871      -45.158        5.698       42.599       31.673       20.129     1814.667     1003.204      405.157        0.538        0.161       86.581       23.993        0.077      345.120       22.422      864.387
08/06/2014  22:07:00      -33.263       -9.644        4.850       30.096       31.249       19.803      905.775      976.502      392.161        0.175        0.114       34.632       15.140        0.191      345.104       22.396      864.381
08/06/2014  22:08:00      -38.796      -36.865        3.877       49.453       33.175       26.331     2445.629     1100.592      693.332        0.356        0.212       53.517       25.364        0.225      345.066       22.332      864.371
08/06/2014  22:09:00      -75.577      -36.576       -2.532       54.353       31.908       24.622     2954.251     1018.139      606.220        0.582        0.229       83.962       24.443        0.085      344.950       22.133      864.360
08/06/2014  22:10:00      -54.945      -48.913        5.479       56.539       43.509       23.721     3196.678     1893.012      562.710        0.555        0.283       73.562       26.574        0.130      344.946       22.127      864.352
08/06/2014  22:11:00     -117.461      -70.022       -5.418       57.730       37.977       24.268     3332.771     1442.232      588.927        1.205        0.268      136.748       24.609        0.032      344.991       22.204      864.349
08/06/2014  22:12:00      -91.166      -71.052       -3.575       56.038       41.623       30.764     3140.278     1732.511      946.428        0.959        0.291      115.584       26.200        0.051      344.999       22.216      864.343
08/06/2014  22:13:00      -84.021      -39.690       -3.990       52.135       31.242       22.758     2718.057      976.071      517.945        0.643        0.211       92.924       27.411        0.087      345.023       22.257      864.346
08/06/2014  22:14:00      -92.343      -58.681       -3.003       53.377       31.064       22.575     2849.092      964.970      509.637        0.815        0.216      109.411       26.599        0.059      344.990       22.203      864.338
08/06/2014  22:15:00     -106.402      -49.813       -0.722       43.678       46.154       24.461     1907.791     2130.190      598.348        0.922        0.232      117.485       26.055        0.049      344.997       22.212      864.335
08/06/2014  22:16:00     -115.821      -50.375       -5.518       39.991       35.022       21.507     1599.249     1226.549      462.544        0.963        0.164      126.302       18.612        0.022      344.984       22.190      864.335
08/06/2014  22:17:00      -67.998      -12.094        2.704       48.790       34.704       28.346     2380.480     1204.334      803.500        0.458        0.219       69.065       30.597        0.196      345.006       22.230      864.340
08/06/2014  22:18:00      -62.714      -42.303        7.146       42.192       27.240       20.784     1780.132      741.996      431.988        0.436        0.148       75.648       22.974        0.092      345.002       22.222      864.346
08/06/2014  22:19:00      -18.990       -9.556       12.324       39.363       23.082       20.513     1549.435      532.793      420.792        0.155        0.125       21.259       22.176        1.088      345.062       22.325      864.346
08/06/2014  22:20:00      -35.943      -57.724        6.190       27.015       26.198       16.091      729.800      686.343      258.925        0.317        0.084       68.000       12.979        0.036      345.126       22.435      864.354
08/06/2014  22:21:00      -48.124      -38.845        6.797       43.626       28.935       21.033     1903.235      837.255      442.401        0.353        0.159       61.846       16.991        0.075      345.079       22.353      864.360
08/06/2014  22:22:00      -65.720      -60.229        2.996       39.728       30.401       19.604     1578.338      924.213      384.324        0.542        0.144       89.144       20.120        0.051      345.042       22.293      864.375
08/06/2014  22:23:00      -76.316      -55.411        1.035       32.322       30.208       17.360     1044.694      912.502      301.360        0.558        0.113       94.311       18.911        0.040      345.017       22.248      864.378
08/06/2014  22:24:00      -44.371      -32.491        0.997       14.277       14.260       12.231      203.842      203.360      149.591        0.179        0.028       54.995        6.889        0.016      345.025       22.261      864.385
08/06/2014  22:25:00      -48.780      -50.557        1.339       33.845       27.074       18.501     1145.459      733.022      342.287        0.358        0.111       70.254       19.707        0.079      344.995       22.210      864.385
08/06/2014  22:26:00      -47.981      -45.897        1.015       53.688       29.385       24.812     2882.428      863.460      615.657        0.438        0.218       66.398       26.015        0.154      344.963       22.157      864.396
08/06/2014  22:27:00      -22.712      -40.805        4.309       27.480       21.095       22.685      755.139      445.007      514.612        0.196        0.086       46.700        9.340        0.040      344.936       22.109      864.402
08/06/2014  22:28:00      -21.857      -31.121       -1.676       27.806       26.769       16.011      773.164      716.597      256.350        0.160        0.087       38.030       16.411        0.186      344.991       22.202      864.414
08/06/2014  22:29:00      -68.498      -40.774       -2.494       38.804       26.209       15.474     1505.745      686.897      239.457        0.440        0.122       79.715       18.263        0.052      344.971       22.169      864.428
08/06/2014  22:30:00      -57.249      -64.255      -10.157       38.579       21.361       16.908     1488.309      456.296      285.869        0.487        0.112       86.059       10.226        0.014      344.998       22.216      864.424
08/06/2014  22:31:00      -73.013      -49.681        0.420       26.340       21.359       16.153      693.781      456.190      260.917        0.460        0.071       88.312       11.846        0.018      344.995       22.208      864.423
08/06/2014  22:32:00      -50.829      -48.242        3.508       37.669       18.274       19.806     1418.968      333.922      392.278        0.353        0.107       70.078       11.598        0.027      345.020       22.254      864.411
08/06/2014  22:33:00      -71.168      -71.256        7.396       44.216       34.683       27.456     1955.019     1202.898      753.833        0.705        0.196      100.709       28.384        0.079      345.058       22.318      864.417
08/06/2014  22:34:00      -62.033      -43.660        2.919       38.788       24.792       18.757     1504.516      614.657      351.825        0.412        0.124       75.858       19.047        0.063      345.020       22.253      864.412
08/06/2014  22:35:00      -49.954      -34.787        1.827       38.679       22.770       15.301     1496.092      518.476      234.132        0.298        0.112       60.873       12.153        0.040      345.019       22.252      864.407
08/06/2014  22:36:00      -69.077      -27.372        1.474       26.269       18.438       13.538      690.047      339.974      183.287        0.337        0.061       74.303        7.174        0.009      345.063       22.327      864.400
08/06/2014  22:37:00      -30.539      -26.304        1.158       19.365       17.824        9.580      374.996      317.702       91.770        0.121        0.039       40.305        8.171        0.041      345.048       22.300      864.396
08/06/2014  22:38:00      -63.996      -36.961       -1.001       20.886       21.917       13.416      436.227      480.368      179.989        0.328        0.055       73.903        9.912        0.018      345.044       22.295      864.396
08/06/2014  22:39:00      -34.403      -30.213        3.105       17.327       20.288       13.237      300.229      411.598      175.211        0.150        0.044       45.786       10.741        0.055      345.054       22.311      864.405
08/06/2014  22:40:00      -45.091      -22.991       -7.232       13.025       17.333       13.278      169.656      300.437      176.302        0.163        0.032       50.614        8.558        0.029      345.064       22.329      864.408
08/06/2014  22:41:00      -54.376      -21.661       -1.240       15.320       12.679       10.699      234.706      160.760      114.475        0.197        0.025       58.531        7.032        0.014      345.067       22.334      864.402
08/06/2014  22:42:00      -38.856      -27.380       -1.871       14.597       21.111        9.609      213.084      445.665       92.323        0.151        0.038       47.534        7.329        0.024      345.062       22.324      864.388
08/06/2014  22:43:00      -54.125       16.648       -2.392       11.768        9.676        7.167      138.494       93.630       51.363        0.175        0.014       56.628        5.112        0.008      344.960       22.151      864.368
08/06/2014  22:44:00      -46.120       19.756       -2.231       20.726       13.165       13.207      429.552      173.326      174.431        0.165        0.039       50.174       11.856        0.056      344.909       22.063      864.353
08/06/2014  22:45:00      -63.535       24.194       -3.059       18.577       11.292       10.601      345.091      127.506      112.384        0.261        0.029       67.985       10.154        0.022      344.938       22.113      864.336
08/06/2014  22:46:00      -53.956       11.842       -4.329        9.606        8.810        6.924       92.285       77.618       47.935        0.164        0.011       55.241        2.341        0.002      344.973       22.173      864.325
08/06/2014  22:47:00      -57.403       -3.381       -5.138       11.413       16.598        7.779      130.246      275.502       60.514        0.190        0.023       57.502        4.849        0.007      344.986       22.195      864.320
08/06/2014  22:48:00      -48.854      -22.174       -6.287       14.963       13.169        8.821      223.900      173.432       77.815        0.170        0.024       53.651        8.456        0.025      344.907       22.059      864.322
08/06/2014  22:49:00      -50.850      -31.931       -1.910        8.844        8.463        8.735       78.215       71.628       76.305        0.192        0.011       60.044        6.518        0.012      344.906       22.057      864.322
08/06/2014  22:50:00      -60.364      -32.682       -0.774       18.428       12.357       13.844      339.576      152.701      191.645        0.270        0.034       68.643        8.703        0.016      344.850       21.962      864.326
08/06/2014  22:51:00      -47.239      -46.750        2.092       28.439       17.644       13.452      808.750      311.293      180.964        0.286        0.065       66.461       10.781        0.026      344.792       21.863      864.328
08/06/2014  22:52:00      -65.256      -40.730        0.308       26.222       16.580       14.114      687.600      274.900      199.210        0.354        0.058       76.924        9.208        0.014      344.795       21.869      864.350
08/06/2014  22:53:00      -27.022      -25.174        3.592       27.037       18.549       15.042      731.008      344.064      226.251        0.134        0.065       36.932       14.106        0.146      344.832       21.930      864.368
08/06/2014  22:54:00      -26.318      -25.311        7.721       21.593       20.361       14.712      466.243      414.583      216.432        0.124        0.055       36.514       11.319        0.096      344.823       21.917      864.379
08/06/2014  22:55:00      -15.688      -25.059        4.794       24.184       18.728       16.542      584.858      350.724      273.651        0.105        0.060       29.565       16.365        0.306      344.837       21.937      864.394
08/06/2014  22:56:00      -13.801      -34.937        6.785       26.762       24.798       17.166      716.199      614.963      294.658        0.154        0.081       37.564       18.743        0.249      344.857       21.975      864.407
08/06/2014  22:57:00      -29.884      -97.683        2.030       31.752       24.656       16.585     1008.167      607.933      275.049        0.616        0.095      102.151       10.958        0.012      344.900       22.048      864.419
08/06/2014  22:58:00       17.095      -70.026        3.603       19.862       36.425       22.680      394.502     1326.756      514.390        0.372        0.112       72.083       23.682        0.108      344.907       22.058      864.421
08/06/2014  22:59:00      -26.083      -59.149        3.291       40.694       33.847       15.724     1655.988     1145.588      247.252        0.362        0.152       64.645       12.300        0.036      344.840       21.943      864.432
08/06/2014  23:00:00      -16.293       -0.873       -2.629       11.225       14.039       11.415      125.992      197.086      130.296        0.036        0.023       16.316        4.762        0.085      344.845       21.952      864.437
08/06/2014  23:01:00      -10.980      -20.823       10.423        7.945       20.014       11.110       63.125      400.551      123.425        0.062        0.029       23.541        6.784        0.083      344.750       21.791      864.457
08/06/2014  23:02:00       -6.772        1.433        8.226        8.934        9.512        6.087       79.821       90.471       37.057        0.016        0.010        6.922        5.379        0.604      344.689       21.686      864.472
08/06/2014  23:03:00      -15.826      -13.922        1.526        8.328        9.880        8.121       69.349       97.620       65.957        0.034        0.012       21.078        5.370        0.065      344.770       21.827      864.478
08/06/2014  23:04:00      -20.437       -3.344        0.105       10.041        9.392        5.503      100.830       88.210       30.287        0.032        0.011       20.709        2.439        0.014      344.738       21.770      864.482
08/06/2014  23:05:00      -16.184      -22.353       -6.268       12.980       17.576        9.305      168.476      308.930       86.578        0.068        0.028       27.597        7.192        0.068      344.799       21.874      864.495
08/06/2014  23:06:00      -23.689      -25.485        2.401       15.347       12.033       12.598      235.538      144.782      158.710        0.088        0.027       34.795       10.215        0.086      344.823       21.917      864.503
08/06/2014  23:07:00      -15.357      -34.210        5.122       15.897       20.131       10.532      252.718      405.270      110.914        0.110        0.038       37.499        9.505        0.064      344.803       21.883      864.517
08/06/2014  23:08:00      -48.882      -64.219      -10.229       27.086       26.960       14.983      733.677      726.821      224.479        0.415        0.084       80.706        7.612        0.009      344.830       21.927      864.532
08/06/2014  23:09:00      -49.837      -67.893       -1.209       42.424       34.395       19.784     1799.782     1183.027      391.402        0.523        0.169       84.221       24.422        0.084      344.798       21.873      864.547
08/06/2014  23:10:00      -44.231      -49.906        0.711       24.898       24.361       17.852      619.906      593.462      318.704        0.299        0.077       66.686       13.142        0.039      344.776       21.835      864.542
08/06/2014  23:11:00      -35.426      -87.487        6.711       33.296       56.270       15.020     1108.604     3166.273      225.593        0.673        0.225       94.387       23.700        0.063      344.752       21.794      864.539
08/06/2014  23:12:00      -58.887     -141.771       -5.785       17.647       17.553       13.521      311.422      308.090      182.804        1.220        0.040      153.515       10.253        0.004      344.867       21.989      864.534
08/06/2014  23:13:00      -42.677     -107.572       -4.093       15.991       21.168       15.461      255.709      448.088      239.054        0.718        0.047      115.729       10.677        0.009      344.833       21.932      864.532
08/06/2014  23:14:00      -30.927      -49.594        5.041       19.589       28.298       12.630      383.721      800.766      159.509        0.239        0.067       58.447       13.380        0.052      344.761       21.807      864.530
08/06/2014  23:15:00      -12.674      -18.881        3.063       19.800       12.620       12.675      392.059      159.270      160.652        0.062        0.036       22.740        7.208        0.100      344.676       21.664      864.529
08/06/2014  23:16:00      -16.481       -2.849        1.775       10.433        7.811        6.281      108.848       61.007       39.449        0.025        0.010       16.725        3.205        0.037      344.694       21.692      864.520
08/06/2014  23:17:00       -6.701      -27.784       10.136       23.921       22.227       15.224      572.202      494.047      231.783        0.111        0.065       28.580       16.192        0.321      344.711       21.723      864.516
08/06/2014  23:18:00      -25.817       -8.944       -8.788       16.688       19.095       12.793      278.505      364.624      163.658        0.082        0.040       27.322       10.238        0.140      344.739       21.768      864.508
08/06/2014  23:19:00      -47.372       -5.470       -1.363        9.913       12.100        8.612       98.258      146.399       74.158        0.130        0.016       47.686        6.625        0.019      344.636       21.596      864.505
08/06/2014  23:20:00      -27.790       -5.602       -0.817       12.635        7.594        6.728      159.631       57.665       45.265        0.053        0.013       28.349        6.742        0.057      344.620       21.569      864.507
08/06/2014  23:21:00      -15.903       -0.459        3.971        5.942        4.540        4.577       35.309       20.609       20.950        0.017        0.004       15.910        3.666        0.053      344.599       21.533      864.514
08/06/2014  23:22:00      -23.867        1.315       -2.235        4.774        4.283        4.124       22.794       18.343       17.006        0.032        0.003       23.903        2.455        0.011      344.592       21.519      864.521
08/06/2014  23:23:00      -31.534       -1.842       -2.231        8.530        7.335        4.833       72.769       53.797       23.356        0.058        0.007       31.588        4.088        0.017      344.611       21.551      864.516
08/06/2014  23:24:00      -22.769       -3.982       -4.969       15.695        8.515        5.789      246.348       72.501       33.516        0.046        0.018       23.115        5.721        0.061      344.643       21.607      864.511
08/06/2014  23:25:00      -34.804        2.556       -3.570       20.337       21.184        9.069      413.608      448.763       82.251        0.109        0.047       34.898        9.557        0.075      344.571       21.487      864.509
08/06/2014  23:26:00      -40.722       29.406       -6.465        7.650        8.837        5.706       58.530       78.091       32.555        0.137        0.008       50.230        3.178        0.004      344.509       21.377      864.513
08/06/2014  23:27:00      -37.274       23.771       -7.485        7.268        7.509        4.161       52.823       56.378       17.312        0.107        0.006       44.208        1.589        0.001      344.455       21.284      864.521
08/06/2014  23:28:00      -39.653       26.470       -5.522        5.651        6.458        3.960       31.936       41.711       15.678        0.120        0.004       47.676        2.666        0.003      344.495       21.351      864.517
08/06/2014  23:29:00      -40.868       18.133       -3.522        6.283        7.318        5.414       39.479       53.553       29.308        0.107        0.006       44.711        3.610        0.007      344.515       21.387      864.514
08/06/2014  23:30:00      -34.402        1.041       -5.466        6.866        7.848        4.082       47.144       61.586       16.666        0.067        0.006       34.418        3.961        0.013      344.465       21.304      864.504
08/06/2014  23:31:00      -23.024       -7.659       -1.578        6.427        9.058        5.435       41.307       82.046       29.540        0.037        0.008       24.265        4.622        0.036      344.467       21.309      864.496
08/06/2014  23:32:00      -13.384      -22.093       -5.791       11.407        9.294        4.960      130.130       86.384       24.602        0.047        0.012       25.831        4.399        0.029      344.359       21.121      864.493
08/06/2014  23:33:00      -20.298      -25.837       -6.547       11.116        7.872        5.490      123.559       61.975       30.140        0.067        0.011       32.857        4.771        0.021      344.323       21.058      864.494
08/06/2014  23:34:00       -2.406      -22.622       -3.428        4.760       11.069        5.749       22.661      122.525       33.052        0.035        0.009       22.749        3.782        0.028      344.294       21.015      864.491
08/06/2014  23:35:00        4.086      -47.438       -3.512       14.376       17.164       10.850      206.674      294.600      117.712        0.145        0.031       47.614        9.837        0.043      344.425       21.232      864.490
08/06/2014  23:36:00       30.161      -52.246       -9.558       37.546       29.393       22.179     1409.688      863.938      491.921        0.325        0.138       60.326       19.833        0.108      344.384       21.165      864.490
08/06/2014  23:37:00       28.334      -44.540       -3.693       36.017       40.940       31.588     1297.202     1676.058      997.799        0.338        0.199       52.789       28.807        0.298      344.320       21.056      864.482
08/06/2014  23:38:00      122.417     -110.722        2.946       63.639       78.507       56.222     4049.882     6163.320     3160.906        2.031        0.669      165.062       48.652        0.087      344.400       21.189      864.487
08/06/2014  23:39:00       72.080      -42.189       49.038       93.938      100.566       65.151     8824.303    10113.550     4244.717        1.628        1.159       83.519       66.795        0.640      344.338       21.085      864.481
08/06/2014  23:40:00       34.447     -129.136        1.703       68.250       64.132       47.611     4658.072     4112.870     2266.770        1.445        0.552      133.651       45.910        0.118      344.336       21.081      864.495
08/06/2014  23:41:00       47.089      -64.941       11.107       49.546       79.710       44.404     2454.821     6353.684     1971.728        0.867        0.539       80.217       36.830        0.211      344.338       21.086      864.498
08/06/2014  23:42:00       -8.702      -50.119       -2.788       35.475       30.788       23.346     1258.443      947.871      545.040        0.267        0.138       50.869       17.362        0.116      344.331       21.074      864.501
08/06/2014  23:43:00      -20.503      -27.436        0.878       23.339       27.082       16.848      544.705      733.429      283.848        0.137        0.078       34.251        5.675        0.027      344.292       21.007      864.484
08/06/2014  23:44:00      -58.127      -31.046        4.566       40.603       34.336       17.460     1648.592     1178.982      304.863        0.375        0.157       65.898       17.044        0.067      344.307       21.032      864.475
08/06/2014  23:45:00      -33.785      -67.058       -8.745       28.503       27.238       20.868      812.413      741.893      435.467        0.385        0.099       75.088       18.170        0.059      344.386       21.168      864.468
08/06/2014  23:46:00      -40.337      -50.005        6.054       30.342       29.346       18.458      920.634      861.161      340.688        0.314        0.106       64.246       16.575        0.067      344.375       21.149      864.460
08/06/2014  23:47:00      -53.705      -54.113        7.890       43.200       29.113       24.571     1866.266      847.572      603.724        0.460        0.166       76.240       22.895        0.090      344.347       21.102      864.460
08/06/2014  23:48:00      -23.354      -39.134       10.123       46.324       25.311       20.584     2145.959      640.626      423.715        0.269        0.161       45.573       18.605        0.167      344.276       20.980      864.454
08/06/2014  23:49:00      -71.007      -53.733        4.241       40.409       35.339       21.558     1632.898     1248.836      464.749        0.565        0.167       89.046       21.889        0.060      344.296       21.014      864.439
08/06/2014  23:50:00      -48.524      -68.374        5.042       29.625       41.235       19.914      877.654     1700.329      396.586        0.501        0.149       83.843       19.919        0.056      344.296       21.013      864.424
08/06/2014  23:51:00      -90.690      -42.060        8.583       50.288       38.803       25.174     2528.901     1505.668      633.723        0.737        0.233       99.969       23.354        0.055      344.249       20.935      864.415
08/06/2014  23:52:00     -102.151      -49.961       -3.807       35.728       55.053       21.223     1276.493     3030.796      450.408        0.885        0.238      113.714       15.414        0.018      344.265       20.964      864.416
08/06/2014  23:53:00     -119.187      -43.727       -1.567       44.074       34.755       20.028     1942.545     1207.925      401.109        0.984        0.178      126.955       20.155        0.025      344.224       20.893      864.413
08/06/2014  23:54:00      -66.879      -35.459        3.405       51.097       29.390       21.949     2610.859      863.777      481.738        0.485        0.198       75.698       17.922        0.056      344.184       20.823      864.400
08/06/2014  23:55:00     -117.687      -64.004        4.470       52.934       52.917       30.110     2801.973     2800.172      906.585        1.224        0.325      133.965       30.636        0.052      344.180       20.815      864.402
08/06/2014  23:56:00     -139.038      -20.293       -4.000       61.955       35.128       26.438     3838.434     1233.949      698.955        1.276        0.289      140.511       24.574        0.031      344.136       20.741      864.411
08/06/2014  23:57:00     -111.475      -35.415       -2.650       58.277       54.041       26.757     3396.191     2920.430      715.914        1.036        0.352      116.966       31.647        0.073      344.083       20.651      864.410
08/06/2014  23:58:00      -67.659      -28.944        2.591       39.789       29.144       17.493     1583.134      849.367      305.999        0.408        0.137       73.591       17.260        0.055      344.018       20.541      864.419
08/06/2014  23:59:00      -63.043      -19.543        2.761       39.405       27.094       20.754     1552.764      734.062      430.710        0.354        0.136       66.003       19.239        0.085      343.968       20.453      864.435
